[[{"header":{"parameterUnit":"m.s-1","parameterCategory":1,"la1":30.6,"la2":29.2853,"lo1":-89.7004,"lo2":-87.6739,"dy":0.0162,"dx":0.0183,"nx":112,"ny":82,"refTime":"2026-05-16T12:00:00:Z","depth":0,"parameterNumber":2,"parameterNumberName":"U-component_of_WINDS"},"data":[0.0,0.0,0.0,0.0,0.0,0.0,0.0,0.0,0.0,0.0,0.0,0.0,0.0,0.0,0.0,0.0,0.0,0.0,0.0,0.0,0.0,0.0,0.0,0.0,0.0,0.0,0.0,0.0,0.0,0.0,0.0,0.0,0.0,0.0,0.0,0.0,0.0,0.0,0.0,0.0,0.0,0.0,0.0,0.0,0.0,0.0,0.0,0.0,0.0,0.0,0.0,0.0,0.0,0.0,0.0,0.0,0.0,0.0,0.0,0.0,0.0,0.0,0.0,0.0,0.0,0.0,0.0,0.0,0.0,0.0,0.0,0.0,0.0,0.0,0.0,0.0,0.0,0.0,0.0,0.0,0.0,0.0,0.0,0.0,0.0,0.0,0.0,0.0,0.0,0.0,-5.3211,-5.5525,-5.941,-6.1776,-6.1692,-5.9909,-5.7173,-5.3447,0.0,0.0,0.0,0.0,0.0,0.0,0.0,0.0,0.0,0.0,0.0,0.0,0.0,0.0,0.0,0.0,0.0,0.0,0.0,0.0,0.0,0.0,0.0,0.0,0.0,0.0,0.0,0.0,0.0,0.0,0.0,0.0,0.0,0.0,0.0,0.0,0.0,0.0,0.0,0.0,0.0,0.0,0.0,0.0,0.0,0.0,0.0,0.0,0.0,0.0,0.0,0.0,0.0,0.0,0.0,0.0,0.0,0.0,0.0,0.0,0.0,0.0,0.0,0.0,0.0,0.0,0.0,0.0,0.0,0.0,0.0,0.0,0.0,0.0,0.0,0.0,0.0,0.0,0.0,0.0,0.0,0.0,0.0,0.0,0.0,0.0,0.0,0.0,0.0,0.0,0.0,0.0,0.0,0.0,0.0,0.0,0.0,0.0,0.0,0.0,0.0,0.0,0.0,0.0,-5.2825,-5.7706,-6.0,-6.0927,-6.0344,-5.9355,-5.6558,-5.1485,0.0,0.0,0.0,0.0,0.0,0.0,0.0,0.0,0.0,0.0,0.0,0.0,0.0,0.0,0.0,0.0,0.0,0.0,0.0,0.0,0.0,0.0,0.0,0.0,0.0,0.0,0.0,0.0,0.0,0.0,0.0,0.0,0.0,0.0,0.0,0.0,0.0,0.0,0.0,0.0,0.0,0.0,0.0,0.0,0.0,0.0,0.0,0.0,0.0,0.0,0.0,0.0,0.0,0.0,0.0,0.0,0.0,0.0,0.0,0.0,0.0,0.0,0.0,0.0,0.0,0.0,0.0,0.0,0.0,0.0,0.0,0.0,0.0,0.0,0.0,0.0,0.0,0.0,0.0,0.0,0.0,0.0,0.0,0.0,0.0,0.0,0.0,0.0,0.0,0.0,0.0,0.0,0.0,0.0,0.0,0.0,0.0,0.0,0.0,0.0,0.0,0.0,0.0,-5.1141,-5.3579,-5.8882,-6.0039,-6.0282,-5.9867,-5.8016,-5.5044,-5.0807,-4.8574,0.0,0.0,0.0,0.0,0.0,0.0,0.0,0.0,0.0,0.0,0.0,0.0,0.0,0.0,0.0,0.0,0.0,0.0,0.0,0.0,0.0,0.0,0.0,0.0,0.0,0.0,0.0,0.0,0.0,0.0,0.0,0.0,0.0,0.0,0.0,0.0,0.0,0.0,0.0,0.0,0.0,0.0,0.0,0.0,0.0,0.0,0.0,0.0,0.0,0.0,0.0,0.0,0.0,0.0,0.0,0.0,0.0,0.0,0.0,0.0,0.0,0.0,0.0,0.0,0.0,0.0,0.0,0.0,0.0,0.0,0.0,0.0,0.0,0.0,0.0,0.0,0.0,0.0,0.0,0.0,0.0,0.0,0.0,0.0,0.0,0.0,0.0,0.0,0.0,0.0,0.0,0.0,0.0,0.0,0.0,0.0,0.0,0.0,0.0,0.0,0.0,0.0,-5.3109,-5.4571,-5.8897,-5.9478,-5.9408,-5.8936,-5.6326,-5.3301,-4.9907,-4.6862,0.0,0.0,0.0,0.0,0.0,0.0,0.0,0.0,0.0,0.0,0.0,0.0,0.0,0.0,0.0,0.0,0.0,0.0,0.0,0.0,0.0,0.0,0.0,0.0,0.0,0.0,0.0,0.0,0.0,0.0,0.0,0.0,0.0,0.0,0.0,0.0,0.0,0.0,0.0,0.0,0.0,0.0,0.0,0.0,0.0,0.0,0.0,0.0,0.0,0.0,0.0,0.0,0.0,0.0,0.0,0.0,0.0,0.0,0.0,0.0,0.0,0.0,0.0,0.0,0.0,0.0,0.0,0.0,0.0,0.0,0.0,0.0,0.0,0.0,0.0,0.0,0.0,0.0,0.0,0.0,0.0,0.0,0.0,0.0,0.0,0.0,0.0,0.0,0.0,0.0,0.0,0.0,0.0,0.0,0.0,0.0,0.0,0.0,0.0,0.0,0.0,0.0,-5.2874,-5.5559,-5.7312,-5.8069,-5.787,-5.6575,-5.4363,-5.1498,-4.7833,-4.485,0.0,0.0,0.0,0.0,0.0,0.0,0.0,0.0,0.0,0.0,0.0,0.0,0.0,0.0,0.0,0.0,0.0,0.0,0.0,0.0,0.0,0.0,0.0,0.0,0.0,0.0,0.0,0.0,0.0,0.0,0.0,0.0,0.0,0.0,0.0,0.0,0.0,0.0,0.0,0.0,0.0,0.0,0.0,0.0,0.0,0.0,0.0,0.0,0.0,0.0,0.0,0.0,0.0,0.0,0.0,0.0,0.0,0.0,0.0,0.0,0.0,0.0,0.0,0.0,0.0,0.0,0.0,0.0,0.0,0.0,0.0,0.0,0.0,0.0,0.0,0.0,0.0,0.0,0.0,0.0,0.0,0.0,0.0,0.0,0.0,0.0,0.0,0.0,0.0,0.0,0.0,0.0,0.0,0.0,0.0,0.0,0.0,0.0,0.0,0.0,0.0,0.0,-5.1062,-5.3975,-5.6352,-5.6844,-5.671,-5.607,-5.4013,-5.1195,-4.7425,0.0,0.0,0.0,0.0,0.0,0.0,0.0,0.0,0.0,0.0,0.0,0.0,0.0,0.0,0.0,0.0,0.0,0.0,0.0,0.0,0.0,0.0,0.0,0.0,0.0,0.0,0.0,0.0,0.0,0.0,0.0,0.0,0.0,0.0,0.0,0.0,0.0,0.0,0.0,0.0,0.0,0.0,0.0,0.0,0.0,0.0,0.0,0.0,0.0,0.0,0.0,0.0,0.0,0.0,0.0,0.0,0.0,0.0,0.0,0.0,0.0,0.0,0.0,0.0,0.0,0.0,0.0,0.0,0.0,0.0,0.0,0.0,0.0,0.0,0.0,0.0,0.0,0.0,0.0,0.0,0.0,0.0,0.0,0.0,0.0,0.0,0.0,0.0,0.0,0.0,0.0,0.0,0.0,0.0,0.0,0.0,0.0,0.0,0.0,0.0,0.0,0.0,-4.6924,-4.9958,-5.2879,-5.5395,-5.5666,-5.5492,-5.5111,-5.2952,-5.0059,-4.6537,0.0,0.0,0.0,0.0,0.0,0.0,0.0,0.0,0.0,0.0,0.0,0.0,0.0,0.0,0.0,0.0,0.0,0.0,0.0,0.0,0.0,0.0,0.0,0.0,0.0,0.0,0.0,0.0,0.0,0.0,0.0,0.0,0.0,0.0,0.0,0.0,0.0,0.0,0.0,0.0,0.0,0.0,0.0,0.0,0.0,0.0,0.0,0.0,0.0,0.0,0.0,0.0,0.0,0.0,0.0,0.0,0.0,0.0,0.0,0.0,0.0,0.0,0.0,0.0,0.0,0.0,0.0,0.0,0.0,0.0,0.0,0.0,0.0,0.0,0.0,0.0,0.0,0.0,0.0,0.0,0.0,0.0,0.0,0.0,0.0,0.0,0.0,0.0,0.0,0.0,0.0,0.0,0.0,0.0,0.0,0.0,0.0,0.0,0.0,0.0,0.0,0.0,-4.6647,-4.9984,-5.2775,-5.4316,-5.4456,-5.4158,-5.343,-5.0749,-4.7836,0.0,0.0,0.0,0.0,0.0,0.0,0.0,0.0,0.0,0.0,0.0,0.0,0.0,0.0,0.0,0.0,0.0,0.0,0.0,0.0,0.0,0.0,0.0,0.0,0.0,0.0,0.0,0.0,0.0,0.0,0.0,0.0,0.0,0.0,0.0,0.0,0.0,0.0,0.0,0.0,0.0,0.0,0.0,0.0,0.0,0.0,0.0,0.0,0.0,0.0,0.0,0.0,0.0,0.0,0.0,0.0,0.0,0.0,0.0,0.0,0.0,0.0,0.0,0.0,0.0,0.0,0.0,0.0,0.0,0.0,0.0,0.0,0.0,0.0,0.0,0.0,0.0,0.0,0.0,0.0,0.0,0.0,0.0,0.0,0.0,0.0,0.0,0.0,0.0,0.0,0.0,0.0,0.0,0.0,0.0,0.0,0.0,0.0,0.0,0.0,0.0,0.0,0.0,-4.4449,-4.8499,-5.1462,-5.1923,-5.1963,-5.1898,-5.1635,-4.9486,-4.6869,-4.4041,0.0,0.0,0.0,0.0,0.0,0.0,0.0,0.0,0.0,0.0,0.0,0.0,0.0,0.0,0.0,0.0,0.0,0.0,0.0,0.0,0.0,0.0,0.0,0.0,0.0,0.0,0.0,0.0,0.0,0.0,0.0,0.0,0.0,0.0,0.0,0.0,0.0,0.0,0.0,0.0,0.0,0.0,0.0,0.0,0.0,0.0,0.0,0.0,0.0,0.0,0.0,0.0,0.0,0.0,0.0,0.0,0.0,0.0,0.0,0.0,0.0,0.0,0.0,0.0,0.0,0.0,0.0,0.0,0.0,0.0,0.0,0.0,0.0,0.0,0.0,0.0,0.0,0.0,0.0,0.0,0.0,0.0,0.0,0.0,0.0,0.0,0.0,0.0,0.0,0.0,0.0,0.0,0.0,0.0,0.0,0.0,0.0,0.0,0.0,0.0,0.0,0.0,-4.3482,-4.7359,-5.0115,-5.0437,-5.0437,-5.0437,-5.0437,-4.8762,-4.6344,-4.3193,0.0,0.0,0.0,0.0,0.0,0.0,0.0,0.0,0.0,0.0,0.0,0.0,0.0,0.0,0.0,0.0,0.0,0.0,0.0,0.0,0.0,0.0,0.0,0.0,0.0,0.0,0.0,0.0,0.0,0.0,0.0,0.0,0.0,0.0,0.0,0.0,0.0,0.0,0.0,0.0,0.0,0.0,0.0,0.0,0.0,0.0,0.0,0.0,0.0,0.0,0.0,0.0,0.0,0.0,0.0,0.0,0.0,0.0,0.0,0.0,0.0,0.0,0.0,0.0,0.0,0.0,0.0,0.0,0.0,0.0,0.0,0.0,0.0,0.0,0.0,0.0,0.0,0.0,0.0,0.0,0.0,0.0,0.0,0.0,0.0,0.0,0.0,0.0,0.0,0.0,0.0,0.0,0.0,0.0,0.0,0.0,0.0,0.0,0.0,0.0,0.0,0.0,-4.3169,-4.6261,-4.8646,-4.9407,-4.9487,-4.9487,-4.9487,-4.82,-4.5933,-4.2375,0.0,0.0,0.0,0.0,0.0,0.0,0.0,0.0,0.0,0.0,0.0,0.0,0.0,0.0,0.0,0.0,0.0,0.0,0.0,0.0,0.0,0.0,0.0,0.0,0.0,0.0,0.0,0.0,0.0,0.0,0.0,0.0,0.0,0.0,0.0,0.0,0.0,0.0,0.0,0.0,0.0,0.0,0.0,0.0,0.0,0.0,0.0,0.0,0.0,0.0,0.0,0.0,0.0,0.0,0.0,0.0,0.0,0.0,0.0,0.0,-4.2334,-4.1911,0.0,0.0,0.0,0.0,0.0,0.0,0.0,0.0,0.0,0.0,0.0,0.0,0.0,0.0,0.0,0.0,0.0,0.0,0.0,0.0,0.0,0.0,0.0,0.0,0.0,0.0,0.0,0.0,0.0,0.0,0.0,0.0,0.0,0.0,0.0,0.0,0.0,0.0,0.0,0.0,-4.14,-4.4276,-4.6522,-4.7233,-4.7292,-4.7292,-4.7292,-4.6035,-4.4248,-4.1869,-4.006,0.0,0.0,0.0,0.0,0.0,0.0,0.0,0.0,0.0,0.0,0.0,0.0,0.0,0.0,0.0,0.0,0.0,0.0,0.0,0.0,0.0,0.0,0.0,0.0,0.0,0.0,0.0,0.0,0.0,0.0,0.0,0.0,0.0,0.0,0.0,0.0,0.0,0.0,0.0,0.0,0.0,0.0,0.0,0.0,0.0,0.0,0.0,0.0,0.0,0.0,0.0,0.0,0.0,0.0,0.0,0.0,0.0,0.0,0.0,0.0,-4.2552,0.0,0.0,0.0,0.0,0.0,0.0,0.0,0.0,0.0,0.0,0.0,0.0,0.0,0.0,0.0,0.0,0.0,0.0,0.0,0.0,0.0,0.0,0.0,0.0,0.0,0.0,0.0,0.0,0.0,0.0,0.0,0.0,0.0,0.0,0.0,0.0,0.0,0.0,0.0,0.0,-4.0749,-4.3655,-4.5843,-4.6521,-4.6314,-4.6108,-4.6108,-4.4899,-4.343,-4.1683,-3.9794,0.0,0.0,0.0,0.0,0.0,0.0,0.0,0.0,0.0,0.0,0.0,0.0,0.0,0.0,0.0,0.0,0.0,0.0,0.0,0.0,0.0,0.0,0.0,0.0,0.0,0.0,0.0,0.0,0.0,0.0,0.0,0.0,0.0,0.0,0.0,0.0,0.0,0.0,0.0,0.0,0.0,0.0,0.0,0.0,0.0,0.0,0.0,0.0,0.0,0.0,0.0,0.0,0.0,-4.4811,-4.4864,-4.5183,-4.4758,-4.4731,-4.4943,-4.351,-4.3282,-4.3701,-4.2893,0.0,0.0,0.0,0.0,0.0,0.0,0.0,0.0,0.0,0.0,0.0,0.0,0.0,0.0,0.0,0.0,0.0,0.0,0.0,0.0,0.0,0.0,0.0,0.0,-3.8086,-3.8442,0.0,0.0,0.0,0.0,0.0,0.0,0.0,0.0,0.0,0.0,0.0,0.0,-4.0334,-4.3201,-4.5402,-4.6065,-4.5667,-4.5344,-4.5344,-4.4255,-4.2996,-4.169,-3.9991,-3.8407,0.0,0.0,0.0,0.0,0.0,0.0,0.0,0.0,0.0,0.0,0.0,0.0,0.0,0.0,0.0,0.0,0.0,0.0,0.0,0.0,0.0,0.0,0.0,0.0,0.0,0.0,0.0,0.0,0.0,0.0,0.0,0.0,-4.4786,-4.5353,0.0,0.0,0.0,0.0,0.0,0.0,0.0,0.0,0.0,0.0,0.0,0.0,0.0,-4.5208,-4.4357,-4.5872,-4.5964,-4.4694,-4.6028,-4.629,-4.5454,-4.5859,-4.5555,-4.4694,-4.4972,0.0,-4.4846,-4.4242,0.0,0.0,0.0,0.0,0.0,0.0,0.0,0.0,0.0,0.0,0.0,0.0,0.0,0.0,0.0,0.0,0.0,0.0,0.0,0.0,0.0,0.0,-3.912,-3.8132,-3.8385,-3.8713,0.0,-3.6951,-3.5885,-3.4642,-3.4097,0.0,0.0,0.0,0.0,0.0,0.0,0.0,-3.9282,-4.167,-4.3571,-4.424,-4.424,-4.4182,-4.4182,-4.3513,-4.2785,-4.2046,-4.072,-3.9353,-3.8036,-3.6612,0.0,0.0,0.0,0.0,0.0,0.0,0.0,0.0,0.0,0.0,0.0,0.0,0.0,0.0,0.0,0.0,0.0,0.0,0.0,0.0,0.0,0.0,0.0,0.0,0.0,0.0,0.0,0.0,0.0,-4.2372,-4.3411,-4.3021,-4.2761,-4.219,0.0,0.0,0.0,0.0,0.0,0.0,0.0,0.0,0.0,-4.4779,-4.571,-4.6103,-4.5974,-4.6993,-4.7161,-4.6476,-4.7205,-4.7154,-4.6426,-4.6652,-4.6326,-4.5598,-4.5824,-4.59,-4.5684,-4.4781,-4.3333,-4.167,0.0,0.0,0.0,0.0,-4.0237,-4.0548,-4.1232,-4.1459,0.0,-4.0421,0.0,0.0,0.0,0.0,0.0,0.0,0.0,0.0,0.0,0.0,-3.8793,-3.8919,-3.9145,-3.927,-3.9019,-3.8044,-3.6897,0.0,-3.5505,-3.4965,-3.3796,0.0,0.0,0.0,0.0,-3.7678,-3.8533,-4.026,-4.1651,-4.2312,-4.2043,-4.1847,-4.1847,-4.1259,-4.074,-4.0488,-3.962,-3.8824,-3.8293,-3.6677,-3.5272,0.0,0.0,0.0,0.0,0.0,0.0,0.0,0.0,0.0,0.0,0.0,0.0,0.0,0.0,0.0,0.0,0.0,0.0,0.0,0.0,0.0,0.0,0.0,0.0,0.0,0.0,0.0,0.0,-4.1656,-4.2434,-4.148,-4.2108,-4.2007,0.0,0.0,0.0,0.0,0.0,0.0,-4.3137,-4.3614,-4.4342,-4.5422,-4.6426,-4.7079,-4.733,-4.7857,-4.8058,-4.7908,-4.7908,-4.7631,-4.7068,-4.7068,-4.6828,-4.6301,-4.6301,-4.6301,-4.6235,-4.5144,-4.3962,-4.2832,-4.2075,-4.1293,-4.0636,-4.1134,-4.135,-4.1544,-4.2268,-4.2468,-4.2206,-4.0752,0.0,-3.9367,-3.7574,0.0,0.0,0.0,0.0,-3.7796,-3.8723,-3.8614,-3.8441,-3.9393,-3.9594,-3.9645,-3.9697,-3.8793,-3.7783,0.0,-3.6599,-3.5885,-3.4299,0.0,0.0,0.0,-3.5575,-3.7022,-3.7859,-3.9104,-4.0097,-4.0577,-4.0178,-3.9934,-3.9934,-3.9481,-3.921,-3.921,-3.8803,-3.8559,-3.8559,-3.6995,-3.5723,-3.4846,0.0,0.0,0.0,0.0,0.0,0.0,0.0,0.0,0.0,0.0,0.0,0.0,0.0,0.0,0.0,0.0,0.0,0.0,0.0,0.0,0.0,0.0,0.0,0.0,0.0,0.0,0.0,0.0,0.0,-4.3714,-4.507,0.0,0.0,0.0,0.0,-4.2811,-4.2582,-4.3447,-4.5974,-4.6125,-4.6627,-4.7707,-4.8335,-4.8385,-4.7883,-4.8435,-4.846,-4.7908,-4.7908,-4.7631,-4.7068,-4.7068,-4.6828,-4.6301,-4.6301,-4.6301,-4.6276,-4.5682,-4.4752,-4.362,-4.2599,-4.149,-4.0505,-4.053,-4.0699,-4.101,-4.1554,-4.1558,-4.1435,-4.1847,-4.0567,-3.8745,-3.8105,-3.6875,0.0,0.0,-3.685,-3.7318,-3.7935,-3.8425,-3.8819,-3.9258,-3.931,-3.9362,-3.9645,-3.8793,-3.7839,0.0,-3.6304,-3.5426,-3.5081,0.0,-3.507,-3.5044,-3.6311,-3.7182,-3.7077,-3.8354,-3.9264,-3.9292,-3.9264,-3.9264,-3.9264,-3.921,-3.921,-3.921,-3.9183,-3.9156,-3.9156,-3.8532,-3.7323,-3.548,-3.4197,0.0,0.0,0.0,0.0,0.0,0.0,0.0,0.0,0.0,0.0,0.0,0.0,0.0,0.0,0.0,0.0,0.0,0.0,0.0,0.0,0.0,0.0,0.0,0.0,0.0,0.0,0.0,0.0,-4.4225,-4.5363,0.0,-4.3804,-4.3514,-4.3885,-4.4918,-4.4872,-4.5514,-4.712,-4.7194,-4.7541,-4.8348,-4.8571,-4.8595,-4.8372,-4.8571,-4.8526,-4.8169,-4.8169,-4.7695,-4.6761,-4.6761,-4.6462,-4.5999,-4.5999,-4.612,-4.6301,-4.61,-4.5573,-4.4819,-4.4041,-4.3514,-4.3112,-4.276,-4.2593,-4.2463,-4.2289,-4.2015,-4.1791,-4.1643,-4.0807,-3.9795,-3.9599,-3.8887,-3.8199,-3.8396,-3.8347,-3.8248,-3.8445,-3.8641,-3.8841,-3.8945,-3.8998,-3.905,-3.9387,-3.8565,-3.7717,-3.7715,-3.6835,-3.5798,-3.5003,-3.5105,-3.5232,-3.4876,-3.5596,-3.627,-3.6585,-3.7093,-3.7381,-3.7381,-3.7381,-3.7381,-3.7381,-3.7381,-3.7381,-3.7381,-3.7381,-3.7381,-3.7381,-3.72,-3.6406,-3.502,-3.3885,-3.2209,0.0,0.0,0.0,0.0,0.0,0.0,0.0,0.0,0.0,0.0,0.0,0.0,0.0,0.0,0.0,0.0,0.0,0.0,0.0,0.0,0.0,0.0,0.0,0.0,0.0,-4.3841,-4.4656,-4.4459,-4.5711,-4.6104,-4.4828,-4.4451,-4.4784,-4.5803,-4.5342,-4.5467,-4.6454,-4.6502,-4.6669,-4.7027,-4.7117,-4.7316,-4.7804,-4.7804,-4.7792,-4.7813,-4.7341,-4.6651,-4.5637,-4.5178,-4.4798,-4.4583,-4.446,-4.4829,-4.5489,-4.5281,-4.5327,-4.54,-4.491,-4.4686,-4.4469,-4.3746,-4.33,-4.2996,-4.2258,-4.1972,-4.1753,-4.1411,-4.0867,-4.0379,-4.0184,-3.977,-3.9282,-3.9111,-3.8794,-3.8526,-3.8526,-3.8526,-3.8579,-3.8631,-3.8684,-3.8687,-3.8879,-3.8137,-3.7469,-3.7468,-3.6889,-3.6179,-3.5403,-3.5579,-3.5705,-3.5328,-3.5579,-3.5956,-3.6355,-3.6405,-3.6405,-3.6405,-3.6405,-3.6405,-3.6405,-3.6182,-3.6157,-3.6405,-3.6053,-3.5881,-3.6081,-3.573,-3.5102,-3.4198,-3.2893,-3.143,-2.982,0.0,0.0,0.0,0.0,0.0,0.0,0.0,0.0,0.0,0.0,0.0,0.0,0.0,0.0,0.0,0.0,0.0,0.0,0.0,0.0,0.0,0.0,0.0,-4.2234,-4.4168,-4.5,-4.4426,-4.6211,-4.6934,-4.5282,-4.4522,-4.4519,-4.5338,-4.3826,-4.3146,-4.4003,-4.4047,-4.4047,-4.4047,-4.4047,-4.4732,-4.6177,-4.6177,-4.6347,-4.6714,-4.5388,-4.4435,-4.363,-4.2264,-4.1884,-4.2138,-4.1797,-4.2454,-4.3692,-4.3294,-4.3965,-4.5159,-4.5066,-4.4784,-4.4396,-4.3256,-4.2607,-4.2113,-4.1341,-4.1057,-4.1057,-4.1057,-4.0721,-4.0194,-3.9666,-3.9139,-3.8611,-3.8059,-3.7892,-3.7868,-3.7868,-3.7868,-3.7921,-3.8185,-3.8291,-3.8198,-3.8023,-3.751,-3.6946,-3.6481,-3.6351,-3.6358,-3.6358,-3.6358,-3.6405,-3.6405,-3.6405,0.0,-3.6405,-3.6405,-3.6405,-3.6405,-3.6405,-3.6405,-3.6405,-3.5855,-3.578,-3.6355,-3.5328,-3.4931,-3.5458,-3.4455,-3.3671,-3.3119,-3.1446,-3.0393,-2.9926,0.0,0.0,0.0,0.0,0.0,0.0,0.0,0.0,0.0,0.0,0.0,0.0,0.0,0.0,0.0,0.0,0.0,0.0,0.0,0.0,0.0,-3.7824,-3.9396,-4.1298,-4.2111,-4.2745,-4.3308,-4.394,-4.4098,-4.3624,-4.3442,-4.3438,-4.364,-4.325,-4.3017,-4.3288,-4.3288,-4.3288,-4.3288,-4.3288,-4.3341,-4.3465,-4.3465,-4.3309,-4.2994,-4.2603,-4.2133,-4.1524,-4.1139,-4.1011,-4.1139,-4.1011,-4.1309,-4.1884,-4.182,-4.1843,-4.2161,-4.4376,-4.4924,-4.4301,-4.2676,-4.0844,-3.9021,-3.8551,-3.8387,-3.8387,-3.8387,-3.8297,-3.8095,-3.7623,-3.7129,-3.6634,-3.6117,-3.5713,-3.5388,-3.5388,-3.5388,-3.5388,-3.5498,-3.526,-3.5106,-3.5237,-3.523,-3.5186,-3.5244,-3.4939,-3.4896,-3.5692,-3.6003,-3.6098,-3.6098,-3.6288,0.0,-3.6405,-3.6405,-3.6405,-3.6405,-3.6405,-3.6405,-3.6405,-3.5855,-3.5558,-3.5755,-3.4944,-3.462,-3.4906,-3.4309,-3.3731,-3.3168,-3.1536,-3.0614,0.0,0.0,0.0,0.0,0.0,0.0,0.0,0.0,0.0,0.0,0.0,0.0,0.0,0.0,0.0,0.0,0.0,0.0,0.0,0.0,0.0,0.0,-3.7651,-3.8787,-3.9887,-4.1104,-4.2133,-4.2944,-4.3032,-4.3032,-4.3032,-4.2473,-4.2052,-4.2052,-4.1488,-4.1155,-4.1155,-4.1155,-4.1155,-4.1155,-4.0967,-4.1088,-4.1438,-4.1315,-4.125,-4.1287,-4.0692,-4.0168,-3.9779,-3.919,-3.8993,0.0,-3.8993,-3.9387,-4.0083,-3.9975,-4.0105,0.0,0.0,0.0,0.0,0.0,-3.91,-3.7588,-3.7369,-3.7309,-3.7309,-3.7309,-3.7178,-3.6975,-3.6516,-3.6012,-3.5474,-3.4993,-3.4666,-3.4391,-3.4391,-3.4391,-3.4391,-3.4391,-3.4076,-3.3748,-3.3712,-3.3653,-3.351,-3.3457,-3.3183,0.0,-3.3796,-3.4605,-3.5163,-3.5163,-3.5692,-3.5715,-3.48,-3.5475,-3.5883,-3.5427,-3.5787,-3.5883,-3.5427,-3.4818,0.0,0.0,0.0,-3.3047,-3.2788,-3.2897,0.0,0.0,0.0,0.0,0.0,0.0,0.0,0.0,-2.9523,-2.9356,0.0,0.0,0.0,0.0,0.0,0.0,0.0,0.0,0.0,0.0,0.0,0.0,0.0,0.0,0.0,0.0,-3.7162,-3.7656,-3.8457,-4.0468,-4.202,-4.243,-4.2473,-4.2473,-4.2473,-4.1297,-4.0514,-4.0514,-3.9353,-3.8574,-3.8574,-3.8574,0.0,0.0,0.0,-3.8493,-3.9783,-3.9371,-3.9621,-4.0428,-3.9181,-3.8502,-3.8287,-3.7038,-3.6674,-3.6944,-3.6586,-3.7173,-3.8287,-3.7975,-3.8576,-3.9606,-3.9792,-3.9572,-3.9038,-3.8146,-3.7414,-3.6885,-3.6885,0.0,0.0,-3.6885,-3.6561,-3.6167,-3.5633,-3.5157,-3.4661,-3.4129,-3.4,-3.4,-3.4,-3.4,-3.3979,-3.3935,-3.3603,-3.316,-3.2631,-3.2336,-3.1984,-3.1497,-3.141,-3.1483,-3.1586,-3.2828,-3.3796,-3.3796,-3.4605,-3.4532,-3.2532,-3.4019,-3.4848,-3.3944,0.0,0.0,-3.3895,-3.3233,-3.293,-3.2931,-3.1903,-3.0877,-2.9969,-3.0754,-3.0711,-2.9593,-2.9813,-2.9978,-3.0034,-2.9326,-2.8819,-2.8544,-2.8012,-2.7648,0.0,0.0,0.0,0.0,0.0,0.0,0.0,0.0,0.0,0.0,0.0,0.0,0.0,0.0,0.0,-3.6592,-3.7328,-3.7988,-3.8496,-3.8984,-3.9326,-3.9478,-3.9478,-3.9478,-3.9478,-3.9208,-3.8991,-3.8991,-3.8793,-3.8574,-3.8574,-3.8574,-3.8418,-3.8066,-3.7969,-3.774,-3.7401,-3.7302,-3.7162,-3.6929,0.0,0.0,-3.6471,-3.6219,-3.6152,-3.6219,-3.6152,-3.6268,-3.6471,-3.6403,-3.6189,-3.5952,-3.8145,-3.8055,-3.675,-3.6122,-3.519,-3.4153,-3.4153,-3.4153,-3.4153,-3.4153,-3.3853,-3.3495,-3.3055,-3.2615,0.0,-3.1676,-3.1556,-3.1556,-3.1556,-3.1556,-3.1456,-3.1077,-3.0714,-3.0274,-2.9833,-3.0069,-3.0329,-3.0245,-3.0224,-3.0535,-3.141,-3.2022,-3.2376,-3.2376,-3.2705,-3.2805,-3.2381,-3.2682,-3.2855,-3.2632,-3.2805,-3.2855,-3.2655,-3.2131,-3.1679,-3.1343,-3.0371,-2.9555,-2.9009,-2.9329,-2.9329,-2.8918,-2.8964,-2.9008,-2.9004,-2.8819,-2.8308,-2.751,-2.8196,-2.8449,0.0,0.0,0.0,0.0,0.0,0.0,0.0,0.0,0.0,0.0,0.0,-3.4947,-3.5054,0.0,-3.6309,-3.7168,-3.7832,-3.832,-3.8555,-3.8574,-3.8574,-3.8574,-3.8574,-3.8574,-3.8574,-3.8574,-3.8574,-3.8574,-3.8574,-3.8574,-3.8574,-3.8574,-3.8379,-3.793,-3.7715,-3.7305,-3.668,-3.6445,-3.623,-3.6016,-3.6016,-3.6016,-3.6016,-3.6016,-3.6016,-3.6016,-3.6016,-3.6016,-3.6016,-3.6016,-3.5508,-3.4818,-3.6207,-3.5927,-3.4768,-3.4483,-3.3965,-3.3418,-3.3418,-3.3418,-3.3418,-3.3418,-3.3144,-3.2715,-3.2285,-3.1855,-3.1426,-3.1016,-3.0898,-3.0898,-3.0898,-3.0723,-3.0488,-3.0254,-2.9707,-2.918,-2.8965,-2.9005,-2.9112,-2.9112,-2.9112,-2.927,-2.9828,-3.0037,-3.0349,-3.0845,-3.1295,-3.1192,-3.0125,-3.0773,-3.107,-3.0521,-3.114,-3.1394,-3.0838,-3.0306,-2.994,-2.9704,-2.9299,-2.8727,-2.7981,-2.8541,-2.8588,-2.7981,-2.7934,-2.8062,-2.8317,-2.7792,-2.7385,-2.712,-2.7611,-2.771,0.0,0.0,0.0,0.0,0.0,0.0,0.0,-3.3867,-3.4062,-3.459,-3.4961,-3.5449,-3.625,-3.668,-3.7168,-3.793,-3.834,-3.8574,-3.8574,-3.8574,-3.8574,-3.8574,-3.8574,-3.8574,-3.8574,-3.8574,-3.8574,-3.8574,-3.8574,-3.8574,-3.8574,-3.8496,-3.8242,-3.7812,-3.7402,-3.6973,-3.6543,-3.6191,-3.6016,-3.6016,-3.6016,-3.6016,-3.6016,-3.6016,-3.6016,-3.6016,-3.6016,-3.6016,-3.6016,-3.6016,-3.5547,-3.4824,-3.4726,-3.4219,-3.3535,-3.3457,-3.3418,-3.3418,-3.3418,-3.3418,-3.3418,-3.3418,-3.3144,-3.2715,-3.2285,-3.1855,-3.1426,-3.1016,-3.0898,-3.0898,-3.0898,-3.0605,-3.0293,-3.0117,-2.9551,-2.9004,-2.8828,-2.8535,-2.8301,-2.8301,-2.8301,-2.8301,-2.8301,-2.8223,-2.8483,-2.9338,-2.9938,-2.9614,-2.7799,-2.8764,-2.931,-2.8387,-2.94,-2.9762,-2.8921,-2.838,-2.8114,-2.8114,-2.8088,-2.7746,-2.6962,-2.7699,-2.7746,-2.6914,-2.6914,-2.716,-2.7582,-2.6834,-2.6602,-2.7012,-2.7012,-2.6836,-3.3184,-3.3242,-3.3535,-3.4297,-3.4238,-3.459,0.0,-3.6504,-3.5957,-3.6777,-3.6973,-3.7148,-3.7617,-3.7754,-3.7949,-3.8418,-3.8555,-3.8574,-3.8574,-3.8574,-3.8574,-3.8574,-3.8574,-3.8574,-3.8574,-3.8574,-3.8574,-3.8574,-3.8574,-3.8574,-3.8574,-3.8203,-3.7812,-3.7383,-3.6953,-3.6543,-3.6094,-3.6035,-3.6016,-3.6016,-3.6016,-3.6016,-3.6016,-3.6016,-3.6016,-3.6016,-3.6016,-3.6016,-3.6016,-3.6016,-3.5742,-3.5273,-3.4863,-3.4414,-3.3945,-3.3555,-3.3418,-3.3418,-3.3418,-3.3418,-3.3418,-3.3418,-3.3144,-3.2715,-3.2285,-3.1855,-3.1426,-3.1016,-3.0898,-3.0898,-3.0898,-3.0859,-3.0625,-2.9824,-2.957,-2.9297,-2.8535,-2.832,-2.8301,-2.8301,-2.8301,-2.8301,-2.8301,-2.7988,-2.7787,-2.7944,-2.7989,-2.7831,-2.7129,-2.7235,-2.7317,-2.7216,-2.7357,-2.7377,-2.7275,-2.6901,-2.6645,-2.6645,-2.6241,-2.5965,-2.5868,-2.5965,-2.5965,-2.5868,-2.5868,-2.6084,-2.6586,-2.6436,-2.6602,-2.7012,-2.7012,-2.6992,-3.4805,-3.4941,-3.5019,-3.5371,-3.5703,-3.6172,-3.7012,-3.6973,-3.6934,-3.7539,-3.7871,-3.8086,-3.8262,-3.8301,-3.8359,-3.8555,-3.8574,-3.8574,-3.8574,-3.8359,-3.8203,-3.8203,-3.7988,-3.8027,-3.8535,-3.8574,-3.8574,-3.8574,-3.8574,-3.8574,-3.8574,-3.8398,-3.7988,-3.7324,-3.7129,-3.6699,-3.6035,-3.6016,-3.6016,-3.6016,-3.6016,-3.6016,-3.6016,-3.6016,-3.6016,-3.6016,-3.6016,-3.6016,-3.6016,-3.6016,-3.5605,-3.4961,-3.4766,-3.4297,-3.3672,-3.3496,-3.3418,-3.3418,-3.3418,-3.3418,-3.3418,-3.3418,-3.3144,-3.2715,-3.2285,-3.1855,-3.1426,-3.1016,-3.0898,-3.0898,-3.0898,-3.0684,-3.0332,-2.9726,-2.9375,-2.9023,-2.8418,-2.8301,-2.8301,-2.8301,-2.8301,-2.8301,-2.8301,-2.7949,-2.763,-2.7324,-2.707,-2.6855,-2.668,-2.6426,-2.6367,-2.6621,-2.6641,-2.6758,-2.6992,-2.6621,-2.6387,-2.6387,-2.5977,-2.5693,-2.5693,-2.5693,-2.5693,-2.5693,-2.5693,-2.5957,-2.6387,-2.6641,-2.6973,-2.7402,-2.7637,-2.7754,-3.5371,-3.5742,-3.6055,-3.6172,-3.6836,-3.7422,-3.7246,-3.7422,-3.7734,-3.8047,-3.8359,-3.8574,-3.8574,-3.8574,-3.8574,-3.8574,-3.8574,-3.8574,-3.8574,-3.8203,-3.793,-3.793,-3.7559,-3.7539,-3.8164,-3.8223,-3.832,-3.8555,-3.8457,-3.8457,-3.8574,-3.8457,-3.8066,-3.7324,-3.7187,-3.6777,-3.6035,-3.6016,-3.6016,-3.6016,-3.6016,-3.6016,-3.6016,-3.6016,-3.6016,-3.6016,-3.6016,-3.6016,-3.6016,-3.6016,-3.5566,-3.4883,-3.4746,-3.4258,-3.3594,-3.3476,-3.3418,-3.3418,-3.3418,-3.3418,-3.3418,-3.3418,-3.3144,-3.2715,-3.2285,-3.1855,-3.1426,-3.1016,-3.0898,-3.0898,-3.0898,-3.0644,-3.0254,-2.9707,-2.9336,-2.8945,-2.8398,-2.8301,-2.8301,-2.8301,-2.8301,-2.8301,-2.8301,-2.7851,-2.7383,-2.707,-2.6562,-2.6211,-2.6211,-2.5937,-2.581,-2.6172,-2.6211,-2.6328,-2.6641,-2.6387,-2.6211,-2.6211,-2.5869,-2.5693,-2.5693,-2.5693,-2.5693,-2.5693,-2.5693,-2.6016,-2.6562,-2.6875,-2.7305,-2.7851,-2.8144,-2.8301,-3.4355,-3.5059,-3.6113,-3.6543,-3.7285,-3.8008,-3.8418,-3.8535,-3.8535,-3.8555,-3.8555,-3.8574,-3.8574,-3.8574,-3.8574,-3.8574,-3.8574,-3.8574,-3.8574,-3.8203,-3.793,-3.793,-3.7559,-3.7305,-3.7324,-3.7344,-3.7676,-3.8516,-3.8184,-3.8125,-3.8555,-3.8164,-3.7754,-3.7305,-3.6894,-3.6484,-3.6016,-3.6016,-3.6016,-3.6016,-3.6016,-3.6016,-3.6016,-3.6016,-3.6016,-3.6016,-3.6016,-3.6016,-3.6016,-3.6016,-3.5762,-3.5332,-3.4883,-3.4434,-3.4004,-3.3574,-3.3418,-3.3418,-3.3418,-3.3418,-3.3418,-3.3418,-3.3144,-3.2715,-3.2285,-3.1855,-3.1426,-3.1016,-3.0898,-3.0898,-3.0898,-3.0879,-3.0644,-2.9785,-2.9607,-2.9316,-2.8476,-2.8301,-2.8301,-2.8301,-2.8301,-2.8301,-2.8301,-2.7598,-2.7031,-2.7012,-2.6239,-2.5713,-2.5713,-2.5693,-2.5693,-2.5713,-2.5713,-2.5713,-2.5732,-2.5713,-2.5713,-2.5713,-2.5693,-2.5693,-2.5693,-2.5693,-2.5693,-2.5693,-2.5693,-2.6103,-2.6992,-2.7012,-2.7441,-2.8281,-2.8281,-2.8301,-3.5293,-3.6094,-3.6973,-3.7402,-3.793,-3.8398,-3.8535,-3.8574,-3.8496,-3.8203,-3.8144,-3.8066,-3.7773,-3.7949,-3.8144,-3.8144,-3.8379,-3.8574,-3.8574,-3.8203,-3.7812,-3.7539,-3.7148,-3.6875,-3.6875,-3.7129,-3.7539,-3.8105,-3.8008,-3.8105,-3.8555,-3.8164,-3.7734,-3.7305,-3.6894,-3.6465,-3.6016,-3.6016,-3.6016,-3.6016,-3.6016,-3.6016,-3.6016,-3.6016,-3.6016,-3.5996,-3.5723,-3.5605,-3.5586,-3.5273,-3.4902,-3.4512,-3.4336,-3.4023,-3.3633,-3.3476,-3.3418,-3.3418,-3.3418,-3.3418,-3.3418,-3.3418,-3.2949,-3.2344,-3.2207,-3.166,-3.1074,-3.0937,-3.0898,-3.0898,-3.0898,-3.0664,-3.0293,-2.9707,-2.9355,-2.8984,-2.8418,-2.8301,-2.8301,-2.8301,-2.8301,-2.8301,-2.8301,-2.7578,-2.6816,-2.62,-2.5869,-2.5693,-2.5693,-2.5693,-2.5693,-2.5693,-2.5693,-2.5693,-2.5693,-2.5693,-2.5693,-2.5693,-2.5693,-2.5693,-2.5693,-2.5693,-2.5693,-2.5693,-2.5693,-2.6016,-2.6602,-2.6875,-2.7305,-2.7943,-2.8164,-2.8301,-3.6191,-3.6875,-3.7441,-3.8008,-3.8359,-3.8535,-3.8379,-3.834,-3.8184,-3.7598,-3.748,-3.7344,-3.6914,-3.7187,-3.7519,-3.7676,-3.8066,-3.8398,-3.8555,-3.8066,-3.7598,-3.7324,-3.6934,-3.668,-3.668,-3.6914,-3.7246,-3.7676,-3.7832,-3.7988,-3.8105,-3.7988,-3.7656,-3.709,-3.6816,-3.6465,-3.6016,-3.6016,-3.6016,-3.6016,-3.6016,-3.6016,-3.6016,-3.6016,-3.6016,-3.5996,-3.5566,-3.5391,-3.5351,-3.4883,-3.4453,-3.4082,-3.4082,-3.3809,-3.3418,-3.3418,-3.3418,-3.3418,-3.3418,-3.3418,-3.3418,-3.3418,-3.2851,-3.2229,-3.2229,-3.1562,-3.0898,-3.0898,-3.0898,-3.0898,-3.0898,-3.0547,-3.0098,-2.9668,-2.9238,-2.8809,-2.8379,-2.8301,-2.8301,-2.8301,-2.8301,-2.8301,-2.8301,-2.7578,-2.6719,-2.581,-2.5693,-2.5693,-2.5693,-2.5693,-2.5693,-2.5693,-2.5693,-2.5693,-2.5693,-2.5693,-2.5693,-2.5693,-2.5693,-2.5693,-2.5693,-2.5693,-2.5693,-2.5693,-2.5693,-2.6016,-2.6602,-2.6875,-2.7324,-2.7891,-2.8164,-2.8301,-3.6973,-3.7324,-3.7559,-3.8379,-3.8555,-3.8437,-3.8027,-3.7891,-3.7617,-3.6777,-3.6601,-3.6465,-3.5976,-3.6289,-3.6758,-3.7168,-3.7617,-3.8086,-3.8516,-3.7871,-3.7363,-3.7324,-3.6973,-3.6719,-3.6699,-3.6719,-3.6875,-3.7246,-3.7637,-3.7695,-3.7324,-3.7656,-3.75,-3.6699,-3.6641,-3.6445,-3.6016,-3.6016,-3.6016,-3.6016,-3.6016,-3.6016,-3.6016,-3.6016,-3.6016,-3.5957,-3.5547,-3.5351,-3.5293,-3.4824,-3.4394,-3.4043,-3.4043,-3.3789,-3.3418,-3.3418,-3.3418,-3.3418,-3.3418,-3.3418,-3.3418,-3.3418,-3.2851,-3.2229,-3.2229,-3.1562,-3.0898,-3.0898,-3.0898,-3.0898,-3.0898,-3.0527,-3.0059,-2.9668,-2.9219,-2.8769,-2.8379,-2.8301,-2.8301,-2.8301,-2.8301,-2.8281,-2.8262,-2.7559,-2.6738,-2.5849,-2.5693,-2.5693,-2.5693,-2.5693,-2.5693,-2.5693,-2.5693,-2.5693,-2.5693,-2.5693,-2.5693,-2.5693,-2.5693,-2.5693,-2.5693,-2.5693,-2.5693,-2.5732,-2.5732,-2.6142,-2.7051,-2.7051,-2.748,-2.8301,-2.8301,-2.8301,-3.7207,-3.7754,-3.8301,-3.8516,-3.834,-3.8066,-3.7949,-3.7441,-3.6738,-3.5898,-3.5723,-3.5391,-3.4297,-3.5234,-3.6211,-3.6328,-3.7226,-3.8086,-3.8516,-3.8398,-3.8125,-3.7793,-3.7676,-3.748,-3.7168,-3.7422,-3.7383,-3.6875,-3.6934,-3.709,-3.7285,-3.7109,-3.6894,-3.668,-3.6348,-3.6133,-3.6016,-3.6016,-3.6016,-3.6016,-3.6016,-3.6016,-3.6016,-3.6016,-3.5859,-3.5527,-3.5078,-3.4687,-3.4375,-3.3926,-3.3691,-3.3594,-3.3594,-3.3516,-3.3418,-3.3418,-3.3418,-3.3418,-3.3418,-3.3418,-3.3418,-3.3418,-3.2851,-3.2229,-3.2229,-3.1562,-3.0898,-3.0898,-3.0898,-3.0898,-3.0898,-3.0312,-2.9707,-2.959,-2.9004,-2.8418,-2.832,-2.8301,-2.8301,-2.8301,-2.8301,-2.8203,-2.7871,-2.7383,-2.6836,-2.6309,-2.5937,-2.5693,-2.5693,-2.5693,-2.5693,-2.5693,-2.5693,-2.5693,-2.5693,-2.5693,-2.5693,-2.5693,-2.5693,-2.5693,-2.5693,-2.5693,-2.5849,-2.6211,-2.623,-2.6641,-2.75,-2.75,-2.7773,-2.8301,-2.8301,-2.8301,-3.7754,-3.8203,-3.8574,-3.8574,-3.8242,-3.7773,-3.7207,-3.6582,-3.5762,-3.4512,-3.4258,-3.3965,-3.3047,-3.4121,-3.5293,-3.5684,-3.6816,-3.7871,-3.8496,-3.8418,-3.8203,-3.7949,-3.793,-3.7832,-3.7598,-3.7793,-3.7656,-3.6992,-3.7109,-3.707,-3.6758,-3.6699,-3.6582,-3.6387,-3.6152,-3.6016,-3.6016,-3.6016,-3.6016,-3.6016,-3.6016,-3.6016,-3.6016,-3.582,-3.5605,-3.5351,0.0,-3.4297,-3.4043,-3.3594,-3.3418,-3.3418,-3.3418,-3.3418,-3.3418,-3.3418,-3.3418,-3.3418,-3.3418,-3.3418,-3.3418,-3.3418,-3.2851,-3.2229,-3.2229,-3.1562,-3.0898,-3.0898,-3.0898,-3.0898,-3.0898,-3.0371,-2.9805,-2.9609,-2.9062,-2.8516,-2.834,-2.8301,-2.8301,-2.8301,-2.8301,-2.8164,-2.7787,-2.7461,-2.7148,-2.6719,-2.6309,-2.6016,-2.6016,-2.581,-2.5693,-2.5693,-2.5693,-2.5693,-2.5693,-2.5693,-2.5693,-2.5693,-2.5693,-2.5693,-2.5693,-2.5918,-2.6133,-2.6387,-2.6562,-2.6992,-2.7728,-2.7728,-2.7943,-2.8301,-2.8301,-2.8301,-3.8437,-3.8613,-3.8574,-3.8574,-3.8164,-3.7461,-3.6289,-3.5566,-3.4668,-3.3047,-3.2715,-3.2559,-3.209,-3.3086,-3.4258,-3.5078,-3.6289,-3.7441,-3.8359,-3.8164,-3.7949,-3.8008,-3.8008,-3.8008,-3.8008,-3.8008,-3.7812,-3.7324,-3.7637,-3.7305,-3.6094,-3.6387,-3.6406,-3.6035,-3.6016,-3.6016,-3.6016,-3.6016,-3.6016,-3.6016,-3.6016,-3.6016,-3.5996,-3.5586,-3.5351,-3.5254,-3.4434,0.0,-3.3965,-3.3574,-3.3418,-3.3418,-3.3418,-3.3418,-3.3418,-3.3418,-3.3418,-3.3418,-3.3418,-3.3418,-3.3418,-3.3418,-3.2851,-3.2229,-3.2229,-3.1562,-3.0898,-3.0898,-3.0898,-3.0898,-3.0898,-3.0547,-3.0098,-2.9668,-2.9238,-2.8809,-2.8379,-2.8301,-2.8301,-2.8301,-2.8301,-2.8184,-2.7812,-2.7748,-2.7539,-2.7148,-2.6738,-2.6445,-2.6387,-2.6016,-2.5693,-2.5693,-2.5693,-2.5693,-2.5693,-2.5693,-2.5693,-2.5693,-2.5693,-2.5693,-2.5693,-2.6152,-2.6426,-2.6465,-2.6894,-2.7324,-2.7806,-2.7806,-2.793,-2.8301,-2.8301,-2.8301,-3.8965,-3.8828,-3.8574,-3.8574,-3.7734,-3.6738,-3.6152,-3.4844,-3.3476,-3.248,-3.2285,-3.2031,-3.125,-3.2441,-3.3711,-3.4219,-3.5391,-3.666,-3.7871,-3.7969,-3.8066,-3.8418,-3.8457,-3.8457,-3.8457,-3.8457,-3.8144,-3.7363,-3.7363,-3.6992,-3.6074,-3.6094,-3.6094,-3.6016,-3.6016,-3.6016,-3.6016,-3.6016,-3.6016,-3.6016,-3.6016,-3.6016,-3.5996,-3.5586,-3.5176,-3.4785,-3.4297,0.0,-3.3535,-3.3457,-3.3418,-3.3418,-3.3418,-3.3418,-3.3418,-3.3418,-3.3418,-3.3418,-3.3418,-3.3418,-3.3418,-3.3418,-3.2851,-3.2229,-3.2229,-3.1562,-3.0898,-3.0898,-3.0898,-3.0898,-3.0898,-3.0547,-3.0098,-2.9668,-2.9238,-2.8809,-2.8379,-2.8301,-2.8301,-2.8301,-2.8301,-2.8262,-2.8203,-2.7891,-2.7689,-2.7559,-2.7187,-2.6777,-2.6426,-2.6016,-2.5693,-2.5693,-2.5693,-2.5693,-2.5693,-2.5693,-2.5693,-2.5693,-2.5693,-2.5693,-2.5693,-2.6152,-2.6562,-2.6894,-2.7324,-2.7754,-2.8184,-2.8184,-2.8223,-2.8301,-2.8301,-2.8301,-3.9141,-3.9062,-3.8848,-3.8633,-3.7617,-3.6445,-3.5527,-3.418,-3.2793,-3.1719,-3.1504,-3.1387,-3.0976,-3.1914,-3.2988,-3.3633,-3.4629,-3.5781,-3.709,-3.7461,-3.7754,-3.8184,-3.8437,-3.8574,-3.8574,-3.8359,-3.7988,-3.7344,-3.709,-3.6699,-3.6055,-3.6016,-3.6016,-3.6016,-3.6016,-3.6016,-3.6016,-3.6016,-3.6016,-3.6016,-3.6016,-3.6016,-3.5996,-3.5586,-3.5137,-3.4668,-3.4258,0.0,-3.3418,-3.3418,-3.3418,-3.3418,-3.3418,-3.3418,-3.3418,-3.3418,-3.3418,-3.3418,-3.3418,-3.3418,-3.3418,-3.3418,-3.2851,-3.2229,-3.2229,-3.1562,-3.0898,-3.0898,-3.0898,-3.0898,-3.0898,-3.0723,-3.0391,-2.9726,-2.9062,-2.8535,-2.834,-2.8301,-2.8301,-2.8301,-2.8301,-2.8301,-2.8301,-2.8125,-2.7988,-2.7988,-2.7617,-2.7285,-2.707,-2.668,-2.6181,-2.5732,-2.5693,-2.5693,-2.5693,-2.5693,-2.5693,-2.5693,-2.5957,-2.6074,-2.6074,-2.6699,-2.7148,-2.7344,-2.7773,-2.8086,-2.8301,-2.8301,-2.8301,-2.8301,-2.8301,-2.8301,-3.9199,-3.9199,-3.9101,-3.8672,-3.7539,-3.6211,-3.498,-3.3652,-3.2324,-3.1133,-3.0898,-3.0898,-3.0898,-3.1523,-3.2305,-3.3144,-3.3926,-3.4922,-3.6328,-3.6894,-3.7344,-3.7851,-3.8301,-3.8574,-3.8574,-3.8184,-3.7754,-3.7324,-3.6816,-3.6387,-3.6035,-3.6016,-3.6016,-3.6016,-3.6016,-3.6016,-3.6016,-3.6016,-3.6016,-3.6016,-3.6016,-3.6016,-3.5996,-3.5586,-3.5195,-3.4824,-3.4297,0.0,0.0,-3.3457,-3.3418,-3.3418,-3.3418,-3.3418,-3.3418,-3.3418,-3.3418,-3.3418,-3.3418,-3.3418,-3.3418,-3.3418,-3.2851,-3.2229,-3.2229,-3.1562,-3.0898,-3.0898,-3.0898,-3.0898,-3.0898,-3.082,-3.0527,-2.9648,-2.8848,-2.8301,-2.8301,-2.8301,-2.8301,-2.8301,-2.8301,-2.8301,-2.8301,-2.8301,-2.8301,-2.8301,-2.8008,-2.7826,-2.7728,-2.7363,-2.6855,-2.6044,-2.5888,-2.5791,-2.5693,-2.5771,-2.583,-2.583,-2.6289,-2.6523,-2.6523,-2.7266,-2.7728,-2.7728,-2.8086,-2.8301,-2.8301,-2.8301,-2.8301,-2.8301,-2.8301,-2.8301,-3.9199,-3.9199,-3.9101,-3.8672,-3.7324,-3.584,-3.4902,-3.3418,-3.1973,-3.1074,-3.0898,-3.0898,-3.0898,-3.1269,-3.1855,-3.2715,-3.3242,-3.4141,-3.584,-3.6465,-3.7031,-3.7832,-3.8301,-3.8574,-3.8574,-3.8184,-3.7754,-3.7324,-3.6543,-3.6055,-3.6016,-3.6016,-3.6016,-3.6016,-3.6016,-3.6016,-3.6016,-3.6016,-3.6016,-3.6016,-3.6016,-3.6016,-3.5996,-3.5586,-3.5371,-3.5293,-3.4434,0.0,0.0,-3.3594,-3.3418,-3.3418,-3.3418,-3.3418,-3.3418,-3.3418,-3.3418,-3.3418,-3.3418,-3.3418,-3.3418,-3.3418,-3.2851,-3.2229,-3.2229,-3.1562,-3.0898,-3.0898,-3.0898,-3.0898,-3.0898,-3.0586,-3.0039,-2.918,-2.8633,-2.8301,-2.8301,-2.8301,-2.8301,-2.8301,-2.8301,-2.8301,-2.8301,-2.8301,-2.8301,-2.8301,-2.8262,-2.8105,-2.7767,-2.7689,-2.7422,-2.6953,-2.6562,-2.6172,-2.5732,-2.6094,-2.6328,-2.6328,-2.6719,-2.6953,-2.6953,-2.7422,-2.7728,-2.7728,-2.8086,-2.8301,-2.8301,-2.8301,-2.8301,-2.8301,-2.8301,-2.8301,-3.9473,-3.9609,-3.9512,-3.9062,-3.748,-3.5781,-3.4902,-3.3379,-3.1934,-3.1074,-3.0898,-3.0898,-3.0898,-3.1035,-3.1328,-3.1934,-3.2168,-3.2695,-3.3906,-3.4668,-3.5527,-3.6641,-3.7383,-3.8008,-3.8516,-3.7949,-3.7266,-3.6582,-3.6211,-3.6016,-3.6016,-3.6016,-3.6016,-3.6016,-3.6016,-3.6016,-3.6016,-3.6016,-3.6016,-3.6016,-3.6016,-3.6016,-3.6016,-3.584,-3.5488,-3.4961,-3.4609,0.0,0.0,-3.3769,-3.3652,-3.3437,-3.3711,-3.3652,-3.3418,-3.3418,-3.3418,-3.3418,-3.3418,-3.3418,-3.3379,-3.3125,-3.2656,-3.2229,-3.2229,-3.1562,-3.0898,-3.0898,-3.0898,-3.0898,-3.0898,-3.0351,-2.9668,-2.9062,-2.8594,-2.8301,-2.8301,-2.8301,-2.8301,-2.8301,-2.8301,-2.8301,-2.8301,-2.8301,-2.8301,-2.8301,-2.8301,-2.8223,-2.8066,-2.8047,-2.7871,-2.7461,-2.7031,-2.6699,-2.6523,-2.666,-2.6758,-2.6758,-2.7168,-2.7402,-2.7402,-2.7812,-2.8047,-2.8047,-2.8203,-2.8301,-2.8301,-2.8301,-2.8301,-2.8301,-2.8301,-2.8301,-3.8984,-3.9414,-3.9551,-3.8965,-3.7402,-3.5762,-3.4746,-3.3301,-3.1934,-3.1074,-3.0898,-3.0898,-3.0898,-3.0898,-3.1035,-3.1445,-3.1523,-3.1855,-3.2851,-3.3613,-3.4512,-3.5703,-3.6367,-3.707,-3.793,-3.7461,-3.6816,-3.6074,-3.6016,-3.6016,-3.6016,-3.6016,-3.6016,-3.6016,-3.6016,-3.6016,-3.6016,-3.6016,-3.6016,-3.6016,-3.6016,-3.6016,-3.6016,-3.6016,-3.5684,-3.5078,-3.4805,0.0,0.0,-3.3906,-3.3769,-3.3633,-3.3809,-3.3691,-3.3418,-3.3418,-3.3418,-3.3418,-3.3418,-3.3418,-3.3359,-3.293,-3.2519,-3.2148,-3.2012,-3.1465,-3.0898,-3.0898,-3.0898,-3.0859,-3.0723,-3.0137,-2.9453,-2.9023,-2.8594,-2.8301,-2.8301,-2.8301,-2.8301,-2.8301,-2.8301,-2.8301,-2.8301,-2.8301,-2.8301,-2.8301,-2.8301,-2.8301,-2.8301,-2.8301,-2.8184,-2.7943,-2.7578,-2.7285,-2.7031,-2.7129,-2.7207,-2.7207,-2.7617,-2.7851,-2.7851,-2.8125,-2.8301,-2.8301,-2.8301,-2.8301,-2.8301,-2.8301,-2.8301,-2.8301,-2.8301,-2.8359,-3.7441,-3.8242,-3.9004,-3.8144,-3.6973,-3.5684,-3.4375,-3.3148,-3.1934,-3.1074,-3.0898,-3.0898,-3.0898,-3.0898,-3.1035,-3.1445,-3.1523,-3.1953,-3.3242,-3.3789,-3.4394,-3.5293,-3.541,-3.5742,-3.6601,-3.668,-3.6484,-3.6055,-3.6016,-3.6016,-3.6016,-3.6016,-3.6016,-3.6016,-3.6016,-3.6016,-3.6016,-3.6016,-3.6016,-3.6016,-3.6016,-3.6016,-3.6016,-3.6016,-3.6016,-3.5957,0.0,0.0,0.0,-3.3965,-3.3691,-3.4023,-3.3594,-3.3418,-3.3418,-3.3418,-3.3418,-3.3418,-3.3418,-3.3418,-3.3359,-3.293,-3.2519,-3.209,-3.166,-3.123,-3.0898,-3.0898,-3.0898,-3.0781,-3.0332,-2.9883,-2.9453,-2.9023,-2.8594,-2.8301,-2.8301,-2.8301,-2.8301,-2.8301,-2.8301,-2.8301,-2.8301,-2.8301,-2.8301,-2.8301,-2.8301,-2.8301,-2.8301,-2.8301,-2.8301,-2.8281,-2.8281,-2.793,-2.709,-2.7422,-2.7708,-2.7708,-2.8047,-2.8281,-2.8281,-2.8301,-2.8301,-2.8301,-2.8301,-2.8301,-2.8301,-2.8301,-2.8301,-2.8301,-2.8301,-2.8516,-3.6738,-3.7168,-3.7402,-3.7129,-3.6094,-3.4863,-3.3848,-3.2871,-3.1934,-3.1074,-3.0898,-3.0898,-3.0898,-3.0898,-3.1035,-3.1445,-3.1523,-3.1758,-3.2461,-3.3184,-3.4062,-3.5254,-3.6426,-3.6992,-3.6699,-3.668,-3.6484,-3.6055,-3.6016,-3.6016,-3.6016,-3.6016,-3.6016,-3.6016,-3.6016,-3.6016,-3.6016,-3.6016,-3.6016,-3.6016,-3.6016,-3.6016,-3.6016,-3.5723,-3.5586,0.0,0.0,0.0,0.0,-3.4355,-3.4043,-3.3652,-3.3809,-3.3691,-3.3418,-3.3418,-3.3418,-3.3418,-3.3418,-3.3242,-3.293,-3.25,-3.207,-3.1641,-3.1211,-3.0996,-3.0898,-3.0898,-3.0898,-3.0781,-3.0312,-2.9883,-2.9453,-2.9023,-2.8594,-2.8301,-2.8301,-2.8301,-2.8301,-2.8301,-2.8301,-2.8301,-2.8301,-2.8301,-2.8301,-2.8301,-2.8301,-2.8301,-2.8301,-2.8301,-2.8301,-2.8301,-2.8301,-2.8184,-2.791,-2.8008,-2.8086,-2.8086,-2.8223,-2.8301,-2.8301,-2.8301,-2.8301,-2.8301,-2.8301,-2.8301,-2.8301,-2.8301,-2.8437,-2.8711,-2.8711,-2.8945,-3.5605,-3.6172,-3.6387,-3.623,-3.5312,-3.4238,-3.3379,-3.2519,-3.1738,-3.1035,-3.0898,-3.0898,-3.0898,-3.0898,-3.0976,-3.123,-3.1269,-3.1484,-3.209,-3.2754,-3.3613,-3.4766,-3.6133,-3.6699,-3.5996,-3.623,-3.6309,-3.6035,-3.6016,-3.6016,-3.6016,-3.6016,-3.6016,-3.6016,-3.6016,-3.6016,-3.6016,-3.6016,-3.6016,-3.6016,-3.5859,-3.5781,-3.5762,-3.5332,-3.5137,0.0,0.0,0.0,0.0,-3.4492,-3.4238,-3.3906,-3.3848,-3.3652,-3.3418,-3.3418,-3.3418,-3.3418,-3.3418,-3.3144,-3.2734,-3.2305,-3.1758,-3.123,-3.0976,-3.0898,-3.0898,-3.0898,-3.0898,-3.082,-3.0527,-3.0019,-2.9548,-2.9219,-2.8711,-2.8301,-2.8301,-2.8301,-2.8301,-2.8301,-2.8301,-2.8301,-2.8301,-2.8301,-2.8301,-2.8301,-2.8301,-2.8301,-2.8301,-2.8301,-2.8301,-2.8301,-2.8301,-2.8301,-2.8301,-2.8301,-2.8301,-2.8301,-2.8301,-2.8301,-2.8301,-2.8301,-2.8301,-2.8301,-2.8301,-2.8301,-2.8301,-2.8457,-2.8672,-2.8926,-2.9082,-2.9394,0.0,-3.5117,-3.5644,-3.5254,-3.4551,-3.3711,-3.2891,-3.209,0.0,-3.0976,-3.0898,-3.0898,-3.0898,-3.0898,-3.0898,-3.0937,-3.0937,-3.123,-3.209,-3.2656,-3.3281,-3.4121,-3.4961,-3.5293,-3.4844,-3.5527,-3.6016,-3.6016,-3.6016,-3.6016,-3.6016,-3.6016,-3.6016,-3.6016,-3.6016,-3.6016,-3.6016,-3.5996,-3.5996,-3.6016,-3.5586,-3.5391,-3.5371,-3.4902,-3.4707,0.0,0.0,0.0,0.0,-3.4453,-3.4316,-3.4531,-3.373,-3.3418,-3.3418,-3.3418,-3.3418,-3.3418,-3.3379,-3.3105,-3.2676,-3.2226,-3.1543,-3.0898,-3.0898,-3.0898,-3.0898,-3.0898,-3.0898,-3.0898,-3.0898,-3.0234,-2.9626,-2.9626,-2.8906,-2.8301,-2.8301,-2.8301,-2.8301,-2.8301,-2.8301,-2.8301,-2.8301,-2.8301,-2.8301,-2.8301,-2.8301,-2.8301,-2.8301,-2.8301,-2.8301,-2.8301,-2.8301,-2.8301,-2.8301,-2.8301,-2.8301,-2.8301,-2.8301,-2.8301,-2.8301,-2.8301,-2.8301,-2.8301,-2.8301,-2.8301,-2.834,-2.873,-2.8945,-2.9023,-2.9434,-2.9844,-3.2559,0.0,-3.3047,-3.2949,-3.2773,-3.248,0.0,-3.166,-3.1406,-3.0976,-3.0898,-3.0898,-3.0898,-3.0898,-3.0996,-3.1328,-3.1367,-3.168,-3.2519,-3.3887,-3.498,-3.5508,-3.6035,-3.6191,-3.5742,-3.5898,-3.6016,-3.6016,-3.6016,-3.6016,-3.6016,-3.6016,-3.6016,-3.6016,-3.6016,-3.6016,-3.6016,-3.5703,-3.5703,-3.6016,-3.5586,-3.5391,-3.5371,-3.4902,-3.4707,0.0,0.0,0.0,-3.4394,-3.4512,-3.4219,-3.3711,-3.3496,-3.3418,-3.3418,-3.3418,-3.3418,-3.3379,-3.3047,-3.2676,-3.2187,-3.1445,-3.1055,-3.0898,-3.0898,-3.0898,-3.0898,-3.0898,-3.0898,-3.0898,-3.0898,-3.0234,-2.9626,-2.9626,-2.8906,-2.8301,-2.8301,-2.8301,-2.8301,-2.8301,-2.8301,-2.8301,-2.8301,-2.8301,-2.8301,-2.8301,-2.8301,-2.8301,-2.8301,-2.8301,-2.8301,-2.8301,-2.8301,-2.8301,-2.8301,-2.8301,-2.8301,-2.8301,-2.8301,-2.8301,-2.8301,-2.8301,-2.8301,-2.8301,-2.8301,-2.8457,-2.8769,-2.8867,-2.9258,-2.9902,-3.0,-3.0293,-3.1523,-3.2148,-3.2734,-3.2734,-3.2598,-3.2402,-3.2148,-3.1641,-3.1172,-3.0937,-3.0898,-3.0898,-3.0898,-3.0898,-3.0957,-3.1191,-3.1387,-3.1953,-3.3203,-3.4355,-3.5312,-3.5937,-3.623,-3.6289,-3.6035,-3.6016,-3.6016,-3.6016,-3.6016,-3.6016,-3.6016,-3.6016,-3.6016,-3.6016,-3.6016,-3.5937,-3.5742,-3.5508,-3.541,-3.541,-3.5,-3.4785,-3.4766,-3.4316,-3.4121,0.0,0.0,0.0,-3.4101,-3.4531,-3.4316,-3.3691,-3.3496,-3.3418,-3.3418,-3.3418,-3.3418,-3.3359,-3.2949,-3.2383,-3.1758,-3.1113,-3.0898,-3.0898,-3.0898,-3.0898,-3.0898,-3.0898,-3.0898,-3.0898,-3.0898,-3.0371,-2.9805,-2.9609,-2.9062,-2.8516,-2.834,-2.8301,-2.8301,-2.8301,-2.8301,-2.8301,-2.8301,-2.8301,-2.8301,-2.8301,-2.8301,-2.8301,-2.8301,-2.8301,-2.8301,-2.8301,-2.8301,-2.8301,-2.8301,-2.8301,-2.8301,-2.8301,-2.8301,-2.8301,-2.8301,-2.8301,-2.8301,-2.8301,-2.8301,-2.8496,-2.8926,-2.9121,-2.9551,-3.0195,-3.041,-3.0644,-3.0976,-3.2187,-3.3359,-3.3105,-3.2812,-3.2578,-3.2519,-3.166,-3.0898,-3.0898,-3.0898,-3.0898,-3.0898,-3.0937,-3.0996,-3.0996,-3.1445,-3.2344,-3.3867,-3.4492,-3.5098,-3.5918,-3.6016,-3.6016,-3.6016,-3.6016,-3.6016,-3.6016,-3.6016,-3.6016,-3.6016,-3.6016,-3.6016,-3.6016,-3.6016,-3.5781,-3.5293,-3.5293,-3.5078,-3.4687,-3.4277,-3.4082,-3.4062,-3.3691,-3.3496,-3.3476,0.0,0.0,-3.4004,-3.4434,-3.4355,-3.3945,-3.3574,-3.3418,-3.3418,-3.3418,-3.3379,-3.3262,-3.2773,-3.209,-3.1367,-3.0996,-3.0898,-3.0898,-3.0898,-3.0898,-3.0898,-3.0898,-3.0898,-3.0898,-3.0898,-3.0547,-3.0098,-2.9668,-2.9238,-2.8809,-2.8379,-2.8301,-2.8301,-2.8301,-2.8301,-2.8301,-2.8301,-2.8301,-2.8301,-2.8301,-2.8301,-2.8301,-2.8301,-2.8301,-2.8301,-2.8301,-2.8301,-2.8301,-2.8301,-2.8301,-2.8301,-2.8301,-2.8301,-2.8301,-2.8301,-2.8301,-2.8301,-2.8301,-2.8359,-2.8594,-2.9023,-2.9453,-2.9883,-3.0312,-3.0703,-3.0898,-3.1328,-3.2402,-3.3086,-3.1641,-3.1504,-3.1621,-3.1269,-3.1035,-3.0898,-3.0898,-3.0898,-3.0898,-3.0898,-3.1191,-3.1426,-3.1426,-3.2383,-3.3359,-3.3984,-3.4766,-3.5469,-3.5957,-3.6016,-3.6016,-3.6016,-3.6016,-3.6016,-3.6016,-3.6016,-3.6016,-3.6016,-3.6016,-3.6016,-3.6016,-3.6016,-3.5625,-3.4824,-3.4805,-3.4766,-3.4687,-3.4277,-3.4082,-3.4082,-3.4004,-3.3769,-3.3457,0.0,-3.3926,-3.3555,-3.3984,-3.3906,-3.3516,-3.3437,-3.3418,-3.3418,-3.3418,-3.3184,-3.2773,-3.1992,-3.1387,-3.0976,-3.0918,-3.0898,-3.0898,-3.0898,-3.0898,-3.0898,-3.0898,-3.0898,-3.0898,-3.0898,-3.0547,-3.0098,-2.9668,-2.9238,-2.8809,-2.8379,-2.8301,-2.8301,-2.8301,-2.8301,-2.8301,-2.8301,-2.8301,-2.8301,-2.8301,-2.8301,-2.8301,-2.8301,-2.8301,-2.8301,-2.8301,-2.8301,-2.8301,-2.8301,-2.8301,-2.8301,-2.8301,-2.8301,-2.8301,-2.8301,-2.8301,-2.8301,-2.8301,-2.8633,-2.9043,-2.9473,-2.9902,-3.0332,-3.0781,-3.0859,-3.0898,-3.1133,-3.1777,-3.2266,-3.1719,-3.2422,-3.3125,-3.2715,-3.2246,-3.1797,-3.1328,-3.123,-3.123,-3.123,-3.1387,-3.1738,-3.2441,-3.3242,-3.4004,-3.4687,-3.5137,-3.5547,-3.5976,-3.6016,-3.6016,-3.6016,-3.6016,-3.6016,-3.6016,-3.6016,-3.6016,-3.6016,-3.6016,-3.6016,-3.6016,-3.6016,-3.5586,-3.4707,-3.4707,-3.4473,-3.4004,-3.3809,-3.373,-3.373,-3.373,-3.3613,-3.3437,0.0,-3.3828,-3.3457,-3.3887,-3.3809,-3.3418,-3.3418,-3.3418,-3.3398,-3.3164,-3.2812,-3.2363,-3.1738,-3.125,-3.0898,-3.0898,-3.0898,-3.0898,-3.0898,-3.0898,-3.0898,-3.0898,-3.0898,-3.0898,-3.0898,-3.0742,-3.0449,-3.0019,-2.959,-2.916,-2.873,-2.8457,-2.8301,-2.8301,-2.8301,-2.8301,-2.8301,-2.8301,-2.8301,-2.8301,-2.8301,-2.8301,-2.8301,-2.8301,-2.8301,-2.8301,-2.8301,-2.8301,-2.8301,-2.8301,-2.8301,-2.8301,-2.8301,-2.8301,-2.8301,-2.8516,-2.8633,-2.8633,-2.9043,-2.9473,-2.9902,-3.0098,-3.043,-3.0898,-3.0898,-3.0898,-3.1016,-3.1348,-3.1777,-3.2207,-3.3144,-3.3945,-3.3926,-3.3262,-3.25,-3.1934,-3.1816,-3.1777,-3.168,-3.1836,-3.2324,-3.3398,-3.4023,-3.4609,-3.5293,-3.5488,-3.5664,-3.5976,-3.6016,-3.6016,-3.6016,-3.6016,-3.6016,-3.6016,-3.6016,-3.6016,-3.6016,-3.6016,-3.5976,-3.5879,-3.5879,-3.5449,-3.457,-3.4551,-3.418,-3.3418,-3.3418,-3.3418,-3.3418,-3.3418,-3.3418,-3.3437,-3.3769,-3.373,-3.3437,-3.3789,-3.373,-3.3418,-3.3418,-3.3418,-3.3379,-3.2949,-3.2519,-3.2109,-3.168,-3.125,-3.0898,-3.0898,-3.0898,-3.0898,-3.0898,-3.0898,-3.0898,-3.0898,-3.0898,-3.0898,-3.0898,-3.0898,-3.0781,-3.0312,-2.9941,-2.9609,-2.916,-2.8809,-2.8555,-2.8457,-2.8437,-2.8398,-2.832,-2.8301,-2.8301,-2.8301,-2.8301,-2.8301,-2.8301,-2.8379,-2.8437,-2.8437,-2.8437,-2.8437,-2.8437,-2.8437,-2.8476,-2.8594,-2.8398,-2.834,-2.8437,-2.875,-2.8965,-2.9062,-2.9492,-2.9883,-3.0195,-3.0312,-3.0547,-3.0898,-3.0898,-3.0898,-3.1367,-3.1797,-3.2226,-3.2656,-3.2246,-3.2051,-3.3203,-3.2812,-3.2305,-3.2637,-3.2695,-3.2578,-3.2187,-3.2754,-3.3457,-3.3945,-3.4746,-3.5312,-3.5391,-3.5723,-3.5996,-3.6016,-3.6016,-3.6016,-3.6016,-3.6016,-3.6016,-3.6016,-3.6016,-3.6016,-3.6016,-3.6016,-3.584,-3.5449,-3.543,-3.5019,-3.4121,-3.4121,-3.3887,-3.3418,-3.3418,-3.3418,-3.3418,-3.3418,-3.3418,-3.3418,-3.3457,-3.3457,-3.3418,-3.3457,-3.3457,-3.3418,-3.3418,-3.3418,-3.3379,-3.2949,-3.2519,-3.2109,-3.168,-3.125,-3.0898,-3.0898,-3.0898,-3.0898,-3.0898,-3.0898,-3.0898,-3.0898,-3.0898,-3.0898,-3.0898,-3.0898,-3.0781,-3.0312,-3.0176,-3.0039,-2.9609,-2.9548,-2.9355,-2.8945,-2.8867,-2.875,-2.8359,-2.8301,-2.8301,-2.8301,-2.8301,-2.8301,-2.8301,-2.8633,-2.8867,-2.8867,-2.8867,-2.8867,-2.8867,-2.8867,-2.9043,-2.9453,-2.873,-2.8476,-2.8848,-2.8906,-2.9101,-2.9512,-2.9941,-3.0176,-3.0195,-3.0625,-3.0859,-3.0898,-3.0898,-3.0898,-3.0644,-3.1035,-3.1484,-3.1894,-3.1953,-3.2246,-3.3535,-3.3789,-3.3711,-3.3613,-3.3789,-3.3691,-3.2734,-3.3457,-3.418,-3.4082,-3.5039,-3.5781,-3.5781,-3.5918,-3.6016,-3.6016,-3.6016,-3.6016,-3.6016,-3.6016,-3.6016,-3.6016,-3.6016,-3.6016,-3.6016,-3.6016,-3.582,-3.541,-3.5391,-3.4961,-3.4082,-3.4082,-3.3848,-3.3418,-3.3418,-3.3418,-3.3418,-3.3418,-3.3418,-3.3418,-3.3418,-3.3418,-3.3418,-3.3418,-3.3418,-3.3418,-3.3418,-3.3418,-3.3379,-3.2949,-3.2519,-3.2109,-3.168,-3.125,-3.0898,-3.0898,-3.0898,-3.0898,-3.0898,-3.0898,-3.0898,-3.0898,-3.0898,-3.0898,-3.0898,-3.0898,-3.084,-3.0664,-3.041,-2.9928,-2.9012,-2.8539,-2.807,-2.7112,-2.6906,-2.687,-2.6709,-2.6691,-2.6691,-2.6691,-2.6691,-2.6691,-2.6691,-2.6816,-2.7189,-2.8015,-2.8872,-2.9316,-2.9316,-2.9316,-2.9394,-2.9607,-2.9277,-2.916,-2.9316,-2.957,-2.9785,-2.9961,-3.041,-3.0625,-3.0625,-3.0801,-3.0898,-3.0898,-3.0898,-3.0898,-3.0234,-3.0527,-3.0996,-3.1406,-3.1738,-3.2324,-3.375,-3.4394,-3.4687,-3.4687,-3.459,-3.4238,-3.3359,-3.3906,-3.4453,-3.4297,-3.5254,-3.6016,-3.6016,-3.6016,-3.6016,-3.6016,-3.6016,-3.6016,-3.6016,-3.6016,-3.6016,-3.6016,-3.6016,-3.6016,-3.6016,-3.6016,-3.5762,-3.5195,-3.5176,-3.4746,-3.3887,-3.3867,-3.3711,-3.3418,-3.3418,-3.3418,-3.3418,-3.3418,-3.3418,-3.3418,-3.3418,-3.3418,-3.3418,-3.3418,-3.3418,-3.3418,-3.3418,-3.3418,-3.3379,-3.3105,-3.2637,-3.2129,-3.1816,-3.1348,-3.0898,-3.0898,-3.0898,-3.0898,-3.0898,-3.0898,-3.0898,-3.0898,-3.0898,-3.0898,-3.0898,-3.0898,-3.0762,-3.0392,-3.0025,-2.9448,-2.8165,-2.7656,-2.7133,-2.6121,-2.5929,-2.5878,-2.57,-2.5683,-2.5683,-2.5683,-2.5683,-2.5683,-2.5683,-2.5844,-2.6278,-2.7146,-2.8369,-2.9182,-2.9182,-2.954,-2.9824,-2.998,-2.998,-2.9922,-2.9785,-3.0039,-3.0273,-3.041,-3.0723,-3.0898,-3.0898,-3.0898,-3.0898,-3.0898,-3.0898,-3.0898,-3.0312,-3.0527,-3.0976,-3.1406,-3.1523,-3.1973,-3.3691,-3.4394,-3.4961,-3.584,-3.5,-3.4082,-3.4082,-3.4082,-3.4219,-3.4629,-3.5449,-3.6016,-3.6016,-3.6016,-3.6016,-3.6016,-3.6016,-3.6016,-3.6016,-3.6016,-3.6016,-3.6016,-3.6016,-3.6016,-3.6016,-3.6016,-3.5625,-3.4726,-3.4707,-3.4297,-3.3437,-3.3418,-3.3418,-3.3418,-3.3418,-3.3418,-3.3418,-3.3418,-3.3418,-3.3418,-3.3418,-3.3418,-3.3418,-3.3418,-3.3418,-3.3418,-3.3418,-3.3418,-3.3418,-3.3418,-3.2891,-3.2229,-3.2168,-3.1601,-3.0898,-3.0898,-3.0898,-3.0898,-3.0898,-3.0898,-3.0898,-3.0898,-3.0898,-3.0898,-3.0898,-3.0898,-3.0587,-2.9235,-2.892,-2.8564,-2.7246,-2.6961,-2.6841,-2.6448,-2.638,-2.6202,-2.5768,-2.57,-2.57,-2.57,-2.57,-2.57,-2.57,-2.6082,-2.638,-2.638,-2.7557,-2.8333,-2.8333,-2.9508,-3.041,-3.0859,-3.0898,-3.0684,-3.0215,-3.0195,-3.043,-3.0879,-3.0898,-3.0898,-3.0898,-3.0898,-3.0898,-3.0898,-3.0898,-3.0898,-2.9414,-2.9844,-3.043,-3.0566,-3.1738,-3.3066,-3.3887,-3.4394,-3.5039,-3.623,-3.5684,-3.4902,-3.457,-3.4785,-3.4941,-3.4726,-3.5449,-3.6016,-3.6016,-3.6016,-3.6016,-3.6016,-3.6016,-3.6016,-3.6016,-3.6016,-3.6016,-3.6016,-3.6016,-3.6016,-3.6016,-3.6016,-3.5762,-3.5195,-3.4863,-3.4434,-3.3887,-3.3574,-3.3418,-3.3418,-3.3418,-3.3418,-3.3418,-3.3418,-3.3418,-3.3418,-3.3418,-3.3418,-3.3418,-3.3418,-3.3418,-3.3418,-3.3418,-3.3418,-3.3418,-3.3418,-3.2891,-3.2046,-3.1134,-3.0844,-3.0762,-2.9785,-3.0157,-3.0898,-3.0898,-3.0898,-3.0898,-3.0898,-3.0898,-3.0898,-3.0898,-3.0898,-3.0587,-2.9235,-2.892,-2.8325,-2.6095,-2.5684,-2.5346,-2.4316,-2.4055,-2.4024,-2.3917,-2.3841,-2.3841,-2.3841,-2.3841,-2.3841,-2.3841,-2.4833,-2.5808,-2.673,-2.7967,-2.9108,-3.0025,-3.0509,-3.0742,-3.0879,-3.0898,-3.082,-3.0684,-3.0684,-3.0762,-3.0898,-3.0898,-3.0898,-3.0898,-3.0898,-3.0898,-3.0898,-3.0898,-3.0898,-2.9492,-3.0059,-3.0801,-3.1152,-3.2344,-3.3633,-3.4414,-3.5059,-3.5703,-3.6504,-3.5996,-3.5312,-3.5019,-3.5059,-3.5078,-3.498,-3.5566,-3.6016,-3.6016,-3.6016,-3.6016,-3.6016,-3.6016,-3.6016,-3.6016,-3.6016,-3.6016,-3.6016,-3.6016,-3.6016,-3.6016,-3.5859,-3.5566,-3.5137,-3.4687,-3.4238,-3.3828,-3.3555,-3.3418,-3.3418,-3.3418,-3.3418,-3.3418,-3.3418,-3.3418,-3.3418,-3.3418,-3.3418,-3.3418,-3.3418,-3.3418,-3.3398,-3.3242,-3.3164,-3.3144,-3.2988,-3.2173,-3.1028,-3.0259,-2.9651,-2.9313,-2.8979,-2.9471,-3.0216,-3.0762,-3.0898,-3.0898,-3.0898,-3.0898,-3.0898,-3.0898,-3.0528,-2.9785,-2.8444,-2.8146,-2.7426,-2.4887,-2.4332,-2.41,-2.323,-2.3106,-2.3106,-2.3106,-2.3106,-2.3106,-2.3106,-2.3106,-2.3106,-2.3106,-2.379,-2.4579,-2.5362,-2.6641,-2.7727,-2.8522,-2.9076,-2.9372,-2.9372,-2.9844,-3.0098,-3.0098,-3.0645,-3.0898,-3.0898,-3.0898,-3.0898,-3.0898,-3.0898,-3.0898,-3.0898,-3.0898,-3.0898,-3.0137,-3.0781,-3.168,-3.2578,-3.3203,-3.3862,-3.5023,-3.585,-3.6463,-3.6601,-3.5996,-3.5449,-3.5449,-3.5098,-3.4961,-3.5391,-3.5762,-3.6016,-3.6016,-3.6016,-3.6016,-3.6016,-3.6016,-3.6016,-3.6016,-3.6016,-3.6016,-3.6016,-3.6016,-3.5996,-3.5957,-3.5605,-3.5176,-3.4707,-3.4297,-3.3887,-3.3496,-3.3437,-3.3418,-3.3418,-3.3418,-3.3418,-3.3418,-3.3418,-3.3418,-3.3418,-3.3418,-3.3418,-3.3418,-3.3418,-3.3398,-3.332,-3.2949,-3.2773,-3.2695,-3.2305,-3.107,-2.9586,-2.9465,-2.8364,-2.7203,-2.8206,-2.8742,-2.9098,-3.0333,-3.082,-3.0898,-3.0898,-3.082,-3.0704,-3.0704,-2.9726,-2.8385,-2.7125,-2.684,-2.6156,-2.3666,-2.3106,-2.3106,-2.3106,-2.3106,-2.3106,-2.3106,-2.3106,-2.3106,-2.3106,-2.3106,-2.3106,-2.3106,-2.3106,-2.3168,-2.3293,-2.4394,-2.5133,-2.5256,-2.6355,-2.7021,-2.7021,-2.8206,-2.892,-2.892,-3.0216,-3.0898,-3.0898,-3.0898,-3.0898,-3.0898,-3.0898,-3.0898,-3.0898,-3.0898,-3.0898,-2.9707,-3.0351,-3.1309,-3.25,-3.3887,-3.4785,-3.4277,-3.4264,-3.4759,-3.5879,-3.6016,-3.5879,-3.5879,-3.5801,-3.5762,-3.5879,-3.5957,-3.6016,-3.6016,-3.6016,-3.6016,-3.6016,-3.6016,-3.6016,-3.6016,-3.6016,-3.6016,-3.6016,-3.6016,-3.5879,-3.5547,-3.5449,-3.5176,-3.4707,-3.4297,-3.4023,-3.3926,-3.3594,-3.3418,0.0,-3.3418,-3.3418,-3.3418,-3.3418,-3.3418,-3.3418,-3.3418,-3.3418,-3.3418,-3.3418,-3.3223,-3.293,-3.2832,-3.2598,-3.2285,-3.2207,-3.107,-2.9465,-2.8429,-2.7574,-2.69,-2.6156,-2.7289,-2.892,-2.9235,-3.0098,-3.0898,-3.0898,-3.0157,-2.9353,-2.9353,-2.8385,-2.7065,-2.5806,-2.5501,-2.5071,-2.3479,-2.3106,-2.3106,-2.3106,-2.3106,-2.3106,-2.3106,-2.3106,-2.3106,-2.3106,-2.3106,-2.3106,-2.3106,-2.3106,-2.3479,-2.4579,-2.4949,-2.5501,-2.6537,-2.684,-2.7021,-2.7021,-2.8206,-2.892,-2.892,-3.0216,-3.0898,-3.0898,-3.0898,-3.0898,-3.0898,-3.0898,-3.0898,-3.0898,-3.0898,-3.0898,-2.9567,-3.0371,-3.1601,-3.3281,-3.4707,-3.5539,-3.4983,-3.4815,-3.4883,-3.4971,-3.4333,-3.4264,-3.5743,-3.4815,-3.4333,-3.5743,-3.5382,-3.5177,-3.5879,-3.584,-3.5801,-3.5996,-3.584,-3.5801,-3.5996,-3.6016,-3.6016,-3.6016,-3.6016,-3.584,-3.541,-3.5176,-3.4863,-3.4414,-3.3984,-3.375,-3.375,-3.3535,-3.3418,-3.3418,-3.3418,-3.3418,-3.3418,-3.3418,-3.3418,-3.3418,-3.3418,-3.3418,-3.3398,-3.3203,-3.2988,-3.2754,-3.2344,-3.2051,-3.1836,-3.1641,-3.0234,-2.8268,-2.7539,-2.6366,-2.5133,-2.5133,-2.5973,-2.7306,-2.8564,-2.9412,-3.0079,-3.0704,-3.0392,-2.9726,-2.9039,-2.7966,-2.6658,-2.5378,-2.5071,-2.4702,-2.3417,-2.3106,-2.3106,-2.3106,-2.3106,-2.3106,-2.3106,-2.3106,-2.3106,-2.3106,-2.3106,-2.3106,-2.3106,-2.3106,-2.3355,-2.4085,-2.4147,-2.4394,-2.5071,-2.5117,-2.5117,-2.5117,-2.6944,-2.7966,-2.7966,-2.9844,-3.0898,-3.0898,-3.0898,-3.0898,-3.0898,-3.0898,-3.0898,-3.0898,-3.0898,-3.0996,-2.9277,-3.0469,-3.2109,-3.4101,-3.5254,-3.585,-3.5559,-3.5549,-3.5245,-3.4057,-3.2997,-3.284,-3.4883,-3.3415,-3.27,-3.5245,-3.4609,-3.4333,-3.5811,-3.5723,-3.5625,-3.5976,-3.5723,-3.5644,-3.5996,-3.6016,-3.6016,-3.6016,-3.6016,-3.5801,-3.5293,-3.4902,-3.4473,-3.3984,-3.3613,-3.3418,-3.3418,-3.3418,-3.3418,-3.3418,-3.3418,-3.3418,-3.3418,-3.3418,-3.3418,-3.3418,-3.3418,-3.3418,-3.3379,-3.2969,-3.2754,-3.2617,-3.1816,-3.1465,-3.1367,-3.1016,-2.9372,-2.7306,-2.7048,-2.5407,-2.3604,-2.4456,-2.4887,-2.5485,-2.7589,-2.8564,-2.9098,-3.0216,-3.0411,-2.9981,-2.8861,-2.7486,-2.605,-2.501,-2.4764,-2.4456,-2.3355,-2.3106,-2.3106,-2.3106,-2.3106,-2.3106,-2.3106,-2.3106,-2.3106,-2.3106,-2.3106,-2.3106,-2.3106,-2.3106,-2.3106,-2.3106,-2.3106,-2.3106,-2.3106,-2.3106,-2.3168,-2.3417,-2.5668,-2.7065,-2.7306,-2.9627,-3.0898,-3.0898,-3.0898,-3.0898,-3.0898,-3.0898,-3.0898,-3.0898,-3.0898,-3.1113,-2.8555,-3.0234,-3.2422,-3.3809,-3.4824,-3.5133,-3.3792,-3.3798,-3.4057,-3.3849,-3.4677,-3.4746,-3.2491,-3.284,-3.3623,-3.4057,-3.3918,-3.4333,-3.5811,-3.5976,-3.5957,-3.6016,-3.5976,-3.5957,-3.6016,-3.6016,-3.6016,-3.6016,-3.6016,-3.5664,-3.4844,-3.4726,-3.4336,-3.3535,-3.3457,-3.3418,-3.3418,-3.3418,-3.3418,-3.3418,-3.3418,-3.3418,-3.3418,-3.3418,-3.3418,-3.3418,-3.3418,-3.3418,-3.3379,-3.2969,-3.2578,-3.2207,-3.1719,-3.1289,-3.0957,-3.0918,-2.9962,-2.8504,-2.7366,-2.6034,-2.4641,-2.3666,-2.4147,-2.5133,-2.5501,-2.7185,-2.892,-2.9098,-2.8385,-2.7504,-2.7323,-2.5423,-2.3604,-2.3417,-2.3355,-2.3293,-2.3168,-2.3106,-2.3106,-2.3106,-2.3106,-2.3106,-2.3106,-2.3106,-2.3106,-2.3106,-2.3106,-2.3106,-2.3106,-2.3106,-2.3106,-2.3106,-2.3106,-2.3106,-2.3106,-2.3106,-2.3604,-2.4764,-2.62,-2.7529,-2.8623,-3.0098,-3.0898,-3.0898,-3.0898,-3.0898,-3.0898,-3.0898,-3.0898,-3.0898,-3.0898,-3.1113,-2.9082,-3.0742,-3.2542,-3.375,-3.4551,-3.4926,-3.449,-3.4564,-3.455,-3.3932,-3.4971,-3.5314,-3.3206,-3.193,-3.1508,-3.2351,-3.1789,-3.207,-3.4402,-3.4557,-3.4774,-3.586,-3.582,-3.5664,-3.5664,-3.5879,-3.5918,-3.5684,-3.5879,-3.5742,-3.5117,-3.4844,-3.4414,-3.3809,-3.3555,-3.3418,-3.3418,-3.3418,-3.3418,-3.3418,-3.3418,-3.3418,-3.3418,-3.3418,-3.3418,-3.3418,-3.3164,-3.3066,-3.3008,-3.2363,-3.1973,-3.1758,-3.1328,-3.1055,-3.0898,-3.0898,-2.9608,-2.7787,-2.7203,-2.5684,-2.3914,-2.3293,-2.3479,-2.4085,-2.4887,-2.6399,-2.7847,-2.7847,-2.7966,-2.7727,-2.6277,-2.5071,-2.4023,-2.3293,-2.3106,-2.3106,-2.3106,-2.3106,-2.3106,-2.3106,-2.3106,-2.3106,-2.3106,-2.3106,-2.3106,-2.3106,-2.3106,-2.3106,-2.3106,-2.3106,-2.3417,-2.4147,-2.3542,-2.3417,-2.4147,-2.3542,-2.3666,-2.501,-2.6277,-2.7607,-2.8861,-3.0216,-3.0898,-3.0898,-3.0898,-3.0898,-3.0898,-3.0898,-3.0898,-3.0898,-3.0898,-3.125,-2.9297,-3.0508,-3.1582,-3.3184,-3.3906,-3.4375,-3.4922,-3.5234,-3.52,-3.4402,-3.5169,-3.5538,-3.4057,-3.193,-3.073,-3.193,-3.1155,-3.1296,-3.3969,-3.4072,-3.4407,-3.584,-3.5742,-3.5547,-3.5547,-3.584,-3.5898,-3.5586,-3.584,-3.5781,-3.5254,-3.4883,-3.4453,-3.3926,-3.3594,-3.3418,-3.3418,-3.3418,-3.3418,-3.3418,-3.3418,-3.3418,-3.3418,-3.3418,-3.3359,-3.3242,-3.293,-3.2734,-3.2578,-3.1836,-3.1523,-3.1484,-3.1055,-3.0898,-3.084,-3.0528,-2.9194,-2.7366,-2.6719,-2.5256,-2.3542,-2.323,-2.3106,-2.3355,-2.4702,-2.5989,-2.7082,-2.7366,-2.7907,-2.7949,-2.6095,-2.5071,-2.4332,-2.3355,-2.3106,-2.3106,-2.3106,-2.3106,-2.3106,-2.3106,-2.3106,-2.3106,-2.3106,-2.3106,-2.3106,-2.3106,-2.3106,-2.3106,-2.3106,-2.3106,-2.3479,-2.4456,-2.3728,-2.3479,-2.4517,-2.3666,-2.3666,-2.501,-2.5989,-2.7246,-2.8861,-2.9844,-3.0528,-3.0898,-3.0898,-3.0898,-3.0898,-3.0898,-3.0898,-3.0898,-3.0898,-3.1348,-2.8398,-2.875,-2.9101,-3.1641,-3.2578,-3.3105,-3.3945,-3.4785,-3.5391,-3.5343,-3.5675,-3.5538,-3.4057,-3.3692,-3.3554,-3.3692,-3.3623,-3.4126,-3.5675,-3.586,-3.586,-3.6016,-3.5996,-3.5996,-3.5996,-3.6016,-3.6016,-3.5996,-3.6016,-3.5644,-3.4785,-3.4707,-3.4316,-3.3476,-3.3437,-3.3418,-3.3418,-3.3418,-3.3418,-3.3418,-3.3418,-3.3418,-3.3418,-3.3418,-3.3203,-3.2832,-3.2812,-3.2559,-3.2168,-3.1699,-3.1523,-3.1484,-3.1055,-3.0898,-3.0762,-2.9471,-2.892,-2.8444,-2.6034,-2.5133,-2.4764,-2.3542,-2.3106,-2.3355,-2.4702,-2.5989,-2.7263,-2.8444,-2.7949,-2.7048,-2.6944,-2.5071,-2.3168,-2.3106,-2.3106,-2.3106,-2.3106,-2.3106,-2.3106,-2.3106,-2.3106,-2.3106,-2.3106,-2.3106,-2.3106,-2.3106,-2.3106,-2.3106,-2.3106,-2.3106,-2.3106,-2.3168,-2.3168,-2.3106,-2.3168,-2.3168,-2.3666,-2.501,-2.5133,-2.6338,-2.8801,-2.8979,-2.9589,-3.0898,-3.0898,-3.0898,-3.0898,-3.0898,-3.0898,-3.0898,-3.0898,-3.1348,-2.7963,-2.8398,-2.9043,-3.0527,-3.166,-3.2539,-3.3125,-3.3926,-3.4707,-3.5273,-3.5508,-3.5568,-3.5275,-3.4471,-3.3484,-3.2491,-3.2281,-3.284,-3.4402,-3.4609,-3.4971,-3.5879,-3.6016,-3.5918,-3.5644,-3.5605,-3.5488,-3.5195,-3.5176,-3.5039,-3.4726,-3.4453,-3.416,-3.3848,-3.3574,-3.3418,-3.3418,-3.3418,-3.3418,-3.3418,-3.3418,-3.3418,-3.3418,-3.3418,-3.3047,-3.2383,-3.2383,-3.2148,-3.1719,-3.1289,-3.1113,-3.1094,-3.0957,-3.0898,-3.0762,-2.9412,-2.8385,-2.7426,-2.5684,-2.4517,-2.3728,-2.323,-2.3106,-2.3168,-2.3666,-2.5301,-2.6927,-2.6581,-2.7289,-2.7829,-2.6216,-2.5071,-2.4147,-2.3293,-2.3106,-2.3355,-2.4209,-2.3728,-2.3106,-2.3106,-2.3106,-2.3106,-2.3106,-2.3106,-2.3106,-2.3106,-2.3106,-2.3106,-2.3106,-2.3106,-2.3417,-2.427,-2.3604,-2.3479,-2.4332,-2.3604,-2.3666,-2.501,-2.5071,-2.6216,-2.8801,-2.892,-2.953,-3.0879,-3.0898,-3.0898,-3.0898,-3.0898,-3.0898,-3.0898,-3.0898,-3.1348,-2.7723,-2.7897,-2.8379,-2.9668,-3.0527,-3.1387,-3.2539,-3.3242,-3.3887,-3.4766,-3.5195,-3.5488,-3.5762,-3.5081,-3.4139,-3.3026,-3.28,-3.3146,-3.4196,-3.4465,-3.4902,-3.5879,-3.6016,-3.5859,-3.543,-3.5391,-3.5195,-3.4726,-3.4707,0.0,-3.4492,-3.4219,-3.4004,-3.3867,-3.3574,-3.3418,-3.3418,-3.3418,-3.3418,-3.3418,-3.3418,-3.3418,-3.3418,-3.3281,-3.2832,-3.2168,-3.2012,-3.1699,-3.1289,-3.0996,-3.0898,-3.0898,-3.0898,-3.0898,-3.0704,-2.8938,-2.7727,-2.6779,-2.501,-2.3837,-2.3106,-2.3106,-2.3106,-2.3168,-2.3604,-2.5285,-2.6927,-2.6503,-2.7589,-2.8385,-2.6277,-2.5071,-2.4332,-2.3914,-2.379,-2.4038,-2.4887,-2.4023,-2.323,-2.3666,-2.3417,-2.3106,-2.3106,-2.3106,-2.3106,-2.3106,-2.3106,-2.3106,-2.3106,-2.3106,-2.3417,-2.4332,-2.3604,-2.3479,-2.4332,-2.3604,-2.3479,-2.4394,-2.4456,-2.5607,-2.8146,-2.8265,-2.9116,-3.0898,-3.0898,-3.0898,-3.0898,-3.0898,-3.0898,-3.0898,-3.1035,-3.1562,0.0,0.0,0.0,-2.9019,-2.918,-2.957,-3.2109,-3.2695,-3.2969,-3.3848,-3.4726,-3.5332,-3.5371,-3.5703,-3.584,-3.543,-3.5391,-3.541,-3.541,-3.5762,-3.6016,-3.6016,-3.6016,-3.5859,-3.543,-3.5391,-3.5176,-3.4726,-3.4668,-3.4473,-3.4082,-3.4062,-3.3867,-3.3437,-3.3418,-3.3418,-3.3418,-3.3418,-3.3418,-3.3418,-3.3418,-3.3418,-3.3398,-3.2988,-3.2559,-3.2148,-3.1699,-3.1269,-3.0898,-3.0898,-3.0898,-3.0898,-3.0898,-3.0898,-3.0587,-2.7984,-2.7021,-2.6658,-2.4023,-2.3106,-2.3106,-2.3106,-2.3106,-2.3355,-2.4702,-2.5973,-2.7289,-2.8564,-2.892,-2.8623,-2.7246,-2.5071,-2.3479,-2.4764,-2.5071,-2.5133,-2.5133,-2.4147,-2.3604,-2.4826,-2.4038,-2.3168,-2.3106,-2.3106,-2.3106,-2.3106,-2.3106,-2.3106,-2.3106,-2.3106,-2.3106,-2.3106,-2.3106,-2.3106,-2.3106,-2.3106,-2.3106,-2.3106,-2.3106,-2.427,-2.684,-2.6961,-2.8224,-3.0762,-3.0898,-3.0898,-3.0898,-3.0898,-3.0898,-3.0898,-3.1328,-3.1992,-2.7535,0.0,0.0,0.0,0.0,0.0,-2.9766,-3.0469,-3.1348,-3.2832,-3.334,-3.3789,-3.4726,-3.4746,-3.457,-3.4453,-3.5234,-3.584,-3.584,-3.5937,-3.6016,-3.6016,-3.6016,-3.5859,-3.543,-3.5078,-3.4707,0.0,-3.3945,-3.373,-3.3613,-3.3594,-3.3535,-3.3418,-3.3418,-3.3418,-3.3418,-3.3418,-3.3418,-3.3418,-3.3418,-3.3418,-3.3398,-3.2988,-3.2559,-3.2148,-3.1699,-3.1269,-3.0898,-3.0898,-3.0898,-3.0898,-3.0898,-3.0898,-3.0704,-2.8998,-2.7787,-2.6779,-2.5133,-2.3899,-2.3106,-2.3106,-2.3106,-2.3355,-2.4702,-2.5973,-2.7246,-2.8564,-2.892,-2.8385,-2.6216,-2.5071,-2.4394,-2.379,-2.5133,-2.6476,-2.6476,-2.6156,-2.5485,-2.3961,-2.4147,-2.4209,-2.3293,-2.3106,-2.3106,-2.3106,-2.3106,-2.3106,-2.3106,-2.3106,-2.3106,-2.3106,-2.3106,-2.3106,-2.3106,-2.3106,-2.3106,-2.3106,-2.3106,-2.3837,-2.5562,-2.6537,-2.7804,-2.9412,-3.0392,-3.0898,-3.0898,-3.0898,-3.0898,-3.0918,-3.1641,-3.2285,-2.8164,-2.7311,-2.6714,-2.6663,0.0,0.0,-2.916,-2.9707,-3.043,-3.2168,-3.2676,-3.3086,-3.4004,-3.4121,-3.4121,-3.4297,-3.4961,-3.5469,-3.5469,-3.5644,-3.582,-3.5996,-3.6016,-3.5859,-3.543,-3.498,-3.4531,-3.4101,-3.3672,-3.3418,-3.3418,-3.3418,-3.3418,-3.3418,-3.3418,-3.3418,-3.3418,-3.3418,-3.3418,-3.3418,-3.3418,-3.332,-3.3144,-3.2734,-3.2305,-3.1875,-3.1445,-3.1113,-3.0898,-3.0898,-3.0898,-3.0898,-3.0898,-3.0898,-3.0645,-2.882,-2.7667,-2.6719,-2.4887,-2.3728,-2.3106,-2.3106,-2.3106,-2.3355,-2.4702,-2.5973,-2.7306,-2.8564,-2.892,-2.8325,-2.5729,-2.5071,-2.501,-2.4764,-2.5912,-2.7142,-2.7667,-2.7787,-2.7185,-2.5117,-2.4949,-2.4826,-2.4085,-2.3899,-2.4085,-2.4641,-2.427,-2.3899,-2.3899,-2.3479,-2.3106,-2.3106,-2.3106,-2.3106,-2.3106,-2.3106,-2.3106,-2.3106,-2.3106,-2.3728,-2.5071,-2.5806,-2.6823,-2.8086,-2.9431,-3.0098,-3.0098,-3.0098,-2.9974,-2.9772,-3.0402,-3.1233,-2.9453,-2.8224,-2.7338,-2.7141,-2.6839,0.0,-2.9277,-2.959,-2.9939,-3.1484,-3.2148,-3.2578,-3.3047,-3.3457,-3.3848,-3.4219,-3.4355,-3.4492,-3.4668,-3.5098,-3.5527,-3.5898,-3.5996,-3.5859,-3.543,-3.5019,-3.459,-3.4101,-3.3672,-3.3418,-3.3418,-3.3418,-3.3418,-3.3418,-3.3418,-3.3418,-3.3418,-3.3418,-3.3418,-3.3418,-3.3379,-3.3164,-3.2773,-3.2305,-3.1875,-3.1504,-3.1074,-3.0898,-3.0898,-3.0898,-3.0898,-3.0898,-3.0898,-3.0898,-3.0587,-2.8104,-2.7142,-2.6641,-2.4209,-2.323,-2.3106,-2.3106,-2.3106,-2.3355,-2.4702,-2.5912,-2.7048,-2.8325,-2.8683,-2.8128,-2.5729,-2.5194,-2.5562,-2.6537,-2.7021,-2.7486,-2.8683,-2.892,-2.8564,-2.7426,-2.6156,-2.5256,-2.5133,-2.5071,-2.5439,-2.6415,-2.5623,-2.4887,-2.4887,-2.3852,-2.3106,-2.3106,-2.3106,-2.3106,-2.3106,-2.3106,-2.3106,-2.3106,-2.3106,-2.3604,-2.4826,-2.501,-2.5623,-2.6779,-2.8241,-2.8778,-2.8504,-2.8778,-2.8653,-2.8089,-2.843,-2.9515,-3.1405,-2.9812,-2.8255,-2.7893,-2.7592,0.0,-2.7168,-2.7851,-2.873,-2.9414,-2.9902,-3.0449,-3.123,-3.1465,-3.1543,-3.1621,-3.2207,-3.3144,-3.4512,-3.5098,-3.543,-3.5508,-3.582,-3.5859,-3.543,-3.5312,-3.4922,-3.4141,-3.3672,-3.3418,-3.3418,-3.3418,-3.3418,-3.3418,-3.3418,-3.3418,-3.3418,-3.3418,-3.3418,-3.3418,-3.3086,-3.2871,-3.2773,-3.1992,-3.1601,-3.1504,-3.1074,-3.0898,-3.0898,-3.0898,-3.0898,-3.0898,-3.0898,-3.0898,-3.0704,-2.9116,-2.7847,-2.6779,-2.5256,-2.4023,-2.3106,-2.3106,-2.3106,-2.3355,-2.4702,-2.5256,-2.5729,-2.7004,-2.7366,-2.7048,-2.5501,-2.5867,-2.6415,-2.5684,-2.7065,-2.8623,-2.8861,-2.892,-2.8801,-2.8564,-2.7486,-2.6294,-2.5256,-2.5071,-2.4826,-2.3961,-2.3666,-2.3479,-2.3479,-2.323,-2.3106,-2.3106,-2.3106,-2.3106,-2.3106,-2.3106,-2.3106,-2.3106,-2.3106,-2.323,-2.3479,-2.4517,-2.5194,-2.5501,-2.8086,-2.8286,-2.5851,-2.8147,-2.886,-2.8089,-2.843,-2.8935,-3.2177,-3.1038,-2.9949,-2.8914,-2.8257,0.0,0.0,-2.75,-2.7891,-2.875,-2.8926,-2.9258,-3.0351,-3.0371,-3.0449,-3.1094,-3.1738,-3.2383,-3.3027,-3.4043,-3.4902,-3.5351,-3.5586,-3.5703,-3.5703,-3.5527,-3.5019,-3.4141,-3.3672,-3.3418,-3.3418,-3.3418,-3.3418,-3.3418,-3.3418,-3.3418,-3.3418,-3.3418,-3.3418,-3.3418,-3.2988,-3.2676,-3.2461,-3.1816,-3.1406,-3.1191,-3.0976,-3.0898,-3.0898,-3.0898,-3.0898,-3.0898,-3.0898,-3.0509,-2.9726,-2.8444,-2.7168,-2.5867,-2.4579,-2.3666,-2.3106,-2.3106,-2.3106,-2.3355,-2.4702,-2.5562,-2.605,-2.605,-2.7004,-2.7529,-2.5607,-2.652,-2.7787,-2.7185,-2.7949,-2.9098,-2.9726,-2.958,-2.9471,-3.0087,-2.9172,-2.7834,-2.6311,-2.6581,-2.6762,-2.6078,-2.6017,-2.5774,-2.5117,-2.4517,-2.3852,-2.3168,-2.3728,-2.4085,-2.4085,-2.4702,-2.5071,-2.5071,-2.5071,-2.5071,-2.5071,-2.5668,-2.6116,-2.6298,-2.7773,-2.7552,-2.5533,-2.7194,-2.7314,-2.612,-2.6644,-2.7308,-3.3165,-3.2547,-3.1916,-3.0091,-2.9086,-2.8407,0.0,0.0,0.0,-2.8242,-2.8223,-2.8359,-2.9394,-2.9375,-2.9551,-3.0605,-3.1269,-3.1543,-3.1191,-3.248,-3.3789,-3.4668,-3.5059,-3.5391,-3.5742,-3.5312,-3.4785,-3.4238,-3.3555,-3.3242,-3.3418,-3.3418,-3.3418,-3.3418,-3.3418,-3.3418,-3.3418,-3.3418,-3.3379,-3.3301,-3.2871,-3.2461,-3.2031,-3.1601,-3.1211,-3.0898,-3.082,-3.082,-3.0898,-3.082,-3.082,-3.0879,-3.0645,-2.9844,-2.8742,-2.7168,-2.5973,-2.4887,-2.3604,-2.3106,-2.3106,-2.3106,-2.3106,-2.3293,-2.4394,-2.5623,-2.6476,-2.5668,-2.6944,-2.8146,-2.6277,-2.7349,-2.892,-2.892,-2.892,-2.9313,-3.0683,-3.0282,-2.9986,-3.1382,-3.0762,-2.9525,-2.7782,-2.8259,-2.8801,-2.8564,-2.8504,-2.8146,-2.7142,-2.6111,-2.5071,-2.3961,-2.4826,-2.5501,-2.5501,-2.6415,-2.7021,-2.7021,-2.7021,-2.69,-2.6658,-2.6482,-2.6499,-2.6848,-2.7164,-2.6766,-2.5671,-2.6273,-2.5782,-2.4188,-2.4855,-2.5712,-3.6186,-3.5165,-3.3897,-3.1472,-3.0645,-2.9599,-2.6675,0.0,-2.7422,-2.6797,0.0,-2.7207,-2.7344,0.0,0.0,-2.8139,-2.9101,-2.99,-2.9805,-3.0625,-3.1562,-3.2441,-3.3867,-3.4805,-3.4844,-3.4121,-3.3926,-3.457,-3.3184,-3.2637,-3.3379,-3.3418,-3.3418,-3.3418,-3.3418,-3.3418,-3.3418,-3.3418,-3.3242,-3.2871,-3.2441,-3.2012,-3.1582,-3.1152,-3.0937,-3.0898,-3.0587,-3.0645,-3.0898,-3.0567,-3.0645,-3.0762,-2.9589,-2.9039,-2.8623,-2.6216,-2.5256,-2.4887,-2.3604,-2.3106,-2.3106,-2.3106,-2.3106,-2.3106,-2.3293,-2.427,-2.5501,-2.6503,-2.6987,-2.7426,-2.8265,-2.8683,-2.892,-2.892,-2.892,-2.9387,-3.1051,-3.049,-3.0079,-3.1769,-3.2029,-3.1328,-2.9604,-2.9099,-2.8504,-2.7383,-2.7203,-2.7125,-2.7021,-2.69,-2.6719,-2.6598,-2.6702,-2.6779,-2.6779,-2.69,-2.7021,-2.7021,-2.7021,-2.6476,-2.5378,-2.4437,-2.4123,-2.4466,-2.597,-2.6002,-2.4346,-2.6114,-2.6203,-2.4525,-2.4958,-2.5187,-3.6603,-3.6081,-3.5231,-3.3191,-3.1768,-3.0317,-2.7901,-2.6903,-2.6523,-2.6406,0.0,0.0,0.0,0.0,0.0,0.0,-2.8906,-2.9473,-2.9219,-3.0176,-3.1211,-3.2131,0.0,0.0,-3.3887,0.0,0.0,0.0,-3.3223,-3.2793,-3.3379,-3.3418,-3.3418,-3.3418,-3.3418,-3.3418,-3.3418,-3.3418,-3.3203,-3.2793,-3.2363,-3.1934,-3.1504,-3.1074,-3.0898,-3.0898,-3.0762,-3.0762,-3.0898,-3.0762,-3.0762,-3.0762,-2.9412,-2.8444,-2.7607,-2.579,-2.4579,-2.3852,-2.3293,-2.3106,-2.3106,-2.3106,-2.3106,-2.3043,-2.2856,-2.3899,-2.5194,-2.5546,-2.6277,-2.7142,-2.7667,-2.8325,-2.892,-2.892,-2.9471,-3.033,-3.1307,-3.1279,-3.1386,-3.238,-3.2539,-3.2338,-3.1593,-3.0879,-2.9964,-2.8666,-2.8906,-2.8998,-2.8206,-2.8086,-2.7847,-2.7048,-2.7667,-2.8086,-2.8086,-2.9039,-2.9605,-2.9605,-2.9082,-2.821,-2.6848,-2.637,-2.5929,-2.5513,-2.6239,-2.5955,-2.4642,-2.5509,-2.5569,-2.4914,-2.5061,-2.551,-3.6884,-3.6613,-3.5911,-3.4134,-3.2224,-3.0321,-2.8528,-2.7171,-2.6289,-2.6367,-2.6426,0.0,0.0,0.0,-2.7402,-2.8008,0.0,-2.9101,-2.8789,-2.957,-3.0488,-3.1348,0.0,0.0,0.0,0.0,0.0,0.0,0.0,-3.2559,-3.3223,-3.3242,-3.3301,-3.3418,-3.3418,-3.3418,-3.3418,-3.3418,-3.3144,-3.2617,-3.2324,-3.1875,-3.1328,-3.1035,-3.0898,-3.0898,-3.082,-3.0762,-3.0762,-3.0645,-3.047,-3.0098,-2.8742,-2.7547,-2.6355,-2.5439,-2.427,-2.3106,-2.3106,-2.3106,-2.3106,-2.3106,-2.3106,-2.3043,-2.2793,-2.3604,-2.4579,-2.4702,-2.5546,-2.6537,-2.69,-2.7966,-2.892,-2.892,-2.9998,-3.1172,-3.1601,-3.2031,-3.2461,-3.2766,-3.2844,-3.2782,-3.2719,-3.2144,-3.1341,-3.0287,-3.0638,-3.0683,-2.9758,-2.9639,-2.9264,-2.8349,-2.9085,-2.9639,-2.9639,-3.0775,-3.1383,-3.112,-3.0107,-2.8985,-2.7637,-2.7256,-2.6794,-2.6129,-2.6145,-2.5804,-2.5119,-2.5119,-2.5119,-2.5119,-2.5119,-2.5846,0.0,0.0,0.0,-3.388,0.0,-2.9641,-2.7683,-2.7432,-2.7383,-2.6562,-2.7363,-2.7969,-2.7168,-2.7363,-2.7708,-2.7728,-2.8047,0.0,0.0,-2.8359,-2.8691,-2.9551,-3.1192,-3.2324,0.0,-3.207,0.0,0.0,0.0,0.0,-3.2754,-3.2812,-3.3008,-3.3418,-3.3418,-3.3418,-3.3418,-3.3418,-3.3008,-3.2248,-3.2229,-3.1719,-3.0918,-3.0898,-3.0898,-3.0898,-3.0567,-3.045,-3.0392,-3.0098,-2.939,-2.8421,-2.7125,-2.5973,-2.5133,-2.5133,-2.427,-2.3106,-2.3106,-2.3106,-2.3106,-2.3106,-2.3106,-2.3106,-2.3106,-2.3106,-2.3417,-2.4702,-2.5133,-2.5439,-2.6658,-2.7966,-2.892,-2.892,-3.0206,-3.1621,-3.2051,-3.248,-3.2766,-3.2879,-3.2912,-3.2785,-3.2466,-3.2281,-3.2012,-3.1522,-3.1444,-3.1504,-3.1425,-3.1425,-3.1365,-3.1365,-3.1385,-3.1425,-3.1425,-3.1444,-3.1139,-3.0217,-2.887,-2.7671,-2.6613,-2.5333,-2.4834,-2.5172,-2.5172,-2.5105,-2.5119,-2.5119,-2.5119,-2.5119,-2.5119,-2.5846,0.0,0.0,-3.4691,-3.3382,0.0,0.0,0.0,0.0,0.0,-2.7066,-2.7598,-2.8203,-2.791,-2.7988,-2.8086,-2.8086,-2.8437,-2.8613,0.0,-2.8535,-2.8926,-2.9548,-3.0605,-3.125,-3.1094,0.0,0.0,0.0,-3.1543,0.0,0.0,-3.2637,-3.2851,-3.3008,-3.3281,-3.3418,-3.3418,-3.3418,-3.3008,-3.2229,-3.2229,-3.1719,-3.0898,-3.0898,-3.0898,-3.0898,-3.0762,-3.0645,-3.0392,-3.0274,-3.0039,-2.9608,-2.8343,-2.7065,-2.5835,-2.4332,-2.3479,-2.3043,-2.2856,-2.2606,-2.248,-2.2668,-2.2793,-2.2793,-2.2793,-2.3542,-2.4456,-2.4702,-2.4949,-2.5194,-2.5623,-2.6034,-2.6581,-2.7426,-2.8992,-3.0581,-3.1949,-3.2316,-3.2556,-3.2835,-3.274,-3.2613,-3.274,-3.2681,-3.2416,-3.1826,-3.1825,-3.1893,-3.1571,-3.1813,-3.1953,-3.1953,-3.1953,-3.1953,-3.1953,-3.1375,-3.056,-2.9561,-2.8223,-2.6851,-2.5613,-2.5159,-2.5017,-2.5119,-2.5119,-2.5119,-2.5119,-2.5119,-2.5119,-2.5119,-2.6032,-2.7153,-3.428,-3.4112,0.0,-3.3247,-3.2094,0.0,-2.9311,0.0,-2.936,0.0,0.0,0.0,-2.9219,-2.8828,-2.8574,-2.873,-2.8711,-2.8594,0.0,-2.8652,-2.9023,-2.9297,-3.0117,-3.0644,-3.0664,-3.0898,-3.1172,-3.1504,-3.123,0.0,0.0,0.0,-3.2637,-3.2793,-3.3203,-3.3418,-3.3418,-3.3418,-3.3008,-3.2229,-3.2229,-3.1719,-3.0898,-3.0898,-3.082,-3.0704,-3.0704,-3.047,-3.0098,-3.0098,-2.9844,-2.9431,-2.8104,-2.6944,-2.5835,-2.4193,-2.3293,-2.2731,-2.2606,-2.2355,-2.2104,-2.2355,-2.2418,-2.2418,-2.2418,-2.3168,-2.3961,-2.3775,-2.3961,-2.4209,-2.4209,-2.4734,-2.5555,-2.6905,-2.8158,-2.9527,-3.1119,-3.1183,-3.1029,-3.1689,-3.1616,-3.1699,-3.2422,-3.2676,-3.2587,-3.2186,-3.2312,-3.2322,-3.2076,-3.226,-3.2383,-3.2383,-3.1934,-3.1423,-3.099,-3.0465,-2.9702,-2.8509,-2.7602,-2.6501,-2.5187,-2.5119,-2.5119,-2.5119,-2.5119,-2.5119,-2.5119,-2.5592,-2.5592,-2.5119,-2.6953,-2.8328]},{"header":{"parameterUnit":"m.s-1","parameterCategory":1,"la1":30.6,"la2":29.2853,"lo1":-89.7004,"lo2":-87.6739,"dy":0.0162,"dx":0.0183,"nx":112,"ny":82,"refTime":"2026-05-16T12:00:00:Z","depth":0,"parameterNumber":3,"parameterNumberName":"V-component_of_WINDS"},"data":[0.0,0.0,0.0,0.0,0.0,0.0,0.0,0.0,0.0,0.0,0.0,0.0,0.0,0.0,0.0,0.0,0.0,0.0,0.0,0.0,0.0,0.0,0.0,0.0,0.0,0.0,0.0,0.0,0.0,0.0,0.0,0.0,0.0,0.0,0.0,0.0,0.0,0.0,0.0,0.0,0.0,0.0,0.0,0.0,0.0,0.0,0.0,0.0,0.0,0.0,0.0,0.0,0.0,0.0,0.0,0.0,0.0,0.0,0.0,0.0,0.0,0.0,0.0,0.0,0.0,0.0,0.0,0.0,0.0,0.0,0.0,0.0,0.0,0.0,0.0,0.0,0.0,0.0,0.0,0.0,0.0,0.0,0.0,0.0,0.0,0.0,0.0,0.0,0.0,0.0,2.425,2.5012,2.5294,2.551,2.5712,2.5816,2.4859,2.2344,0.0,0.0,0.0,0.0,0.0,0.0,0.0,0.0,0.0,0.0,0.0,0.0,0.0,0.0,0.0,0.0,0.0,0.0,0.0,0.0,0.0,0.0,0.0,0.0,0.0,0.0,0.0,0.0,0.0,0.0,0.0,0.0,0.0,0.0,0.0,0.0,0.0,0.0,0.0,0.0,0.0,0.0,0.0,0.0,0.0,0.0,0.0,0.0,0.0,0.0,0.0,0.0,0.0,0.0,0.0,0.0,0.0,0.0,0.0,0.0,0.0,0.0,0.0,0.0,0.0,0.0,0.0,0.0,0.0,0.0,0.0,0.0,0.0,0.0,0.0,0.0,0.0,0.0,0.0,0.0,0.0,0.0,0.0,0.0,0.0,0.0,0.0,0.0,0.0,0.0,0.0,0.0,0.0,0.0,0.0,0.0,0.0,0.0,0.0,0.0,0.0,0.0,0.0,0.0,2.5622,2.7912,2.7344,2.7286,2.846,2.6971,2.5477,2.4351,0.0,0.0,0.0,0.0,0.0,0.0,0.0,0.0,0.0,0.0,0.0,0.0,0.0,0.0,0.0,0.0,0.0,0.0,0.0,0.0,0.0,0.0,0.0,0.0,0.0,0.0,0.0,0.0,0.0,0.0,0.0,0.0,0.0,0.0,0.0,0.0,0.0,0.0,0.0,0.0,0.0,0.0,0.0,0.0,0.0,0.0,0.0,0.0,0.0,0.0,0.0,0.0,0.0,0.0,0.0,0.0,0.0,0.0,0.0,0.0,0.0,0.0,0.0,0.0,0.0,0.0,0.0,0.0,0.0,0.0,0.0,0.0,0.0,0.0,0.0,0.0,0.0,0.0,0.0,0.0,0.0,0.0,0.0,0.0,0.0,0.0,0.0,0.0,0.0,0.0,0.0,0.0,0.0,0.0,0.0,0.0,0.0,0.0,0.0,0.0,0.0,0.0,0.0,2.6198,2.7006,2.8798,2.8557,2.8592,2.9361,2.861,2.7219,2.5124,2.4351,0.0,0.0,0.0,0.0,0.0,0.0,0.0,0.0,0.0,0.0,0.0,0.0,0.0,0.0,0.0,0.0,0.0,0.0,0.0,0.0,0.0,0.0,0.0,0.0,0.0,0.0,0.0,0.0,0.0,0.0,0.0,0.0,0.0,0.0,0.0,0.0,0.0,0.0,0.0,0.0,0.0,0.0,0.0,0.0,0.0,0.0,0.0,0.0,0.0,0.0,0.0,0.0,0.0,0.0,0.0,0.0,0.0,0.0,0.0,0.0,0.0,0.0,0.0,0.0,0.0,0.0,0.0,0.0,0.0,0.0,0.0,0.0,0.0,0.0,0.0,0.0,0.0,0.0,0.0,0.0,0.0,0.0,0.0,0.0,0.0,0.0,0.0,0.0,0.0,0.0,0.0,0.0,0.0,0.0,0.0,0.0,0.0,0.0,0.0,0.0,0.0,0.0,2.8911,2.9246,3.0334,3.0142,3.0107,3.0599,3.0107,2.8639,2.6118,2.5843,0.0,0.0,0.0,0.0,0.0,0.0,0.0,0.0,0.0,0.0,0.0,0.0,0.0,0.0,0.0,0.0,0.0,0.0,0.0,0.0,0.0,0.0,0.0,0.0,0.0,0.0,0.0,0.0,0.0,0.0,0.0,0.0,0.0,0.0,0.0,0.0,0.0,0.0,0.0,0.0,0.0,0.0,0.0,0.0,0.0,0.0,0.0,0.0,0.0,0.0,0.0,0.0,0.0,0.0,0.0,0.0,0.0,0.0,0.0,0.0,0.0,0.0,0.0,0.0,0.0,0.0,0.0,0.0,0.0,0.0,0.0,0.0,0.0,0.0,0.0,0.0,0.0,0.0,0.0,0.0,0.0,0.0,0.0,0.0,0.0,0.0,0.0,0.0,0.0,0.0,0.0,0.0,0.0,0.0,0.0,0.0,0.0,0.0,0.0,0.0,0.0,0.0,3.1456,3.3054,3.3928,3.2854,3.2491,3.3409,3.0757,2.884,2.8316,2.6683,0.0,0.0,0.0,0.0,0.0,0.0,0.0,0.0,0.0,0.0,0.0,0.0,0.0,0.0,0.0,0.0,0.0,0.0,0.0,0.0,0.0,0.0,0.0,0.0,0.0,0.0,0.0,0.0,0.0,0.0,0.0,0.0,0.0,0.0,0.0,0.0,0.0,0.0,0.0,0.0,0.0,0.0,0.0,0.0,0.0,0.0,0.0,0.0,0.0,0.0,0.0,0.0,0.0,0.0,0.0,0.0,0.0,0.0,0.0,0.0,0.0,0.0,0.0,0.0,0.0,0.0,0.0,0.0,0.0,0.0,0.0,0.0,0.0,0.0,0.0,0.0,0.0,0.0,0.0,0.0,0.0,0.0,0.0,0.0,0.0,0.0,0.0,0.0,0.0,0.0,0.0,0.0,0.0,0.0,0.0,0.0,0.0,0.0,0.0,0.0,0.0,0.0,3.0681,3.2431,3.386,3.3567,3.3488,3.4024,3.2214,3.0382,2.892,0.0,0.0,0.0,0.0,0.0,0.0,0.0,0.0,0.0,0.0,0.0,0.0,0.0,0.0,0.0,0.0,0.0,0.0,0.0,0.0,0.0,0.0,0.0,0.0,0.0,0.0,0.0,0.0,0.0,0.0,0.0,0.0,0.0,0.0,0.0,0.0,0.0,0.0,0.0,0.0,0.0,0.0,0.0,0.0,0.0,0.0,0.0,0.0,0.0,0.0,0.0,0.0,0.0,0.0,0.0,0.0,0.0,0.0,0.0,0.0,0.0,0.0,0.0,0.0,0.0,0.0,0.0,0.0,0.0,0.0,0.0,0.0,0.0,0.0,0.0,0.0,0.0,0.0,0.0,0.0,0.0,0.0,0.0,0.0,0.0,0.0,0.0,0.0,0.0,0.0,0.0,0.0,0.0,0.0,0.0,0.0,0.0,0.0,0.0,0.0,0.0,0.0,2.8615,3.0915,3.2802,3.378,3.3862,3.3922,3.402,3.2608,3.0826,2.8798,0.0,0.0,0.0,0.0,0.0,0.0,0.0,0.0,0.0,0.0,0.0,0.0,0.0,0.0,0.0,0.0,0.0,0.0,0.0,0.0,0.0,0.0,0.0,0.0,0.0,0.0,0.0,0.0,0.0,0.0,0.0,0.0,0.0,0.0,0.0,0.0,0.0,0.0,0.0,0.0,0.0,0.0,0.0,0.0,0.0,0.0,0.0,0.0,0.0,0.0,0.0,0.0,0.0,0.0,0.0,0.0,0.0,0.0,0.0,0.0,0.0,0.0,0.0,0.0,0.0,0.0,0.0,0.0,0.0,0.0,0.0,0.0,0.0,0.0,0.0,0.0,0.0,0.0,0.0,0.0,0.0,0.0,0.0,0.0,0.0,0.0,0.0,0.0,0.0,0.0,0.0,0.0,0.0,0.0,0.0,0.0,0.0,0.0,0.0,0.0,0.0,0.0,2.9432,3.2693,3.4848,3.4188,3.4111,3.3924,3.3468,3.1788,2.9964,0.0,0.0,0.0,0.0,0.0,0.0,0.0,0.0,0.0,0.0,0.0,0.0,0.0,0.0,0.0,0.0,0.0,0.0,0.0,0.0,0.0,0.0,0.0,0.0,0.0,0.0,0.0,0.0,0.0,0.0,0.0,0.0,0.0,0.0,0.0,0.0,0.0,0.0,0.0,0.0,0.0,0.0,0.0,0.0,0.0,0.0,0.0,0.0,0.0,0.0,0.0,0.0,0.0,0.0,0.0,0.0,0.0,0.0,0.0,0.0,0.0,0.0,0.0,0.0,0.0,0.0,0.0,0.0,0.0,0.0,0.0,0.0,0.0,0.0,0.0,0.0,0.0,0.0,0.0,0.0,0.0,0.0,0.0,0.0,0.0,0.0,0.0,0.0,0.0,0.0,0.0,0.0,0.0,0.0,0.0,0.0,0.0,0.0,0.0,0.0,0.0,0.0,0.0,3.0979,3.4117,3.6286,3.6104,3.6048,3.6003,3.5904,3.441,3.2288,2.9358,0.0,0.0,0.0,0.0,0.0,0.0,0.0,0.0,0.0,0.0,0.0,0.0,0.0,0.0,0.0,0.0,0.0,0.0,0.0,0.0,0.0,0.0,0.0,0.0,0.0,0.0,0.0,0.0,0.0,0.0,0.0,0.0,0.0,0.0,0.0,0.0,0.0,0.0,0.0,0.0,0.0,0.0,0.0,0.0,0.0,0.0,0.0,0.0,0.0,0.0,0.0,0.0,0.0,0.0,0.0,0.0,0.0,0.0,0.0,0.0,0.0,0.0,0.0,0.0,0.0,0.0,0.0,0.0,0.0,0.0,0.0,0.0,0.0,0.0,0.0,0.0,0.0,0.0,0.0,0.0,0.0,0.0,0.0,0.0,0.0,0.0,0.0,0.0,0.0,0.0,0.0,0.0,0.0,0.0,0.0,0.0,0.0,0.0,0.0,0.0,0.0,0.0,3.1664,3.4964,3.7083,3.6645,3.6645,3.6645,3.6645,3.5428,3.3439,3.0526,0.0,0.0,0.0,0.0,0.0,0.0,0.0,0.0,0.0,0.0,0.0,0.0,0.0,0.0,0.0,0.0,0.0,0.0,0.0,0.0,0.0,0.0,0.0,0.0,0.0,0.0,0.0,0.0,0.0,0.0,0.0,0.0,0.0,0.0,0.0,0.0,0.0,0.0,0.0,0.0,0.0,0.0,0.0,0.0,0.0,0.0,0.0,0.0,0.0,0.0,0.0,0.0,0.0,0.0,0.0,0.0,0.0,0.0,0.0,0.0,0.0,0.0,0.0,0.0,0.0,0.0,0.0,0.0,0.0,0.0,0.0,0.0,0.0,0.0,0.0,0.0,0.0,0.0,0.0,0.0,0.0,0.0,0.0,0.0,0.0,0.0,0.0,0.0,0.0,0.0,0.0,0.0,0.0,0.0,0.0,0.0,0.0,0.0,0.0,0.0,0.0,0.0,3.2089,3.5577,3.7666,3.6727,3.6619,3.6619,3.6619,3.5666,3.4066,3.1715,0.0,0.0,0.0,0.0,0.0,0.0,0.0,0.0,0.0,0.0,0.0,0.0,0.0,0.0,0.0,0.0,0.0,0.0,0.0,0.0,0.0,0.0,0.0,0.0,0.0,0.0,0.0,0.0,0.0,0.0,0.0,0.0,0.0,0.0,0.0,0.0,0.0,0.0,0.0,0.0,0.0,0.0,0.0,0.0,0.0,0.0,0.0,0.0,0.0,0.0,0.0,0.0,0.0,0.0,0.0,0.0,0.0,0.0,0.0,0.0,3.8622,3.6513,0.0,0.0,0.0,0.0,0.0,0.0,0.0,0.0,0.0,0.0,0.0,0.0,0.0,0.0,0.0,0.0,0.0,0.0,0.0,0.0,0.0,0.0,0.0,0.0,0.0,0.0,0.0,0.0,0.0,0.0,0.0,0.0,0.0,0.0,0.0,0.0,0.0,0.0,0.0,0.0,3.428,3.7235,3.9297,3.9545,3.9595,3.9595,3.9595,3.8542,3.6719,3.3829,3.2152,0.0,0.0,0.0,0.0,0.0,0.0,0.0,0.0,0.0,0.0,0.0,0.0,0.0,0.0,0.0,0.0,0.0,0.0,0.0,0.0,0.0,0.0,0.0,0.0,0.0,0.0,0.0,0.0,0.0,0.0,0.0,0.0,0.0,0.0,0.0,0.0,0.0,0.0,0.0,0.0,0.0,0.0,0.0,0.0,0.0,0.0,0.0,0.0,0.0,0.0,0.0,0.0,0.0,0.0,0.0,0.0,0.0,0.0,0.0,0.0,4.0734,0.0,0.0,0.0,0.0,0.0,0.0,0.0,0.0,0.0,0.0,0.0,0.0,0.0,0.0,0.0,0.0,0.0,0.0,0.0,0.0,0.0,0.0,0.0,0.0,0.0,0.0,0.0,0.0,0.0,0.0,0.0,0.0,0.0,0.0,0.0,0.0,0.0,0.0,0.0,0.0,3.5111,3.7782,3.985,4.044,4.026,4.0081,4.0081,3.903,3.7505,3.5522,3.3763,0.0,0.0,0.0,0.0,0.0,0.0,0.0,0.0,0.0,0.0,0.0,0.0,0.0,0.0,0.0,0.0,0.0,0.0,0.0,0.0,0.0,0.0,0.0,0.0,0.0,0.0,0.0,0.0,0.0,0.0,0.0,0.0,0.0,0.0,0.0,0.0,0.0,0.0,0.0,0.0,0.0,0.0,0.0,0.0,0.0,0.0,0.0,0.0,0.0,0.0,0.0,0.0,0.0,4.8264,4.8322,4.8559,4.8207,4.8178,4.8301,4.6966,4.6111,4.5551,4.3175,0.0,0.0,0.0,0.0,0.0,0.0,0.0,0.0,0.0,0.0,0.0,0.0,0.0,0.0,0.0,0.0,0.0,0.0,0.0,0.0,0.0,0.0,0.0,0.0,4.1022,4.1224,0.0,0.0,0.0,0.0,0.0,0.0,0.0,0.0,0.0,0.0,0.0,0.0,3.5528,3.7887,3.9642,4.0309,3.9873,3.9591,3.9591,3.864,3.7706,3.6884,3.5149,3.3756,0.0,0.0,0.0,0.0,0.0,0.0,0.0,0.0,0.0,0.0,0.0,0.0,0.0,0.0,0.0,0.0,0.0,0.0,0.0,0.0,0.0,0.0,0.0,0.0,0.0,0.0,0.0,0.0,0.0,0.0,0.0,0.0,4.6784,4.7377,0.0,0.0,0.0,0.0,0.0,0.0,0.0,0.0,0.0,0.0,0.0,0.0,0.0,4.8374,4.9156,5.0946,5.2067,5.2445,5.4131,5.4318,5.3337,5.3813,5.3456,5.2445,5.2772,0.0,4.7052,4.6115,0.0,0.0,0.0,0.0,0.0,0.0,0.0,0.0,0.0,0.0,0.0,0.0,0.0,0.0,0.0,0.0,0.0,0.0,0.0,0.0,0.0,0.0,4.5905,4.4745,4.5042,4.5327,0.0,4.0949,3.7568,3.6109,3.5386,0.0,0.0,0.0,0.0,0.0,0.0,0.0,3.6631,3.8017,3.906,3.9659,3.9659,3.9607,3.9607,3.9007,3.8356,3.7776,3.6504,3.5279,3.4173,3.2894,0.0,0.0,0.0,0.0,0.0,0.0,0.0,0.0,0.0,0.0,0.0,0.0,0.0,0.0,0.0,0.0,0.0,0.0,0.0,0.0,0.0,0.0,0.0,0.0,0.0,0.0,0.0,0.0,0.0,4.7474,4.8745,4.8307,4.8121,4.7478,0.0,0.0,0.0,0.0,0.0,0.0,0.0,0.0,0.0,5.0613,5.1666,5.257,5.3355,5.4539,5.5218,5.5388,5.6256,5.6196,5.5329,5.5598,5.5209,5.4341,5.461,5.3624,5.1637,4.93,4.7289,4.5475,0.0,0.0,0.0,0.0,4.2216,4.2729,4.4604,4.5245,0.0,4.5288,0.0,0.0,0.0,0.0,0.0,0.0,0.0,0.0,0.0,0.0,4.6232,4.6381,4.6651,4.68,4.6501,4.4152,4.1522,0.0,3.8832,3.7577,3.4316,0.0,0.0,0.0,0.0,3.6784,3.8365,3.9563,4.0486,4.1039,4.0867,4.0677,4.0677,4.0105,3.9687,3.9441,3.8596,3.7903,3.7384,3.5964,3.4662,0.0,0.0,0.0,0.0,0.0,0.0,0.0,0.0,0.0,0.0,0.0,0.0,0.0,0.0,0.0,0.0,0.0,0.0,0.0,0.0,0.0,0.0,0.0,0.0,0.0,0.0,0.0,0.0,4.9643,5.0571,4.9434,5.0182,5.0062,0.0,0.0,0.0,0.0,0.0,0.0,5.1409,5.1977,5.2845,5.4132,5.5329,5.6107,5.6406,5.7034,5.7274,5.7094,5.7094,5.6765,5.6218,5.6218,5.5807,5.5179,5.5179,5.5179,5.4979,5.2162,5.0239,4.884,4.6321,4.4867,4.425,4.4694,4.5027,4.5537,4.7775,4.8639,4.866,4.8566,0.0,4.5486,4.3319,0.0,0.0,0.0,0.0,4.3384,4.4545,4.5412,4.6221,4.7156,4.7396,4.7352,4.7309,4.6232,4.4631,0.0,4.1733,4.0383,3.6862,0.0,0.0,0.0,3.7325,3.8589,3.9896,4.076,4.1431,4.1835,4.1515,4.1262,4.1262,4.0884,4.0603,4.0603,4.0182,3.9929,3.9929,3.8561,3.7399,3.64,0.0,0.0,0.0,0.0,0.0,0.0,0.0,0.0,0.0,0.0,0.0,0.0,0.0,0.0,0.0,0.0,0.0,0.0,0.0,0.0,0.0,0.0,0.0,0.0,0.0,0.0,0.0,0.0,0.0,5.2097,5.3713,0.0,0.0,0.0,0.0,5.102,5.1312,5.2472,5.479,5.497,5.5568,5.6855,5.7603,5.7663,5.7064,5.7723,5.7752,5.7094,5.7094,5.6765,5.6218,5.6218,5.5807,5.5179,5.5179,5.5179,5.5149,5.4321,5.3215,5.187,5.0432,4.9119,4.8059,4.8089,4.861,4.9419,5.0186,5.0638,5.094,5.1562,4.9984,4.774,4.6951,4.5334,0.0,0.0,4.5304,4.5981,4.6637,4.7346,4.7831,4.7624,4.7581,4.7538,4.7352,4.6232,4.5095,0.0,4.317,4.1662,3.9478,0.0,3.9121,3.9092,3.8939,3.9353,4.0729,4.0772,4.0659,4.0688,4.0659,4.0659,4.0659,4.0603,4.0603,4.0603,4.0575,4.0547,4.0547,3.9901,3.8733,3.6982,3.5723,0.0,0.0,0.0,0.0,0.0,0.0,0.0,0.0,0.0,0.0,0.0,0.0,0.0,0.0,0.0,0.0,0.0,0.0,0.0,0.0,0.0,0.0,0.0,0.0,0.0,0.0,0.0,0.0,5.4008,5.5398,0.0,5.3494,5.3378,5.3832,5.4854,5.5043,5.583,5.7544,5.7635,5.8058,5.8912,5.9183,5.9214,5.8942,5.9183,5.8866,5.8046,5.8046,5.7475,5.6474,5.6474,5.6113,5.5431,5.5431,5.533,5.5179,5.494,5.4311,5.3414,5.2486,5.1858,5.1379,5.096,5.1099,5.1512,5.1301,5.1424,5.1607,5.1425,5.0393,4.9252,4.9009,4.8128,4.7277,4.7521,4.746,4.7338,4.7581,4.7824,4.7964,4.788,4.7837,4.7794,4.7568,4.6473,4.5451,4.5046,4.3898,4.2473,4.0893,4.1012,4.116,4.0745,4.0949,4.1449,4.2366,4.239,4.2345,4.2345,4.2345,4.2345,4.2345,4.2345,4.2345,4.2345,4.2345,4.2345,4.2345,4.214,4.1331,3.9844,3.8554,3.6646,0.0,0.0,0.0,0.0,0.0,0.0,0.0,0.0,0.0,0.0,0.0,0.0,0.0,0.0,0.0,0.0,0.0,0.0,0.0,0.0,0.0,0.0,0.0,0.0,0.0,5.4018,5.5268,5.5025,5.6575,5.7061,5.5481,5.6133,5.7064,5.8101,5.856,5.9253,6.0268,6.033,6.0546,6.101,6.099,6.0835,6.0503,6.0503,5.9814,5.839,5.8723,5.8126,5.6735,5.7052,5.6954,5.6427,5.6524,5.6232,5.58,5.5918,5.5478,5.4709,5.3999,5.3729,5.3706,5.2833,5.2644,5.2742,5.2184,5.2063,5.2139,5.1712,5.1147,5.0537,5.0293,4.9774,4.9164,4.895,4.8553,4.8218,4.8218,4.8218,4.8175,4.8133,4.8091,4.7988,4.748,4.6573,4.5656,4.5251,4.4158,4.3021,4.2192,4.2402,4.2551,4.2102,4.2402,4.2851,4.323,4.329,4.329,4.329,4.329,4.329,4.329,4.312,4.309,4.329,4.2871,4.2761,4.3,4.2581,4.1833,4.0756,3.92,3.7623,3.6014,0.0,0.0,0.0,0.0,0.0,0.0,0.0,0.0,0.0,0.0,0.0,0.0,0.0,0.0,0.0,0.0,0.0,0.0,0.0,0.0,0.0,0.0,0.0,5.3454,5.4909,5.5944,5.5353,5.7577,5.8349,5.642,5.855,6.0164,6.0577,6.1727,6.2631,6.2988,6.3052,6.3052,6.3052,6.3052,6.2568,6.1558,6.1558,6.04,5.8075,5.9018,5.8567,5.7117,5.8039,5.8314,5.8131,5.8328,5.79,5.707,5.7323,5.691,5.6017,5.5035,5.4812,5.4825,5.3537,5.3206,5.33,5.2914,5.2788,5.2788,5.2788,5.2356,5.1678,5.0999,5.0321,4.9643,4.8934,4.8718,4.8687,4.8687,4.8687,4.8646,4.8438,4.8355,4.8129,4.7269,4.6528,4.5829,4.5151,4.4097,4.3329,4.3329,4.3329,4.329,4.329,4.329,0.0,4.329,4.329,4.329,4.329,4.329,4.329,4.329,4.2731,4.2641,4.323,4.2102,4.1722,4.2351,4.1153,4.0127,3.9469,3.7558,3.6706,3.7038,0.0,0.0,0.0,0.0,0.0,0.0,0.0,0.0,0.0,0.0,0.0,0.0,0.0,0.0,0.0,0.0,0.0,0.0,0.0,0.0,0.0,5.5813,5.7861,5.83,5.9448,6.0482,6.128,6.2029,6.2253,6.1726,6.2331,6.2762,6.2907,6.3224,6.3476,6.3576,6.3576,6.3576,6.3576,6.3576,6.3209,6.2363,6.2363,6.1423,5.9585,5.9865,5.9479,5.8619,5.8889,5.8979,5.8889,5.8979,5.8722,5.8314,5.836,5.8391,5.8162,5.6291,5.5353,5.4952,5.4745,5.4572,5.4454,5.4549,5.4569,5.4569,5.4569,5.4441,5.4154,5.3483,5.278,5.2077,5.1342,5.0767,5.0422,5.0422,5.0422,5.0422,5.0345,4.9892,4.933,4.8948,4.7502,4.6167,4.5827,4.5125,4.4465,4.3879,4.3675,4.3596,4.3596,4.3438,0.0,4.329,4.329,4.329,4.329,4.329,4.329,4.329,4.2731,4.247,4.2611,4.2016,4.1625,4.1692,4.1528,4.1193,4.0595,3.8599,3.7637,0.0,0.0,0.0,0.0,0.0,0.0,0.0,0.0,0.0,0.0,0.0,0.0,0.0,0.0,0.0,0.0,0.0,0.0,0.0,0.0,0.0,0.0,5.9243,6.1622,6.2913,6.2546,6.2612,6.3667,6.3797,6.3797,6.3797,6.417,6.4447,6.4447,6.4811,6.5069,6.5069,6.5069,6.5069,6.5069,6.4772,6.4186,6.3355,6.3015,6.2028,6.0354,6.0757,6.0543,5.9816,6.0204,6.0332,0.0,6.0332,6.0075,5.9566,5.9686,5.9598,0.0,0.0,0.0,0.0,0.0,5.5453,5.5076,5.5271,5.5312,5.5312,5.5312,5.5118,5.4689,5.4009,5.3265,5.2592,5.1879,5.1394,5.1107,5.1107,5.1107,5.1107,5.1107,5.0519,4.9798,4.9397,4.8061,4.687,4.6475,4.6095,0.0,4.5258,4.4692,4.4305,4.4305,4.3879,4.381,4.4441,4.4004,4.3723,4.4043,4.3801,4.3723,4.4043,4.348,0.0,0.0,0.0,4.1545,4.0852,4.0715,0.0,0.0,0.0,0.0,0.0,0.0,0.0,0.0,3.8302,3.8085,0.0,0.0,0.0,0.0,0.0,0.0,0.0,0.0,0.0,0.0,0.0,0.0,0.0,0.0,0.0,0.0,6.2932,6.5222,6.6609,6.4763,6.3486,6.4105,6.417,6.417,6.417,6.4979,6.547,6.547,6.6311,6.6812,6.6812,6.6812,0.0,0.0,0.0,6.5186,6.4132,6.3468,6.2342,6.0792,6.165,6.1616,6.0828,6.1642,6.1951,6.179,6.1957,6.1561,6.0828,6.1069,6.0553,5.9556,5.8442,5.8119,5.815,5.682,5.5994,5.5595,5.5595,0.0,0.0,5.5595,5.5107,5.4384,5.3708,5.2991,5.2243,5.1564,5.1369,5.1369,5.1369,5.1369,5.1336,5.1271,5.0648,4.9863,4.9183,4.8394,4.7642,4.7028,4.6898,4.6896,4.6828,4.5917,4.5258,4.5258,4.4692,4.4699,4.6032,4.5042,4.4503,4.5147,0.0,0.0,4.5184,4.4606,4.4199,4.41,4.282,4.1539,4.0316,3.972,3.9753,4.0544,4.0382,4.0698,4.1624,4.2078,4.2426,4.2518,3.918,3.8672,0.0,0.0,0.0,0.0,0.0,0.0,0.0,0.0,0.0,0.0,0.0,0.0,0.0,0.0,0.0,6.2588,6.4329,6.5797,6.6677,6.6347,6.61,6.6192,6.6192,6.6192,6.6192,6.6397,6.6525,6.6525,6.6686,6.6812,6.6812,6.6812,6.6542,6.5933,6.5764,6.5039,6.3653,6.3485,6.2932,6.2072,0.0,0.0,6.207,6.2263,6.2302,6.2263,6.2302,6.2189,6.207,6.211,6.1284,5.9834,5.8181,5.7632,5.7687,5.6836,5.6867,5.7406,5.7406,5.7406,5.7406,5.7406,5.6902,5.616,5.5422,5.4684,0.0,5.3243,5.3041,5.3041,5.3041,5.3041,5.2874,5.2236,5.1497,5.0759,5.0021,4.8828,4.7836,4.7704,4.7671,4.7473,4.6898,4.6483,4.6237,4.6237,4.5957,4.5885,4.6138,4.5925,4.585,4.5961,4.5885,4.585,4.5992,4.5359,4.4721,4.4145,4.2776,4.2013,4.2012,4.1789,4.1789,4.2075,4.2044,4.2108,4.23,4.2426,4.2769,4.3287,4.1999,4.1686,0.0,0.0,0.0,0.0,0.0,0.0,0.0,0.0,0.0,0.0,0.0,5.8887,6.041,0.0,6.2888,6.4377,6.5527,6.6373,6.6779,6.6812,6.6812,6.6812,6.6812,6.6812,6.6812,6.6812,6.6812,6.6812,6.6812,6.6812,6.6812,6.6812,6.6474,6.5696,6.5324,6.4613,6.3531,6.3125,6.2753,6.2381,6.2381,6.2381,6.2381,6.2381,6.2381,6.2381,6.2381,6.2381,6.2381,6.2381,6.1501,6.0005,5.9085,5.8341,5.772,5.739,5.7517,5.7881,5.7881,5.7881,5.7881,5.7881,5.7408,5.6664,5.5919,5.5175,5.4431,5.3721,5.3518,5.3518,5.3518,5.3213,5.2807,5.2401,5.1454,5.0541,5.0168,4.9241,4.845,4.845,4.845,4.8354,4.7967,4.7836,4.7638,4.7272,4.6505,4.6245,4.6947,4.6056,4.5525,4.5895,4.595,4.6108,4.6481,4.5897,4.5343,4.4984,4.3234,4.2489,4.2984,4.2614,4.2583,4.2984,4.3015,4.3211,4.3604,4.3941,4.4471,4.5135,4.4837,4.4453,0.0,0.0,0.0,0.0,0.0,0.0,0.0,5.866,5.8998,5.9911,6.0554,6.14,6.2787,6.3531,6.4377,6.5696,6.6406,6.6812,6.6812,6.6812,6.6812,6.6812,6.6812,6.6812,6.6812,6.6812,6.6812,6.6812,6.6812,6.6812,6.6812,6.6677,6.6237,6.5493,6.4783,6.4038,6.3294,6.2685,6.2381,6.2381,6.2381,6.2381,6.2381,6.2381,6.2381,6.2381,6.2381,6.2381,6.2381,6.2381,6.1569,6.0317,6.0148,5.9268,5.8084,5.7949,5.7881,5.7881,5.7881,5.7881,5.7881,5.7881,5.7408,5.6664,5.5919,5.5175,5.4431,5.3721,5.3518,5.3518,5.3518,5.301,5.2469,5.2164,5.1183,5.0236,4.9932,4.9424,4.9018,4.9018,4.9018,4.9018,4.9018,4.8883,4.8596,4.7993,4.6881,4.6485,4.7548,4.6144,4.5241,4.5872,4.5927,4.6159,4.6736,4.6198,4.5765,4.5765,4.3984,4.3136,4.3676,4.3166,4.3136,4.3706,4.3706,4.4105,4.49,4.5442,4.6075,4.6786,4.6786,4.6481,5.7476,5.7577,5.8084,5.9404,5.9302,5.9911,0.0,6.3226,6.2279,6.37,6.4038,6.4343,6.5155,6.5392,6.573,6.6542,6.6779,6.6812,6.6812,6.6812,6.6812,6.6812,6.6812,6.6812,6.6812,6.6812,6.6812,6.6812,6.6812,6.6812,6.6812,6.617,6.5493,6.4749,6.4005,6.3294,6.2516,6.2415,6.2381,6.2381,6.2381,6.2381,6.2381,6.2381,6.2381,6.2381,6.2381,6.2381,6.2381,6.2381,6.1907,6.1095,6.0385,5.9607,5.8795,5.8118,5.7881,5.7881,5.7881,5.7881,5.7881,5.7881,5.7408,5.6664,5.5919,5.5175,5.4431,5.3721,5.3518,5.3518,5.3518,5.345,5.3044,5.1657,5.1217,5.0744,4.9424,4.9052,4.9018,4.9018,4.9018,4.9018,4.9018,4.8477,4.8007,4.7916,4.7754,4.7484,4.6989,4.6701,4.6608,4.6667,4.6675,4.6709,4.6768,4.6127,4.5689,4.5689,4.4884,4.4412,4.4468,4.4412,4.4412,4.4468,4.4468,4.484,4.5587,4.5674,4.6075,4.6786,4.6786,4.6752,6.0283,6.052,6.0655,6.1264,6.1839,6.2651,6.4106,6.4038,6.3971,6.5019,6.5595,6.5967,6.6271,6.6339,6.644,6.6779,6.6812,6.6812,6.6812,6.644,6.617,6.617,6.5797,6.5865,6.6745,6.6812,6.6812,6.6812,6.6812,6.6812,6.6812,6.6508,6.5797,6.4647,6.4309,6.3565,6.2415,6.2381,6.2381,6.2381,6.2381,6.2381,6.2381,6.2381,6.2381,6.2381,6.2381,6.2381,6.2381,6.2381,6.167,6.0554,6.0216,5.9404,5.8321,5.8017,5.7881,5.7881,5.7881,5.7881,5.7881,5.7881,5.7408,5.6664,5.5919,5.5175,5.4431,5.3721,5.3518,5.3518,5.3518,5.3145,5.2536,5.1488,5.0879,5.027,4.9221,4.9018,4.9018,4.9018,4.9018,4.9018,4.9018,4.8409,4.7736,4.7327,4.6887,4.6515,4.621,4.5771,4.5669,4.6109,4.6143,4.6346,4.6752,4.6109,4.5703,4.5703,4.4993,4.4615,4.4615,4.4615,4.4615,4.4615,4.4615,4.4959,4.5703,4.6143,4.6718,4.7462,4.7868,4.8071,6.1264,6.1907,6.2448,6.2651,6.3802,6.4816,6.4512,6.4816,6.5358,6.5899,6.644,6.6812,6.6812,6.6812,6.6812,6.6812,6.6812,6.6812,6.6812,6.617,6.5696,6.5696,6.5053,6.5019,6.6102,6.6203,6.6373,6.6779,6.6609,6.6609,6.6812,6.6609,6.5933,6.4647,6.441,6.37,6.2415,6.2381,6.2381,6.2381,6.2381,6.2381,6.2381,6.2381,6.2381,6.2381,6.2381,6.2381,6.2381,6.2381,6.1603,6.0419,6.0182,5.9336,5.8186,5.7983,5.7881,5.7881,5.7881,5.7881,5.7881,5.7881,5.7408,5.6664,5.5919,5.5175,5.4431,5.3721,5.3518,5.3518,5.3518,5.3078,5.2401,5.1454,5.0811,5.0135,4.9187,4.9018,4.9018,4.9018,4.9018,4.9018,4.9018,4.824,4.7428,4.6887,4.6007,4.5399,4.5399,4.4925,4.4818,4.5331,4.5399,4.5602,4.6143,4.5703,4.5399,4.5399,4.4919,4.4615,4.4615,4.4615,4.4615,4.4615,4.4615,4.506,4.6007,4.6549,4.7293,4.824,4.8748,4.9018,5.9505,6.0723,6.255,6.3294,6.458,6.5831,6.6542,6.6745,6.6745,6.6779,6.6779,6.6812,6.6812,6.6812,6.6812,6.6812,6.6812,6.6812,6.6812,6.617,6.5696,6.5696,6.5053,6.4613,6.4647,6.4681,6.5256,6.6711,6.6136,6.6034,6.6779,6.6102,6.5392,6.4613,6.3903,6.3193,6.2381,6.2381,6.2381,6.2381,6.2381,6.2381,6.2381,6.2381,6.2381,6.2381,6.2381,6.2381,6.2381,6.2381,6.1941,6.1197,6.0419,5.9641,5.8896,5.8152,5.7881,5.7881,5.7881,5.7881,5.7881,5.7881,5.7408,5.6664,5.5919,5.5175,5.4431,5.3721,5.3518,5.3518,5.3518,5.3484,5.3078,5.1589,5.1151,5.0777,4.9323,4.9018,4.9018,4.9018,4.9018,4.9018,4.9018,4.78,4.6819,4.6786,4.5563,4.4649,4.4649,4.4615,4.4615,4.4649,4.4649,4.4649,4.4682,4.4649,4.4649,4.4649,4.4615,4.4615,4.4615,4.4615,4.4615,4.4615,4.4615,4.5326,4.6752,4.6786,4.753,4.8984,4.8984,4.9018,6.1129,6.2516,6.4038,6.4783,6.5696,6.6508,6.6745,6.6812,6.6677,6.617,6.6068,6.5933,6.5425,6.573,6.6068,6.6068,6.6474,6.6812,6.6812,6.617,6.5493,6.5019,6.4343,6.3869,6.3869,6.4309,6.5019,6.6,6.5831,6.6,6.6779,6.6102,6.5358,6.4613,6.3903,6.3159,6.2381,6.2381,6.2381,6.2381,6.2381,6.2381,6.2381,6.2381,6.2381,6.2347,6.1873,6.167,6.1637,6.1095,6.0452,5.9776,5.9471,5.893,5.8254,5.7983,5.7881,5.7881,5.7881,5.7881,5.7881,5.7881,5.707,5.6021,5.5784,5.4837,5.3822,5.3585,5.3518,5.3518,5.3518,5.3112,5.2469,5.1454,5.0845,5.0202,4.9221,4.9018,4.9018,4.9018,4.9018,4.9018,4.9018,4.7767,4.6447,4.5495,4.4919,4.4615,4.4615,4.4615,4.4615,4.4615,4.4615,4.4615,4.4615,4.4615,4.4615,4.4615,4.4615,4.4615,4.4615,4.4615,4.4615,4.4615,4.4615,4.506,4.6075,4.6549,4.7293,4.8277,4.8781,4.9018,6.2685,6.3869,6.485,6.5831,6.644,6.6745,6.6474,6.6406,6.6136,6.5121,6.4918,6.4681,6.3937,6.441,6.4986,6.5256,6.5933,6.6508,6.6779,6.5933,6.5121,6.4647,6.3971,6.3531,6.3531,6.3937,6.4512,6.5256,6.5527,6.5797,6.6,6.5797,6.5222,6.4241,6.3768,6.3159,6.2381,6.2381,6.2381,6.2381,6.2381,6.2381,6.2381,6.2381,6.2381,6.2347,6.1603,6.1298,6.1231,6.0419,5.9674,5.9032,5.9032,5.8558,5.7881,5.7881,5.7881,5.7881,5.7881,5.7881,5.7881,5.7881,5.69,5.5681,5.5681,5.4668,5.3518,5.3518,5.3518,5.3518,5.3518,5.2909,5.2131,5.1386,5.0642,4.9898,4.9154,4.9018,4.9018,4.9018,4.9018,4.9018,4.9018,4.7767,4.6278,4.4818,4.4615,4.4615,4.4615,4.4615,4.4615,4.4615,4.4615,4.4615,4.4615,4.4615,4.4615,4.4615,4.4615,4.4615,4.4615,4.4615,4.4615,4.4615,4.4615,4.506,4.6075,4.6549,4.7327,4.8308,4.8781,4.9018,6.4038,6.4647,6.5053,6.6474,6.6779,6.6576,6.5865,6.5628,6.5155,6.37,6.3396,6.3159,6.2313,6.2854,6.3666,6.4377,6.5155,6.5967,6.6711,6.5595,6.4715,6.4647,6.4038,6.3599,6.3565,6.3599,6.3869,6.4512,6.5189,6.529,6.4647,6.5222,6.4952,6.3565,6.3463,6.3125,6.2381,6.2381,6.2381,6.2381,6.2381,6.2381,6.2381,6.2381,6.2381,6.2279,6.1569,6.1231,6.1129,6.0317,5.9573,5.8964,5.8964,5.8524,5.7881,5.7881,5.7881,5.7881,5.7881,5.7881,5.7881,5.7881,5.69,5.5681,5.5681,5.4668,5.3518,5.3518,5.3518,5.3518,5.3518,5.2875,5.2063,5.1386,5.0608,4.983,4.9154,4.9018,4.9018,4.9018,4.9018,4.8984,4.8951,4.7733,4.6312,4.4886,4.4615,4.4615,4.4615,4.4615,4.4615,4.4615,4.4615,4.4615,4.4615,4.4615,4.4615,4.4615,4.4615,4.4615,4.4615,4.4615,4.4615,4.4682,4.4682,4.5393,4.6853,4.6853,4.7597,4.9018,4.9018,4.9018,6.4444,6.5392,6.6339,6.6711,6.6406,6.5933,6.573,6.485,6.3632,6.2178,6.1873,6.1298,5.9404,6.1028,6.2719,6.2922,6.4478,6.5967,6.6711,6.6508,6.6034,6.5459,6.5256,6.4918,6.4377,6.4816,6.4749,6.3869,6.3971,6.4241,6.458,6.4275,6.3903,6.3531,6.2956,6.2584,6.2381,6.2381,6.2381,6.2381,6.2381,6.2381,6.2381,6.2381,6.211,6.1535,6.0757,6.008,5.9539,5.8761,5.8355,5.8186,5.8186,5.8051,5.7881,5.7881,5.7881,5.7881,5.7881,5.7881,5.7881,5.7881,5.69,5.5681,5.5681,5.4668,5.3518,5.3518,5.3518,5.3518,5.3518,5.2503,5.1454,5.1251,5.0236,4.9221,4.9052,4.9018,4.9018,4.9018,4.9018,4.8849,4.8274,4.7428,4.6481,4.5568,4.4925,4.4615,4.4615,4.4615,4.4615,4.4615,4.4615,4.4615,4.4615,4.4615,4.4615,4.4615,4.4615,4.4615,4.4615,4.4615,4.4886,4.5399,4.5432,4.6143,4.7631,4.7631,4.8105,4.9018,4.9018,4.9018,6.5392,6.617,6.6812,6.6812,6.6237,6.5425,6.4444,6.3362,6.1941,5.9776,5.9336,5.8829,5.7239,5.9099,6.1129,6.1806,6.3768,6.5595,6.6677,6.6542,6.617,6.573,6.5696,6.5527,6.5121,6.5459,6.5222,6.4072,6.4275,6.4208,6.3666,6.3565,6.3362,6.3024,6.2618,6.2381,6.2381,6.2381,6.2381,6.2381,6.2381,6.2381,6.2381,6.2042,6.167,6.1231,0.0,5.9404,5.8964,5.8186,5.7881,5.7881,5.7881,5.7881,5.7881,5.7881,5.7881,5.7881,5.7881,5.7881,5.7881,5.7881,5.69,5.5681,5.5681,5.4668,5.3518,5.3518,5.3518,5.3518,5.3518,5.2604,5.1623,5.1285,5.0338,4.939,4.9086,4.9018,4.9018,4.9018,4.9018,4.8781,4.8007,4.7564,4.7022,4.6278,4.5568,4.506,4.506,4.4818,4.4615,4.4615,4.4615,4.4615,4.4615,4.4615,4.4615,4.4615,4.4615,4.4615,4.4615,4.4891,4.5263,4.5703,4.6007,4.6752,4.7906,4.7906,4.8277,4.9018,4.9018,4.9018,6.6576,6.688,6.6812,6.6812,6.6102,6.4884,6.2854,6.1603,6.0047,5.7239,5.6664,5.6393,5.5581,5.7306,5.9336,6.0757,6.2854,6.485,6.644,6.6102,6.573,6.5831,6.5831,6.5831,6.5831,6.5831,6.5493,6.4647,6.5189,6.4613,6.2516,6.3024,6.3057,6.2415,6.2381,6.2381,6.2381,6.2381,6.2381,6.2381,6.2381,6.2381,6.2347,6.1637,6.1231,6.1061,5.9641,0.0,5.8829,5.8152,5.7881,5.7881,5.7881,5.7881,5.7881,5.7881,5.7881,5.7881,5.7881,5.7881,5.7881,5.7881,5.69,5.5681,5.5681,5.4668,5.3518,5.3518,5.3518,5.3518,5.3518,5.2909,5.2131,5.1386,5.0642,4.9898,4.9154,4.9018,4.9018,4.9018,4.9018,4.8815,4.8173,4.7939,4.7699,4.7022,4.6312,4.5805,4.5703,4.506,4.4615,4.4615,4.4615,4.4615,4.4615,4.4615,4.4615,4.4615,4.4615,4.4615,4.4615,4.5297,4.5771,4.5838,4.6583,4.7327,4.8041,4.8041,4.8376,4.9018,4.9018,4.9018,6.7489,6.7252,6.6812,6.6812,6.5358,6.3632,6.2618,6.0351,5.7983,5.6258,5.5919,5.548,5.4126,5.619,5.8389,5.9268,6.1298,6.3497,6.5595,6.5764,6.5933,6.6542,6.6609,6.6609,6.6609,6.6609,6.6068,6.4715,6.4715,6.4072,6.2482,6.2516,6.2516,6.2381,6.2381,6.2381,6.2381,6.2381,6.2381,6.2381,6.2381,6.2381,6.2347,6.1637,6.0926,6.025,5.9404,0.0,5.8084,5.7949,5.7881,5.7881,5.7881,5.7881,5.7881,5.7881,5.7881,5.7881,5.7881,5.7881,5.7881,5.7881,5.69,5.5681,5.5681,5.4668,5.3518,5.3518,5.3518,5.3518,5.3518,5.2909,5.2131,5.1386,5.0642,4.9898,4.9154,4.9018,4.9018,4.9018,4.9018,4.8951,4.8849,4.8308,4.7838,4.7733,4.709,4.638,4.5771,4.506,4.4615,4.4615,4.4615,4.4615,4.4615,4.4615,4.4615,4.4615,4.4615,4.4615,4.4615,4.5297,4.6007,4.6583,4.7327,4.8071,4.8815,4.8815,4.8883,4.9018,4.9018,4.9018,6.7793,6.7658,6.7286,6.6914,6.5155,6.3125,6.1535,5.9201,5.6799,5.4938,5.4566,5.4363,5.3653,5.5277,5.7137,5.8254,5.9979,6.1975,6.4241,6.4884,6.5392,6.6136,6.6576,6.6812,6.6812,6.644,6.5797,6.4681,6.4241,6.3565,6.2448,6.2381,6.2381,6.2381,6.2381,6.2381,6.2381,6.2381,6.2381,6.2381,6.2381,6.2381,6.2347,6.1637,6.0858,6.0047,5.9336,0.0,5.7881,5.7881,5.7881,5.7881,5.7881,5.7881,5.7881,5.7881,5.7881,5.7881,5.7881,5.7881,5.7881,5.7881,5.69,5.5681,5.5681,5.4668,5.3518,5.3518,5.3518,5.3518,5.3518,5.3213,5.2638,5.1488,5.0338,4.9424,4.9086,4.9018,4.9018,4.9018,4.9018,4.9018,4.9018,4.8714,4.8477,4.8477,4.7834,4.7259,4.6887,4.621,4.5461,4.4682,4.4615,4.4615,4.4615,4.4615,4.4615,4.4615,4.4959,4.5162,4.5162,4.6244,4.7022,4.7361,4.8105,4.8646,4.9018,4.9018,4.9018,4.9018,4.9018,4.9018,6.7895,6.7895,6.7726,6.6981,6.5019,6.2719,6.0588,5.8287,5.5987,5.3923,5.3518,5.3518,5.3518,5.46,5.5953,5.7408,5.8761,6.0486,6.2922,6.3903,6.4681,6.5561,6.6339,6.6812,6.6812,6.6136,6.5392,6.4647,6.3768,6.3024,6.2415,6.2381,6.2381,6.2381,6.2381,6.2381,6.2381,6.2381,6.2381,6.2381,6.2381,6.2381,6.2347,6.1637,6.096,6.0317,5.9404,0.0,0.0,5.7949,5.7881,5.7881,5.7881,5.7881,5.7881,5.7881,5.7881,5.7881,5.7881,5.7881,5.7881,5.7881,5.69,5.5681,5.5681,5.4668,5.3518,5.3518,5.3518,5.3518,5.3518,5.3382,5.2875,5.1352,4.9965,4.9018,4.9018,4.9018,4.9018,4.9018,4.9018,4.9018,4.9018,4.9018,4.9018,4.9018,4.8511,4.8075,4.7906,4.7394,4.6515,4.5224,4.4953,4.4784,4.4615,4.475,4.4852,4.4852,4.5534,4.594,4.594,4.7225,4.7906,4.7906,4.8646,4.9018,4.9018,4.9018,4.9018,4.9018,4.9018,4.9018,6.7895,6.7895,6.7726,6.6981,6.4647,6.2076,6.0452,5.7881,5.5378,5.3822,5.3518,5.3518,5.3518,5.416,5.5175,5.6664,5.7577,5.9133,6.2076,6.3159,6.414,6.5527,6.6339,6.6812,6.6812,6.6136,6.5392,6.4647,6.3294,6.2448,6.2381,6.2381,6.2381,6.2381,6.2381,6.2381,6.2381,6.2381,6.2381,6.2381,6.2381,6.2381,6.2347,6.1637,6.1264,6.1129,5.9641,0.0,0.0,5.8186,5.7881,5.7881,5.7881,5.7881,5.7881,5.7881,5.7881,5.7881,5.7881,5.7881,5.7881,5.7881,5.69,5.5681,5.5681,5.4668,5.3518,5.3518,5.3518,5.3518,5.3518,5.2976,5.2029,5.0541,4.9593,4.9018,4.9018,4.9018,4.9018,4.9018,4.9018,4.9018,4.9018,4.9018,4.9018,4.9018,4.8951,4.868,4.7973,4.7838,4.7496,4.6684,4.6007,4.5331,4.4682,4.5196,4.5602,4.5602,4.6278,4.6684,4.6684,4.7496,4.7906,4.7906,4.8646,4.9018,4.9018,4.9018,4.9018,4.9018,4.9018,4.9018,6.8368,6.8605,6.8436,6.7658,6.4918,6.1975,6.0452,5.7814,5.531,5.3822,5.3518,5.3518,5.3518,5.3754,5.4262,5.531,5.5716,5.663,5.8727,6.0047,6.1535,6.3463,6.4749,6.5831,6.6711,6.573,6.4546,6.3362,6.2719,6.2381,6.2381,6.2381,6.2381,6.2381,6.2381,6.2381,6.2381,6.2381,6.2381,6.2381,6.2381,6.2381,6.2381,6.2076,6.1467,6.0554,5.9945,0.0,0.0,5.849,5.8287,5.7915,5.8389,5.8287,5.7881,5.7881,5.7881,5.7881,5.7881,5.7881,5.7814,5.7374,5.6562,5.5681,5.5681,5.4668,5.3518,5.3518,5.3518,5.3518,5.3518,5.257,5.1386,5.0338,4.9526,4.9018,4.9018,4.9018,4.9018,4.9018,4.9018,4.9018,4.9018,4.9018,4.9018,4.9018,4.9018,4.8883,4.8612,4.8578,4.8274,4.7564,4.6819,4.6244,4.594,4.6177,4.6346,4.6346,4.7056,4.7462,4.7462,4.8173,4.8578,4.8578,4.8849,4.9018,4.9018,4.9018,4.9018,4.9018,4.9018,4.9018,6.7523,6.8267,6.8504,6.7489,6.4783,6.1941,6.0182,5.7679,5.531,5.3822,5.3518,5.3518,5.3518,5.3518,5.3754,5.4465,5.46,5.5175,5.69,5.822,5.9776,6.1839,6.299,6.4208,6.5696,6.4884,6.3768,6.2482,6.2381,6.2381,6.2381,6.2381,6.2381,6.2381,6.2381,6.2381,6.2381,6.2381,6.2381,6.2381,6.2381,6.2381,6.2381,6.2381,6.1806,6.0757,6.0283,0.0,0.0,5.8727,5.849,5.8254,5.8558,5.8355,5.7881,5.7881,5.7881,5.7881,5.7881,5.7881,5.778,5.7036,5.6325,5.5683,5.5446,5.4499,5.3518,5.3518,5.3518,5.345,5.3213,5.2198,5.1014,5.027,4.9526,4.9018,4.9018,4.9018,4.9018,4.9018,4.9018,4.9018,4.9018,4.9018,4.9018,4.9018,4.9018,4.9018,4.9018,4.9018,4.8815,4.8277,4.7767,4.7259,4.6819,4.6989,4.7124,4.7124,4.7834,4.824,4.824,4.8714,4.9018,4.9018,4.9018,4.9018,4.9018,4.9018,4.9018,4.9018,4.9018,4.912,6.485,6.6237,6.7557,6.6068,6.4038,6.1806,5.9539,5.727,5.531,5.3822,5.3518,5.3518,5.3518,5.3518,5.3754,5.4465,5.46,5.5344,5.7577,5.8524,5.9573,6.1129,6.1332,6.1907,6.3396,6.3531,6.3193,6.2448,6.2381,6.2381,6.2381,6.2381,6.2381,6.2381,6.2381,6.2381,6.2381,6.2381,6.2381,6.2381,6.2381,6.2381,6.2381,6.2381,6.2381,6.2279,0.0,0.0,0.0,5.8829,5.8355,5.893,5.8186,5.7881,5.7881,5.7881,5.7881,5.7881,5.7881,5.7881,5.778,5.7036,5.6325,5.5581,5.4837,5.4093,5.3518,5.3518,5.3518,5.3315,5.2536,5.1758,5.1014,5.027,4.9526,4.9018,4.9018,4.9018,4.9018,4.9018,4.9018,4.9018,4.9018,4.9018,4.9018,4.9018,4.9018,4.9018,4.9018,4.9018,4.9018,4.8984,4.8984,4.8376,4.6921,4.7496,4.7872,4.7872,4.8578,4.8984,4.8984,4.9018,4.9018,4.9018,4.9018,4.9018,4.9018,4.9018,4.9018,4.9018,4.9018,4.939,6.3632,6.4377,6.4783,6.4309,6.2516,6.0385,5.8626,5.6934,5.531,5.3822,5.3518,5.3518,5.3518,5.3518,5.3754,5.4465,5.46,5.5006,5.6224,5.7476,5.8998,6.1061,6.3091,6.4072,6.3565,6.3531,6.3193,6.2448,6.2381,6.2381,6.2381,6.2381,6.2381,6.2381,6.2381,6.2381,6.2381,6.2381,6.2381,6.2381,6.2381,6.2381,6.2381,6.1873,6.1637,0.0,0.0,0.0,0.0,5.9505,5.8964,5.8287,5.8558,5.8355,5.7881,5.7881,5.7881,5.7881,5.7881,5.7577,5.7036,5.6292,5.5547,5.4803,5.4059,5.3687,5.3518,5.3518,5.3518,5.3315,5.2503,5.1758,5.1014,5.027,4.9526,4.9018,4.9018,4.9018,4.9018,4.9018,4.9018,4.9018,4.9018,4.9018,4.9018,4.9018,4.9018,4.9018,4.9018,4.9018,4.9018,4.9018,4.9018,4.8815,4.8342,4.8511,4.8646,4.8646,4.8883,4.9018,4.9018,4.9018,4.9018,4.9018,4.9018,4.9018,4.9018,4.9018,4.9255,4.9729,4.9729,5.0135,6.167,6.2651,6.3024,6.2753,6.1163,5.9302,5.7814,5.6325,5.4972,5.3754,5.3518,5.3518,5.3518,5.3518,5.3653,5.4093,5.416,5.4532,5.5581,5.6731,5.822,6.0216,6.2584,6.3565,6.2347,6.2753,6.2888,6.2415,6.2381,6.2381,6.2381,6.2381,6.2381,6.2381,6.2381,6.2381,6.2381,6.2381,6.2381,6.2381,6.211,6.1975,6.1941,6.1197,6.0858,0.0,0.0,0.0,0.0,5.9742,5.9302,5.8727,5.8626,5.8287,5.7881,5.7881,5.7881,5.7881,5.7881,5.7408,5.6697,5.5953,5.5006,5.4093,5.3653,5.3518,5.3518,5.3518,5.3518,5.3382,5.2875,5.1995,5.105,5.0608,4.9729,4.9018,4.9018,4.9018,4.9018,4.9018,4.9018,4.9018,4.9018,4.9018,4.9018,4.9018,4.9018,4.9018,4.9018,4.9018,4.9018,4.9018,4.9018,4.9018,4.9018,4.9018,4.9018,4.9018,4.9018,4.9018,4.9018,4.9018,4.9018,4.9018,4.9018,4.9018,4.9018,4.9289,4.9661,5.0101,5.0371,5.0913,0.0,6.0825,6.1738,6.1061,5.9844,5.8389,5.6968,5.5581,0.0,5.3653,5.3518,5.3518,5.3518,5.3518,5.3518,5.3585,5.3585,5.4093,5.5581,5.6562,5.7645,5.9099,6.0554,6.1129,6.0351,6.1535,6.2381,6.2381,6.2381,6.2381,6.2381,6.2381,6.2381,6.2381,6.2381,6.2381,6.2381,6.2347,6.2347,6.2381,6.1637,6.1298,6.1264,6.0452,6.0114,0.0,0.0,0.0,0.0,5.9674,5.9438,5.981,5.8423,5.7881,5.7881,5.7881,5.7881,5.7881,5.7814,5.734,5.6596,5.5818,5.4634,5.3518,5.3518,5.3518,5.3518,5.3518,5.3518,5.3518,5.3518,5.2367,5.1185,5.1185,5.0067,4.9018,4.9018,4.9018,4.9018,4.9018,4.9018,4.9018,4.9018,4.9018,4.9018,4.9018,4.9018,4.9018,4.9018,4.9018,4.9018,4.9018,4.9018,4.9018,4.9018,4.9018,4.9018,4.9018,4.9018,4.9018,4.9018,4.9018,4.9018,4.9018,4.9018,4.9018,4.9086,4.9763,5.0135,5.027,5.098,5.1691,5.6393,0.0,5.7239,5.707,5.6765,5.6258,0.0,5.4837,5.4397,5.3653,5.3518,5.3518,5.3518,5.3518,5.3687,5.4262,5.4329,5.4871,5.6325,5.8693,6.0588,6.1501,6.2415,6.2685,6.1907,6.2178,6.2381,6.2381,6.2381,6.2381,6.2381,6.2381,6.2381,6.2381,6.2381,6.2381,6.2381,6.1839,6.1839,6.2381,6.1637,6.1298,6.1264,6.0452,6.0114,0.0,0.0,0.0,5.9573,5.9776,5.9268,5.8389,5.8017,5.7881,5.7881,5.7881,5.7881,5.7814,5.7239,5.6596,5.575,5.4465,5.3788,5.3518,5.3518,5.3518,5.3518,5.3518,5.3518,5.3518,5.3518,5.2367,5.1185,5.1185,5.0067,4.9018,4.9018,4.9018,4.9018,4.9018,4.9018,4.9018,4.9018,4.9018,4.9018,4.9018,4.9018,4.9018,4.9018,4.9018,4.9018,4.9018,4.9018,4.9018,4.9018,4.9018,4.9018,4.9018,4.9018,4.9018,4.9018,4.9018,4.9018,4.9018,4.9018,4.9289,4.983,4.9999,5.0676,5.1792,5.1961,5.2469,5.46,5.5683,5.6697,5.6697,5.6461,5.6122,5.5683,5.4803,5.3991,5.3585,5.3518,5.3518,5.3518,5.3518,5.3619,5.4025,5.4363,5.5344,5.7509,5.9505,6.1163,6.2245,6.2753,6.2854,6.2415,6.2381,6.2381,6.2381,6.2381,6.2381,6.2381,6.2381,6.2381,6.2381,6.2381,6.2245,6.1907,6.1501,6.1332,6.1332,6.0622,6.025,6.0216,5.9438,5.9099,0.0,0.0,0.0,5.9066,5.981,5.9438,5.8355,5.8017,5.7881,5.7881,5.7881,5.7881,5.778,5.707,5.6089,5.5006,5.389,5.3518,5.3518,5.3518,5.3518,5.3518,5.3518,5.3518,5.3518,5.3518,5.2604,5.1623,5.1285,5.0338,4.939,4.9086,4.9018,4.9018,4.9018,4.9018,4.9018,4.9018,4.9018,4.9018,4.9018,4.9018,4.9018,4.9018,4.9018,4.9018,4.9018,4.9018,4.9018,4.9018,4.9018,4.9018,4.9018,4.9018,4.9018,4.9018,4.9018,4.9018,4.9018,4.9018,4.9357,5.0101,5.0439,5.1183,5.23,5.2672,5.3078,5.3653,5.575,5.778,5.734,5.6833,5.6427,5.6325,5.4837,5.3518,5.3518,5.3518,5.3518,5.3518,5.3585,5.3687,5.3687,5.4465,5.6021,5.866,5.9742,6.0791,6.2212,6.2381,6.2381,6.2381,6.2381,6.2381,6.2381,6.2381,6.2381,6.2381,6.2381,6.2381,6.2381,6.2381,6.1975,6.1129,6.1129,6.0757,6.008,5.937,5.9032,5.8998,5.8355,5.8017,5.7983,0.0,0.0,5.8896,5.9641,5.9505,5.8795,5.8152,5.7881,5.7881,5.7881,5.7814,5.7611,5.6765,5.5581,5.4329,5.3687,5.3518,5.3518,5.3518,5.3518,5.3518,5.3518,5.3518,5.3518,5.3518,5.2909,5.2131,5.1386,5.0642,4.9898,4.9154,4.9018,4.9018,4.9018,4.9018,4.9018,4.9018,4.9018,4.9018,4.9018,4.9018,4.9018,4.9018,4.9018,4.9018,4.9018,4.9018,4.9018,4.9018,4.9018,4.9018,4.9018,4.9018,4.9018,4.9018,4.9018,4.9018,4.9018,4.912,4.9526,5.027,5.1014,5.1758,5.2503,5.3179,5.3518,5.4262,5.6122,5.7306,5.4803,5.4566,5.4769,5.416,5.3754,5.3518,5.3518,5.3518,5.3518,5.3518,5.4025,5.4431,5.4431,5.6089,5.778,5.8863,6.0216,6.1434,6.2279,6.2381,6.2381,6.2381,6.2381,6.2381,6.2381,6.2381,6.2381,6.2381,6.2381,6.2381,6.2381,6.2381,6.1704,6.0317,6.0283,6.0216,6.008,5.937,5.9032,5.9032,5.8896,5.849,5.7949,0.0,5.8761,5.8118,5.8863,5.8727,5.8051,5.7915,5.7881,5.7881,5.7881,5.7476,5.6765,5.5412,5.4363,5.3653,5.3551,5.3518,5.3518,5.3518,5.3518,5.3518,5.3518,5.3518,5.3518,5.3518,5.2909,5.2131,5.1386,5.0642,4.9898,4.9154,4.9018,4.9018,4.9018,4.9018,4.9018,4.9018,4.9018,4.9018,4.9018,4.9018,4.9018,4.9018,4.9018,4.9018,4.9018,4.9018,4.9018,4.9018,4.9018,4.9018,4.9018,4.9018,4.9018,4.9018,4.9018,4.9018,4.9018,4.9593,5.0304,5.1048,5.1792,5.2536,5.3315,5.345,5.3518,5.3923,5.504,5.5886,5.4938,5.6156,5.7374,5.6664,5.5852,5.5074,5.4262,5.4093,5.4093,5.4093,5.4363,5.4972,5.619,5.7577,5.8896,6.008,6.0858,6.1569,6.2313,6.2381,6.2381,6.2381,6.2381,6.2381,6.2381,6.2381,6.2381,6.2381,6.2381,6.2381,6.2381,6.2381,6.1637,6.0114,6.0114,5.9708,5.8896,5.8558,5.8423,5.8423,5.8423,5.822,5.7915,0.0,5.8592,5.7949,5.8693,5.8558,5.7881,5.7881,5.7881,5.7848,5.7442,5.6833,5.6055,5.4972,5.4126,5.3518,5.3518,5.3518,5.3518,5.3518,5.3518,5.3518,5.3518,5.3518,5.3518,5.3518,5.3247,5.2739,5.1995,5.1251,5.0507,4.9763,4.9289,4.9018,4.9018,4.9018,4.9018,4.9018,4.9018,4.9018,4.9018,4.9018,4.9018,4.9018,4.9018,4.9018,4.9018,4.9018,4.9018,4.9018,4.9018,4.9018,4.9018,4.9018,4.9018,4.9018,4.939,4.9593,4.9593,5.0304,5.1048,5.1792,5.2131,5.2706,5.3518,5.3518,5.3518,5.3721,5.4296,5.504,5.5784,5.7408,5.8795,5.8761,5.7611,5.6292,5.531,5.5108,5.504,5.4871,5.5141,5.5987,5.7848,5.893,5.9945,6.1129,6.1467,6.1772,6.2313,6.2381,6.2381,6.2381,6.2381,6.2381,6.2381,6.2381,6.2381,6.2381,6.2381,6.2313,6.2144,6.2144,6.14,5.9877,5.9844,5.9201,5.7881,5.7881,5.7881,5.7881,5.7881,5.7881,5.7915,5.849,5.8423,5.7915,5.8524,5.8423,5.7881,5.7881,5.7881,5.7814,5.707,5.6325,5.5615,5.4871,5.4126,5.3518,5.3518,5.3518,5.3518,5.3518,5.3518,5.3518,5.3518,5.3518,5.3518,5.3518,5.3518,5.3315,5.2503,5.186,5.1285,5.0507,4.9898,4.9458,4.9289,4.9255,4.9187,4.9052,4.9018,4.9018,4.9018,4.9018,4.9018,4.9018,4.9154,4.9255,4.9255,4.9255,4.9255,4.9255,4.9255,4.9323,4.9526,4.9187,4.9086,4.9255,4.9796,5.0168,5.0338,5.1082,5.1758,5.23,5.2503,5.2909,5.3518,5.3518,5.3518,5.4329,5.5074,5.5818,5.6562,5.5852,5.5513,5.7509,5.6833,5.5953,5.6528,5.663,5.6427,5.575,5.6731,5.7949,5.8795,6.0182,6.1163,6.1298,6.1873,6.2347,6.2381,6.2381,6.2381,6.2381,6.2381,6.2381,6.2381,6.2381,6.2381,6.2381,6.2381,6.2076,6.14,6.1366,6.0655,5.9099,5.9099,5.8693,5.7881,5.7881,5.7881,5.7881,5.7881,5.7881,5.7881,5.7949,5.7949,5.7881,5.7949,5.7949,5.7881,5.7881,5.7881,5.7814,5.707,5.6325,5.5615,5.4871,5.4126,5.3518,5.3518,5.3518,5.3518,5.3518,5.3518,5.3518,5.3518,5.3518,5.3518,5.3518,5.3518,5.3315,5.2503,5.2266,5.2029,5.1285,5.105,5.0845,5.0135,4.9999,4.9796,4.912,4.9018,4.9018,4.9018,4.9018,4.9018,4.9018,4.9593,4.9999,4.9999,4.9999,4.9999,4.9999,4.9999,5.0304,5.1014,4.9763,4.9323,4.9965,5.0067,5.0405,5.1116,5.186,5.2266,5.23,5.3044,5.345,5.3518,5.3518,5.3518,5.3078,5.3754,5.4532,5.5243,5.5344,5.5852,5.8084,5.8524,5.8389,5.822,5.8524,5.8355,5.6697,5.7949,5.9201,5.9032,6.0689,6.1975,6.1975,6.2212,6.2381,6.2381,6.2381,6.2381,6.2381,6.2381,6.2381,6.2381,6.2381,6.2381,6.2381,6.2381,6.2042,6.1332,6.1298,6.0554,5.9032,5.9032,5.8626,5.7881,5.7881,5.7881,5.7881,5.7881,5.7881,5.7881,5.7881,5.7881,5.7881,5.7881,5.7881,5.7881,5.7881,5.7881,5.7814,5.707,5.6325,5.5615,5.4871,5.4126,5.3518,5.3518,5.3518,5.3518,5.3518,5.3518,5.3518,5.3518,5.3518,5.3518,5.3518,5.3518,5.3416,5.3112,5.2672,5.2363,5.2475,5.2155,5.1833,5.1944,5.1963,5.1893,5.1581,5.1546,5.1546,5.1546,5.1546,5.1546,5.1546,5.1789,5.1815,5.1463,5.1031,5.0777,5.0777,5.0777,5.0913,5.1151,5.071,5.0507,5.0777,5.1217,5.1589,5.1894,5.2672,5.3044,5.3044,5.3348,5.3518,5.3518,5.3518,5.3518,5.2367,5.2875,5.3687,5.4397,5.4972,5.5987,5.8457,5.9573,6.008,6.008,5.9911,5.9302,5.778,5.8727,5.9674,5.9404,6.1061,6.2381,6.2381,6.2381,6.2381,6.2381,6.2381,6.2381,6.2381,6.2381,6.2381,6.2381,6.2381,6.2381,6.2381,6.2381,6.1941,6.096,6.0926,6.0182,5.8693,5.866,5.8389,5.7881,5.7881,5.7881,5.7881,5.7881,5.7881,5.7881,5.7881,5.7881,5.7881,5.7881,5.7881,5.7881,5.7881,5.7881,5.7814,5.734,5.6528,5.5649,5.5108,5.4296,5.3518,5.3518,5.3518,5.3518,5.3518,5.3518,5.3518,5.3518,5.3518,5.3518,5.3518,5.3518,5.3551,5.3717,5.3341,5.3126,5.3818,5.3554,5.3251,5.3408,5.3458,5.3352,5.3134,5.3099,5.3099,5.3099,5.3099,5.3099,5.3099,5.3282,5.3287,5.285,5.2248,5.1843,5.1843,5.1685,5.1657,5.1928,5.1928,5.1826,5.1589,5.2029,5.2435,5.2672,5.3213,5.3518,5.3518,5.3518,5.3518,5.3518,5.3518,5.3518,5.2503,5.2875,5.3653,5.4397,5.46,5.5378,5.8355,5.9573,6.0554,6.2076,6.0622,5.9032,5.9032,5.9032,5.9268,5.9979,6.14,6.2381,6.2381,6.2381,6.2381,6.2381,6.2381,6.2381,6.2381,6.2381,6.2381,6.2381,6.2381,6.2381,6.2381,6.2381,6.1704,6.0148,6.0114,5.9404,5.7915,5.7881,5.7881,5.7881,5.7881,5.7881,5.7881,5.7881,5.7881,5.7881,5.7881,5.7881,5.7881,5.7881,5.7881,5.7881,5.7881,5.7881,5.7881,5.7881,5.6968,5.5681,5.5716,5.4735,5.3518,5.3518,5.3518,5.3518,5.3518,5.3518,5.3518,5.3518,5.3518,5.3518,5.3518,5.3518,5.3651,5.4267,5.4391,5.4579,5.5249,5.5432,5.5186,5.4378,5.4237,5.402,5.3275,5.3134,5.3134,5.3134,5.3134,5.3134,5.3134,5.3774,5.4237,5.4237,5.3649,5.3287,5.3287,5.269,5.2672,5.345,5.3518,5.3145,5.2334,5.23,5.2706,5.3484,5.3518,5.3518,5.3518,5.3518,5.3518,5.3518,5.3518,5.3518,5.0947,5.1691,5.2706,5.2942,5.4972,5.7273,5.8693,5.9573,6.0689,6.2753,6.1806,6.0452,5.9877,6.025,6.052,6.0148,6.14,6.2381,6.2381,6.2381,6.2381,6.2381,6.2381,6.2381,6.2381,6.2381,6.2381,6.2381,6.2381,6.2381,6.2381,6.2381,6.1941,6.096,6.0385,5.9641,5.8693,5.8152,5.7881,5.7881,5.7881,5.7881,5.7881,5.7881,5.7881,5.7881,5.7881,5.7881,5.7881,5.7881,5.7881,5.7881,5.7881,5.7881,5.7881,5.7881,5.6968,5.5786,5.6167,5.5076,5.3551,5.4011,5.3849,5.3518,5.3518,5.3518,5.3518,5.3518,5.3518,5.3518,5.3518,5.3518,5.3651,5.4267,5.4391,5.4703,5.5801,5.6035,5.6103,5.6259,5.6328,5.6257,5.6005,5.5995,5.5995,5.5995,5.5995,5.5995,5.5995,5.5776,5.5504,5.5109,5.4448,5.3891,5.3476,5.3246,5.3247,5.3484,5.3518,5.3382,5.3145,5.3145,5.3281,5.3518,5.3518,5.3518,5.3518,5.3518,5.3518,5.3518,5.3518,5.3518,5.1082,5.2063,5.3348,5.3957,5.6021,5.8254,5.9607,6.0723,6.1839,6.3226,6.2347,6.1163,6.0655,6.0723,6.0757,6.0588,6.1603,6.2381,6.2381,6.2381,6.2381,6.2381,6.2381,6.2381,6.2381,6.2381,6.2381,6.2381,6.2381,6.2381,6.2381,6.211,6.1603,6.0858,6.008,5.9302,5.8592,5.8118,5.7881,5.7881,5.7881,5.7881,5.7881,5.7881,5.7881,5.7881,5.7881,5.7881,5.7881,5.7881,5.7881,5.7848,5.7577,5.7442,5.7408,5.7137,5.6434,5.5689,5.6022,5.5329,5.4269,5.4359,5.4139,5.3816,5.3551,5.3518,5.3518,5.3518,5.3518,5.3518,5.3518,5.3685,5.4011,5.4641,5.4795,5.5159,5.6393,5.6635,5.6776,5.7138,5.7188,5.7188,5.7188,5.7188,5.7188,5.7188,5.7188,5.7188,5.7188,5.6907,5.6528,5.6138,5.5543,5.5009,5.4645,5.4397,5.4237,5.4237,5.3979,5.3882,5.3882,5.3618,5.3518,5.3518,5.3518,5.3518,5.3518,5.3518,5.3518,5.3518,5.3518,5.3518,5.2198,5.3315,5.4871,5.6427,5.7509,5.8798,6.0969,6.2566,6.3475,6.3396,6.2347,6.14,6.14,6.0791,6.0554,6.1298,6.1941,6.2381,6.2381,6.2381,6.2381,6.2381,6.2381,6.2381,6.2381,6.2381,6.2381,6.2381,6.2381,6.2347,6.2279,6.167,6.0926,6.0114,5.9404,5.8693,5.8017,5.7915,5.7881,5.7881,5.7881,5.7881,5.7881,5.7881,5.7881,5.7881,5.7881,5.7881,5.7881,5.7881,5.7848,5.7712,5.707,5.6765,5.663,5.5953,5.5621,5.5497,5.5561,5.5518,5.5313,5.4765,5.4485,5.4296,5.375,5.3517,5.3518,5.3518,5.3517,5.3584,5.3584,5.4044,5.4672,5.5308,5.549,5.5773,5.6959,5.7188,5.7188,5.7188,5.7188,5.7188,5.7188,5.7188,5.7188,5.7188,5.7188,5.7188,5.7188,5.7188,5.7163,5.7112,5.6608,5.6284,5.6229,5.5722,5.5402,5.5402,5.4765,5.4391,5.4391,5.3816,5.3518,5.3518,5.3518,5.3518,5.3518,5.3518,5.3518,5.3518,5.3518,5.3518,5.1454,5.257,5.4228,5.6292,5.8693,6.1015,6.2641,6.3271,6.3357,6.2775,6.2381,6.2144,6.2144,6.2009,6.1941,6.2144,6.2279,6.2381,6.2381,6.2381,6.2381,6.2381,6.2381,6.2381,6.2381,6.2381,6.2381,6.2381,6.2381,6.2144,6.1569,6.14,6.0926,6.0114,5.9404,5.893,5.8761,5.8186,5.7881,0.0,5.7881,5.7881,5.7881,5.7881,5.7881,5.7881,5.7881,5.7881,5.7881,5.7881,5.7543,5.7036,5.6867,5.6461,5.5919,5.5784,5.5621,5.5561,5.6098,5.5914,5.5461,5.5773,5.5184,5.4391,5.4267,5.3882,5.3518,5.3518,5.3849,5.4203,5.4203,5.4672,5.5337,5.5978,5.6118,5.6311,5.7036,5.7188,5.7188,5.7188,5.7188,5.7188,5.7188,5.7188,5.7188,5.7188,5.7188,5.7188,5.7188,5.7188,5.7036,5.6528,5.6366,5.6118,5.5636,5.549,5.5402,5.5402,5.4765,5.4391,5.4391,5.3816,5.3518,5.3518,5.3518,5.3518,5.3518,5.3518,5.3518,5.3518,5.3518,5.3518,5.1083,5.2604,5.4735,5.7645,6.0114,6.2024,6.2787,6.2969,6.2931,6.2928,6.3233,6.3271,6.2537,6.2969,6.3233,6.2537,6.2697,6.2813,6.2459,6.2076,6.2009,6.2347,6.2076,6.2009,6.2347,6.2381,6.2381,6.2381,6.2381,6.2076,6.1332,6.0926,6.0385,5.9607,5.8863,5.8457,5.8457,5.8084,5.7881,5.7881,5.7881,5.7881,5.7881,5.7881,5.7881,5.7881,5.7881,5.7881,5.7848,5.7509,5.7137,5.6731,5.6021,5.5513,5.5141,5.4803,5.4968,5.5479,5.5844,5.6062,5.6284,5.6284,5.5858,5.5219,5.4579,5.4171,5.3848,5.3584,5.3717,5.4044,5.4328,5.4887,5.5578,5.6174,5.6311,5.6474,5.7061,5.7188,5.7188,5.7188,5.7188,5.7188,5.7188,5.7188,5.7188,5.7188,5.7188,5.7188,5.7188,5.7188,5.7087,5.674,5.6714,5.6608,5.6311,5.6248,5.6248,5.6248,5.5396,5.4887,5.4887,5.3979,5.3518,5.3518,5.3518,5.3518,5.3518,5.3518,5.3518,5.3518,5.3518,5.3687,5.071,5.2773,5.5615,5.9066,6.1061,6.2251,6.2373,6.2513,6.2774,6.3383,6.3897,6.3934,6.2931,6.3679,6.4005,6.2774,6.3083,6.3233,6.2498,6.1873,6.1704,6.2313,6.1873,6.1738,6.2347,6.2381,6.2381,6.2381,6.2381,6.2009,6.1129,6.0452,5.9708,5.8863,5.822,5.7881,5.7881,5.7881,5.7881,5.7881,5.7881,5.7881,5.7881,5.7881,5.7881,5.7881,5.7881,5.7881,5.7814,5.7103,5.6731,5.6494,5.5108,5.4499,5.4329,5.3721,5.4237,5.5219,5.5302,5.6075,5.6984,5.6582,5.6393,5.6083,5.5034,5.4579,5.4296,5.3816,5.3751,5.3948,5.4422,5.5129,5.5865,5.6339,5.6447,5.6582,5.7087,5.7188,5.7188,5.7188,5.7188,5.7188,5.7188,5.7188,5.7188,5.7188,5.7188,5.7188,5.7188,5.7188,5.7188,5.7188,5.7188,5.7188,5.7188,5.7188,5.7163,5.7061,5.5999,5.5337,5.5219,5.4143,5.3518,5.3518,5.3518,5.3518,5.3518,5.3518,5.3518,5.3518,5.3518,5.389,4.9458,5.2367,5.6156,5.8558,6.0317,6.1626,6.2238,6.2901,6.3383,6.3494,6.3045,6.3007,6.4112,6.3934,6.357,6.3383,6.3457,6.3233,6.2498,6.2313,6.2279,6.2381,6.2313,6.2279,6.2381,6.2381,6.2381,6.2381,6.2381,6.1772,6.0351,6.0148,5.9471,5.8084,5.7949,5.7881,5.7881,5.7881,5.7881,5.7881,5.7881,5.7881,5.7881,5.7881,5.7881,5.7881,5.7881,5.7881,5.7814,5.7103,5.6427,5.5784,5.4938,5.4194,5.3619,5.3551,5.3913,5.461,5.5189,5.583,5.6501,5.6959,5.6714,5.6284,5.6118,5.5278,5.4391,5.4296,5.4672,5.5164,5.5254,5.6111,5.6984,5.7061,5.7087,5.7112,5.7163,5.7188,5.7188,5.7188,5.7188,5.7188,5.7188,5.7188,5.7188,5.7188,5.7188,5.7188,5.7188,5.7188,5.7188,5.7188,5.7188,5.7188,5.7188,5.7188,5.6984,5.6447,5.5709,5.5064,5.4548,5.3882,5.3518,5.3518,5.3518,5.3518,5.3518,5.3518,5.3518,5.3518,5.3518,5.389,5.0371,5.3247,5.6222,5.8457,5.9844,6.0799,6.1586,6.2036,6.2491,6.3317,6.2928,6.2736,6.3788,6.4393,6.4601,6.4183,6.4463,6.4323,6.3196,6.2665,6.2412,6.2425,6.2042,6.1772,6.1772,6.2144,6.2212,6.1806,6.2144,6.1907,6.0825,6.0351,5.9607,5.8558,5.8118,5.7881,5.7881,5.7881,5.7881,5.7881,5.7881,5.7881,5.7881,5.7881,5.7881,5.7881,5.7442,5.7273,5.7171,5.6055,5.5378,5.5006,5.4262,5.3788,5.3518,5.3518,5.4108,5.4978,5.5313,5.6035,5.6855,5.7112,5.7036,5.674,5.6393,5.5658,5.4948,5.4948,5.4887,5.5009,5.5716,5.6311,5.6767,5.7112,5.7188,5.7188,5.7188,5.7188,5.7188,5.7188,5.7188,5.7188,5.7188,5.7188,5.7188,5.7188,5.7188,5.7188,5.7188,5.7188,5.7061,5.6714,5.701,5.7061,5.6714,5.701,5.6959,5.6339,5.5716,5.5069,5.4422,5.3816,5.3518,5.3518,5.3518,5.3518,5.3518,5.3518,5.3518,5.3518,5.3518,5.4126,5.0744,5.2841,5.4702,5.7476,5.8727,5.9539,6.0486,6.1028,6.1588,6.2706,6.2638,6.2654,6.3383,6.4393,6.4974,6.4393,6.4772,6.4703,6.3385,6.2753,6.2392,6.2391,6.1907,6.1569,6.1569,6.2076,6.2178,6.1637,6.2076,6.1975,6.1061,6.0419,5.9674,5.8761,5.8186,5.7881,5.7881,5.7881,5.7881,5.7881,5.7881,5.7881,5.7881,5.7881,5.778,5.7577,5.7036,5.6697,5.6427,5.5141,5.46,5.4532,5.3788,5.3518,5.3551,5.3685,5.4333,5.5189,5.5549,5.6229,5.701,5.7138,5.7188,5.7087,5.6474,5.5894,5.5373,5.5189,5.4918,5.4852,5.5801,5.6311,5.6635,5.7087,5.7188,5.7188,5.7188,5.7188,5.7188,5.7188,5.7188,5.7188,5.7188,5.7188,5.7188,5.7188,5.7188,5.7188,5.7188,5.7188,5.7036,5.6582,5.6933,5.7036,5.6555,5.6959,5.6959,5.6339,5.5894,5.5249,5.4422,5.3979,5.3685,5.3518,5.3518,5.3518,5.3518,5.3518,5.3518,5.3518,5.3518,5.4296,4.9187,4.9796,5.0405,5.4803,5.6427,5.734,5.8795,6.025,6.1298,6.1371,6.1946,6.2654,6.3383,6.3533,6.3606,6.3533,6.357,6.3346,6.2576,6.2425,6.2425,6.2381,6.2347,6.2347,6.2347,6.2381,6.2381,6.2347,6.2381,6.1738,6.025,6.0114,5.9438,5.7983,5.7915,5.7881,5.7881,5.7881,5.7881,5.7881,5.7881,5.7881,5.7881,5.7881,5.7509,5.6867,5.6833,5.6393,5.5716,5.4905,5.46,5.4532,5.3788,5.3518,5.3551,5.4139,5.4391,5.4641,5.583,5.6284,5.6447,5.701,5.7188,5.7087,5.6474,5.5894,5.5284,5.4641,5.4852,5.5302,5.5396,5.6311,5.7163,5.7188,5.7188,5.7188,5.7188,5.7188,5.7188,5.7188,5.7188,5.7188,5.7188,5.7188,5.7188,5.7188,5.7188,5.7188,5.7188,5.7188,5.7188,5.7163,5.7163,5.7188,5.7163,5.7163,5.6959,5.6339,5.6284,5.5687,5.4454,5.4359,5.4074,5.3518,5.3518,5.3518,5.3518,5.3518,5.3518,5.3518,5.3518,5.4296,4.795,4.9187,5.0304,5.2875,5.4837,5.6359,5.7374,5.8761,6.0114,6.1095,6.1501,6.1917,6.2668,6.3158,6.3643,6.4112,6.4218,6.3934,6.3196,6.3083,6.2928,6.2459,6.2381,6.2212,6.1738,6.167,6.1467,6.096,6.0926,6.0689,6.0148,5.9674,5.9167,5.8626,5.8152,5.7881,5.7881,5.7881,5.7881,5.7881,5.7881,5.7881,5.7881,5.7881,5.7239,5.6089,5.6089,5.5683,5.4938,5.4194,5.389,5.3856,5.3619,5.3518,5.3551,5.4171,5.4672,5.5159,5.6035,5.6555,5.6933,5.7138,5.7188,5.7163,5.6959,5.6166,5.5361,5.5572,5.5184,5.4913,5.5744,5.6311,5.6714,5.7112,5.7188,5.7087,5.6688,5.6933,5.7188,5.7188,5.7188,5.7188,5.7188,5.7188,5.7188,5.7188,5.7188,5.7188,5.7188,5.7188,5.7061,5.6661,5.6984,5.7036,5.6635,5.6984,5.6959,5.6339,5.6311,5.5744,5.4454,5.4391,5.4106,5.3484,5.3518,5.3518,5.3518,5.3518,5.3518,5.3518,5.3518,5.4296,4.6368,4.7717,4.9154,5.1386,5.2875,5.4363,5.6359,5.7577,5.8693,6.0216,6.096,6.1467,6.1941,6.2642,6.3205,6.3442,6.3515,6.3335,6.2819,6.2984,6.2966,6.2459,6.2381,6.211,6.1366,6.1298,6.096,6.0148,6.0114,0.0,5.9742,5.9268,5.8896,5.866,5.8152,5.7881,5.7881,5.7881,5.7881,5.7881,5.7881,5.7881,5.7881,5.7645,5.6867,5.5716,5.5446,5.4905,5.4194,5.3687,5.3518,5.3518,5.3518,5.3518,5.3584,5.4425,5.5009,5.5519,5.6339,5.6845,5.7188,5.7188,5.7188,5.7163,5.6984,5.613,5.5361,5.5565,5.5034,5.4672,5.5716,5.6311,5.6635,5.6855,5.6907,5.6803,5.6393,5.6767,5.7138,5.6959,5.7061,5.7188,5.7188,5.7188,5.7188,5.7188,5.7188,5.7188,5.7188,5.7188,5.7061,5.6635,5.6984,5.7036,5.6635,5.6984,5.7036,5.6608,5.6582,5.6027,5.4795,5.4734,5.433,5.3518,5.3518,5.3518,5.3518,5.3518,5.3518,5.3518,5.3754,5.4668,0.0,0.0,0.0,5.0137,5.0541,5.1217,5.5615,5.663,5.7103,5.8626,6.0148,6.1197,6.1264,6.1839,6.2076,6.1366,6.1298,6.1332,6.1332,6.1941,6.2381,6.2381,6.2381,6.211,6.1366,6.1298,6.0926,6.0148,6.0047,5.9708,5.9032,5.8998,5.866,5.7915,5.7881,5.7881,5.7881,5.7881,5.7881,5.7881,5.7881,5.7881,5.7848,5.7137,5.6393,5.5683,5.4905,5.416,5.3518,5.3518,5.3518,5.3518,5.3518,5.3518,5.3651,5.4922,5.5402,5.5578,5.6767,5.7188,5.7188,5.7188,5.7188,5.7087,5.6474,5.5858,5.5184,5.4579,5.4391,5.4548,5.5249,5.6311,5.7036,5.6447,5.6311,5.6284,5.6284,5.6714,5.6984,5.642,5.6803,5.7163,5.7188,5.7188,5.7188,5.7188,5.7188,5.7188,5.7188,5.7188,5.7188,5.7188,5.7188,5.7188,5.7188,5.7188,5.7188,5.7188,5.7188,5.6661,5.549,5.5432,5.4799,5.3551,5.3518,5.3518,5.3518,5.3518,5.3518,5.3518,5.4262,5.5412,4.3641,0.0,0.0,0.0,0.0,0.0,5.1555,5.2773,5.4296,5.6867,5.7746,5.8524,6.0148,6.0182,5.9877,5.9674,6.1028,6.2076,6.2076,6.2245,6.2381,6.2381,6.2381,6.211,6.1366,6.0757,6.0114,0.0,5.8795,5.8423,5.822,5.8186,5.8084,5.7881,5.7881,5.7881,5.7881,5.7881,5.7881,5.7881,5.7881,5.7881,5.7848,5.7137,5.6393,5.5683,5.4905,5.416,5.3518,5.3518,5.3518,5.3518,5.3518,5.3518,5.3584,5.4394,5.4978,5.5519,5.6284,5.6819,5.7188,5.7188,5.7188,5.7087,5.6474,5.5858,5.5249,5.4579,5.4391,5.4672,5.5744,5.6311,5.6608,5.6907,5.6284,5.5665,5.5665,5.5773,5.6083,5.6793,5.6714,5.6688,5.7112,5.7188,5.7188,5.7188,5.7188,5.7188,5.7188,5.7188,5.7188,5.7188,5.7188,5.7188,5.7188,5.7188,5.7188,5.7188,5.7188,5.6845,5.609,5.5636,5.5013,5.4171,5.3717,5.3518,5.3518,5.3518,5.3518,5.3551,5.4803,5.5919,4.2958,4.392,4.5014,4.5949,0.0,0.0,5.0507,5.1454,5.2706,5.5716,5.6596,5.7306,5.8896,5.9099,5.9099,5.9404,6.0554,6.1434,6.1434,6.1738,6.2042,6.2347,6.2381,6.211,6.1366,6.0588,5.981,5.9066,5.8321,5.7881,5.7881,5.7881,5.7881,5.7881,5.7881,5.7881,5.7881,5.7881,5.7881,5.7881,5.7881,5.7712,5.7408,5.6697,5.5953,5.5209,5.4465,5.389,5.3518,5.3518,5.3518,5.3518,5.3518,5.3518,5.3618,5.4488,5.5039,5.5549,5.6393,5.6933,5.7188,5.7188,5.7188,5.7087,5.6474,5.5858,5.5219,5.4579,5.4391,5.4703,5.5971,5.6311,5.6339,5.6447,5.5887,5.5343,5.5039,5.4978,5.5278,5.6248,5.6366,5.642,5.674,5.6819,5.674,5.6501,5.6661,5.6819,5.6819,5.7036,5.7188,5.7188,5.7188,5.7188,5.7188,5.7188,5.7188,5.7188,5.7188,5.6933,5.6311,5.5978,5.5455,5.4826,5.4205,5.3882,5.3882,5.3882,5.4353,5.5264,5.6433,5.7227,4.2655,4.3152,4.4178,4.6077,4.6254,0.0,5.071,5.1251,5.1726,5.4532,5.5683,5.6427,5.7239,5.7949,5.8626,5.9268,5.9505,5.9742,6.0047,6.0791,6.1535,6.2178,6.2347,6.211,6.1366,6.0655,5.9911,5.9066,5.8321,5.7881,5.7881,5.7881,5.7881,5.7881,5.7881,5.7881,5.7881,5.7881,5.7881,5.7881,5.7814,5.7442,5.6765,5.5953,5.5209,5.4566,5.3822,5.3518,5.3518,5.3518,5.3518,5.3518,5.3518,5.3518,5.3651,5.4861,5.5343,5.5543,5.6688,5.7138,5.7188,5.7188,5.7188,5.7087,5.6474,5.5887,5.5302,5.4703,5.4516,5.4761,5.5971,5.6257,5.609,5.5636,5.5402,5.5129,5.4516,5.4391,5.4579,5.5159,5.5773,5.6229,5.6284,5.6311,5.6146,5.5694,5.6063,5.6393,5.6393,5.6881,5.7188,5.7188,5.7188,5.7188,5.7188,5.7188,5.7188,5.7188,5.7188,5.6984,5.642,5.6339,5.6063,5.5519,5.4834,5.4554,5.461,5.4554,5.5633,5.775,5.8453,5.8875,4.3524,4.4302,4.5218,4.5075,4.6264,0.0,4.7056,4.824,4.9763,5.0947,5.1792,5.2739,5.4093,5.4499,5.4634,5.4769,5.5784,5.7408,5.9776,6.0791,6.1366,6.1501,6.2042,6.211,6.1366,6.1163,6.0486,5.9133,5.8321,5.7881,5.7881,5.7881,5.7881,5.7881,5.7881,5.7881,5.7881,5.7881,5.7881,5.7881,5.7306,5.6934,5.6765,5.5412,5.4735,5.4566,5.3822,5.3518,5.3518,5.3518,5.3518,5.3518,5.3518,5.3518,5.3584,5.433,5.4948,5.5519,5.6229,5.6767,5.7188,5.7188,5.7188,5.7087,5.6474,5.6229,5.5971,5.5367,5.5189,5.5302,5.6118,5.595,5.5694,5.6035,5.5337,5.4548,5.4422,5.4391,5.4454,5.4579,5.5129,5.5751,5.6229,5.6311,5.642,5.6793,5.6959,5.7036,5.7036,5.7138,5.7188,5.7188,5.7188,5.7188,5.7188,5.7188,5.7188,5.7188,5.7188,5.7138,5.7036,5.6555,5.6257,5.6118,5.5571,5.5514,5.5915,5.554,5.6185,5.775,5.8453,5.9162,4.3784,4.4122,4.4821,4.5496,4.5998,0.0,0.0,4.7631,4.8308,4.9796,5.0101,5.0676,5.257,5.2604,5.2739,5.3856,5.4972,5.6089,5.7205,5.8964,6.0452,6.1231,6.1637,6.1839,6.1839,6.1535,6.0655,5.9133,5.8321,5.7881,5.7881,5.7881,5.7881,5.7881,5.7881,5.7881,5.7881,5.7881,5.7881,5.7881,5.7137,5.6596,5.6224,5.5108,5.4397,5.4025,5.3653,5.3518,5.3518,5.3518,5.3518,5.3518,5.3518,5.3651,5.4044,5.4641,5.5243,5.595,5.6528,5.6959,5.7188,5.7188,5.7188,5.7087,5.6474,5.609,5.5865,5.5865,5.5367,5.5064,5.6027,5.5601,5.4978,5.5278,5.4852,5.4296,5.4044,5.448,5.4849,5.4559,5.5009,5.5523,5.5786,5.5572,5.5484,5.5766,5.5794,5.5907,5.6248,5.6555,5.6881,5.7163,5.6933,5.674,5.674,5.6474,5.6311,5.6311,5.6311,5.6311,5.6311,5.5999,5.6007,5.6396,5.6164,5.649,5.7517,5.7659,5.8077,5.8667,5.9844,6.0446,4.4413,4.4287,4.4744,4.6225,4.5988,4.5906,0.0,0.0,0.0,4.8917,4.8883,4.912,5.0913,5.0879,5.1183,5.301,5.416,5.4634,5.4025,5.6258,5.8524,6.0047,6.0723,6.1298,6.1907,6.1163,6.025,5.9302,5.8118,5.7577,5.7881,5.7881,5.7881,5.7881,5.7881,5.7881,5.7881,5.7881,5.7814,5.7679,5.6934,5.6224,5.548,5.4735,5.4059,5.3518,5.3517,5.3517,5.3518,5.3517,5.3517,5.3484,5.3618,5.3979,5.4485,5.5243,5.5858,5.6393,5.6984,5.7188,5.7188,5.7188,5.7188,5.7112,5.6608,5.6063,5.5665,5.5999,5.5396,5.4795,5.5716,5.5154,5.4391,5.4391,5.4391,5.4269,5.3821,5.4629,5.5371,5.4907,5.5212,5.5529,5.5418,5.4869,5.4454,5.4579,5.461,5.4795,5.5343,5.5837,5.6311,5.6793,5.642,5.6118,5.6118,5.5694,5.5402,5.5402,5.5402,5.5461,5.5578,5.5835,5.6345,5.7088,5.7111,5.7729,5.8864,5.971,6.0008,5.9868,6.1326,6.1692,4.663,4.6771,4.6977,4.6007,4.7076,4.7832,4.5626,0.0,4.7496,4.6413,0.0,4.7124,4.7361,0.0,0.0,4.8615,5.0405,5.1658,5.1623,5.3044,5.4668,5.619,5.866,6.0283,6.0351,5.9099,5.8761,5.9877,5.7476,5.6528,5.7814,5.7881,5.7881,5.7881,5.7881,5.7881,5.7881,5.7881,5.7577,5.6934,5.619,5.5446,5.4702,5.3957,5.3585,5.3518,5.3651,5.3618,5.3518,5.3617,5.3618,5.3551,5.4074,5.4328,5.4548,5.5744,5.6229,5.6393,5.6984,5.7188,5.7188,5.7188,5.7188,5.7188,5.7112,5.6661,5.6118,5.5565,5.5332,5.5159,5.4734,5.4516,5.4391,5.4391,5.4391,5.4407,5.4466,5.5005,5.5542,5.5585,5.5616,5.5656,5.5531,5.4871,5.461,5.5224,5.5313,5.5308,5.5402,5.5461,5.5549,5.5607,5.5513,5.5519,5.5519,5.5461,5.5402,5.5402,5.5402,5.5665,5.6174,5.7397,5.8418,5.9249,5.9373,5.9445,5.9509,6.0418,6.0805,6.0701,6.158,6.195,4.685,4.681,4.6966,4.6426,4.6657,4.6684,4.553,4.5673,4.594,4.5737,0.0,0.0,0.0,0.0,0.0,0.0,5.0067,5.1048,5.0608,5.2266,5.4059,5.5512,0.0,0.0,5.8693,0.0,0.0,0.0,5.7543,5.6799,5.7814,5.7881,5.7881,5.7881,5.7881,5.7881,5.7881,5.7881,5.7509,5.6799,5.6055,5.531,5.4566,5.3822,5.3518,5.3518,5.3551,5.3551,5.3518,5.3551,5.3551,5.3551,5.4171,5.4641,5.5069,5.5943,5.6528,5.6881,5.7112,5.7188,5.7188,5.7188,5.7188,5.7213,5.7289,5.6819,5.6257,5.6055,5.5716,5.5343,5.5039,5.4703,5.4391,5.4391,5.4139,5.4021,5.4499,5.5145,5.5758,5.6225,5.6359,5.6295,5.6269,5.528,5.476,5.5362,5.4796,5.4394,5.4765,5.4826,5.4948,5.5302,5.5039,5.4826,5.4826,5.4903,5.4954,5.4954,5.5718,5.6427,5.7088,5.7697,5.8581,5.9741,5.981,6.0231,6.0991,6.1396,6.154,6.1471,6.1833,6.1776,4.7423,4.7287,4.7333,4.666,4.6343,4.6028,4.5324,4.5332,4.5534,4.5669,4.5771,0.0,0.0,0.0,4.7462,4.8511,0.0,5.0405,4.9864,5.1217,5.2807,5.4296,0.0,0.0,0.0,0.0,0.0,0.0,0.0,5.6393,5.7543,5.7577,5.7679,5.7881,5.7881,5.7881,5.7881,5.7881,5.7408,5.6494,5.5987,5.5209,5.4262,5.3754,5.3518,5.3518,5.3517,5.3551,5.3551,5.3618,5.3718,5.3882,5.4485,5.5099,5.5722,5.6146,5.6661,5.7188,5.7188,5.7188,5.7188,5.7188,5.7188,5.7213,5.7313,5.6984,5.6528,5.6474,5.6055,5.5636,5.5461,5.4887,5.4391,5.4391,5.4117,5.3991,5.4735,5.548,5.6224,5.704,5.7175,5.7211,5.7247,5.5956,5.4975,5.5206,5.443,5.3956,5.4383,5.4447,5.4606,5.5043,5.4701,5.4447,5.4447,5.4533,5.4771,5.5145,5.6326,5.7349,5.827,5.845,5.9135,6.0454,6.049,6.0976,6.1978,6.1978,6.1978,6.1978,6.1978,6.1636,0.0,0.0,0.0,4.6313,0.0,4.6977,4.4194,4.5768,4.7428,4.6007,4.7394,4.8443,4.7056,4.7394,4.7872,4.7906,4.8578,0.0,0.0,4.912,4.9695,5.1183,5.3889,5.5987,0.0,5.5547,0.0,0.0,0.0,0.0,5.6731,5.6833,5.7171,5.7881,5.7881,5.7881,5.7881,5.7881,5.7171,5.5715,5.5681,5.4938,5.3551,5.3518,5.3518,5.3518,5.3617,5.3684,5.3717,5.3882,5.4271,5.4741,5.5308,5.5858,5.6284,5.6284,5.6661,5.7188,5.7188,5.7188,5.7188,5.7188,5.7188,5.7188,5.7188,5.7188,5.7061,5.6474,5.6284,5.6146,5.5578,5.4887,5.4391,5.4391,5.4493,5.4769,5.5513,5.6258,5.704,5.7965,5.8171,5.8243,5.8421,5.6912,5.5446,5.4736,5.4601,5.4566,5.4567,5.4567,5.4601,5.4601,5.4635,5.4567,5.4567,5.4601,5.5179,5.6532,5.7276,5.8341,5.9773,6.0411,6.1082,6.1914,6.1914,6.1942,6.1978,6.1978,6.1978,6.1978,6.1978,6.1636,0.0,0.0,5.0241,4.8345,0.0,0.0,0.0,0.0,0.0,4.6528,4.78,4.8849,4.8342,4.8477,4.8646,4.8646,4.9255,4.956,0.0,4.9424,5.0101,5.105,5.301,5.4126,5.3856,0.0,0.0,0.0,5.4634,0.0,0.0,5.6528,5.69,5.7171,5.7645,5.7881,5.7881,5.7881,5.7171,5.5681,5.5681,5.4938,5.3518,5.3518,5.3518,5.3518,5.3551,5.3618,5.3717,5.3783,5.3915,5.4108,5.4738,5.5337,5.5879,5.6635,5.7036,5.7213,5.7289,5.7388,5.7437,5.7363,5.7313,5.7313,5.7313,5.701,5.6582,5.6474,5.6366,5.6257,5.6063,5.583,5.5572,5.5159,5.5104,5.5312,5.5617,5.6398,5.725,5.8035,5.8312,5.8384,5.8312,5.7763,5.715,5.6541,5.5823,5.5379,5.5518,5.538,5.5344,5.5344,5.5344,5.5344,5.5344,5.6167,5.7324,5.8808,5.9505,6.0308,6.1268,6.1498,6.1725,6.1978,6.1978,6.1978,6.1978,6.1978,6.1978,6.1978,6.1515,6.0986,5.1182,5.1294,0.0,4.9758,4.9069,0.0,4.6908,0.0,4.8984,0.0,0.0,0.0,5.0608,4.9932,4.9492,4.9763,4.9729,4.9526,0.0,4.9627,5.027,5.0744,5.2164,5.3078,5.3112,5.3518,5.3991,5.4566,5.4093,0.0,0.0,0.0,5.6528,5.6799,5.7509,5.7881,5.7881,5.7881,5.7171,5.5681,5.5681,5.4938,5.3518,5.3518,5.3517,5.3584,5.3584,5.3718,5.3882,5.3882,5.3979,5.4205,5.4861,5.5396,5.5879,5.6652,5.7112,5.7338,5.7388,5.7486,5.7583,5.7486,5.7461,5.7461,5.7461,5.7163,5.6793,5.6871,5.6793,5.6688,5.6688,5.6716,5.6565,5.5936,5.6322,5.672,5.6576,5.7432,5.8357,5.8668,5.8841,5.884,5.849,5.8348,5.804,5.7325,5.6535,5.6124,5.6264,5.6159,5.6089,5.6089,5.63,5.6543,5.6781,5.7904,5.9088,6.0278,6.0741,6.1315,6.195,6.1978,6.1978,6.1978,6.1978,6.1978,6.1978,6.1784,6.1784,6.1978,6.1075,6.0406]}]]